GFSMW_con_lsi_000.txt.gz
Lid_Strength_Index
10 8 7 7 6 6 6 6 5 5 3 3 3 3 2 3 3 3 3 3 4 4 4 3 3 4 4 3 4 4 4 4 5 6 4 4 4 4 4 4 4 4 4
9 8 8 8 8 8 7 6 5 5 4 3 3 2 3 3 2 2 2 3 3 3 3 4 3 4 4 3 3 4 4 4 5 5 5 6 4 3 3 3 4 4 4
9 8 8 8 8 8 7 6 5 4 5 3 2 3 3 3 3 3 3 2 2 2 2 2 3 3 3 3 3 3 4 4 3 4 4 7 7 8 7 6 4 4 4
9 9 8 8 8 7 7 6 6 6 6 5 5 5 5 5 4 3 3 3 2 2 1 1 1 1 2 3 3 2 3 3 3 2 3 3 3 6 6 4 7 6 4
9 8 7 6 7 7 7 7 7 7 7 7 7 7 8 6 6 6 6 6 4 3 3 2 1 1 1 1 2 2 2 2 2 3 3 3 4 3 5 7 5 3 5
9 8 7 6 7 7 7 7 8 8 8 8 8 9 9 8 8 8 7 6 5 4 5 5 3 1 1 1 1 1 1 1 2 2 2 3 4 4 5 5 5 5 3
8 8 8 8 8 9 9 8 8 8 8 8 8 8 8 8 8 8 8 8 7 7 6 7 7 6 6 4 2 1 1 1 2 2 2 2 2 2 3 4 5 5 3
9 9 9 9 9 9 9 9 8 8 8 8 8 7 7 7 7 8 7 7 7 6 6 6 6 6 6 6 6 5 4 3 2 2 2 2 2 2 2 3 4 6 5
9 10 10 9 9 9 9 9 8 8 8 8 8 8 7 7 7 7 7 7 6 6 6 6 6 6 5 5 5 5 5 5 4 4 3 2 2 2 2 2 3 4 7
10 10 9 9 9 9 9 8 8 8 8 7 7 7 7 7 7 8 8 8 7 7 7 7 6 6 6 5 5 5 5 5 5 4 4 4 3 3 2 2 2 3 4
10 9 9 9 9 9 9 9 9 8 8 8 8 8 8 8 9 9 9 9 9 8 8 8 7 7 6 6 6 6 6 6 5 5 5 4 4 3 2 2 2 3 3
9 9 9 9 9 10 9 9 9 10 10 9 10 10 9 10 10 10 10 10 10 9 9 8 8 8 8 7 6 6 6 6 7 6 5 5 4 4 3 3 3 3 2
10 11 11 10 9 9 10 10 11 11 11 11 11 11 11 12 12 12 11 11 11 10 10 9 9 9 8 7 7 6 6 7 7 6 5 5 4 5 4 4 4 3 3
11 11 10 9 10 10 11 12 12 12 12 12 12 12 13 13 13 12 12 12 11 11 11 10 10 9 7 7 6 6 7 6 6 5 4 5 6 6 5 5 5 4 3
11 11 10 11 11 12 13 13 13 13 13 13 13 13 13 13 13 13 13 12 12 12 11 11 10 9 7 8 6 7 7 6 5 6 7 6 6 4 4 5 7 5 5
11 9 10 11 12 13 14 14 14 14 14 14 14 14 15 14 14 14 14 13 13 12 11 11 10 9 9 6 5 6 7 5 7 8 8 6 6 4 5 5 5 4 5
10 10 12 12 13 14 14 15 15 14 15 15 15 15 15 15 15 14 13 13 12 11 11 11 10 11 10 6 6 5 7 8 8 8 9 8 6 7 8 7 5 6 5
11 12 13 13 14 14 15 15 15 16 16 16 16 15 15 15 14 13 13 13 13 12 12 12 11 11 10 7 5 5 9 10 9 8 9 7 7 7 7 7 8 7 6
12 12 13 13 14 15 16 16 17 17 17 17 16 15 14 14 13 14 14 13 13 13 12 12 11 11 11 7 6 7 9 9 9 9 8 7 7 6 5 7 8 7 6
12 13 12 14 15 16 17 18 18 18 17 16 15 14 13 14 14 14 13 13 13 12 12 12 12 10 11 8 7 7 9 10 9 9 8 6 6 6 6 7 7 8 6
12 13 14 15 16 17 18 18 18 18 16 15 14 14 14 14 14 13 13 13 13 13 13 13 12 11 11 10 7 6 8 9 9 9 9 8 6 6 6 5 6 6 5
13 14 16 16 16 16 17 18 18 16 15 14 14 14 14 13 12 13 13 13 13 13 13 13 12 11 10 7 7 6 6 6 8 9 9 8 6 5 5 5 5 5 5
14 15 15 15 16 17 17 18 16 15 14 14 14 14 13 13 13 13 13 13 13 13 13 12 12 11 9 9 6 6 5 5 7 7 6 6 6 6 6 6 5 6 8
15 15 16 16 17 17 16 16 15 14 14 15 14 14 14 13 13 13 12 12 13 12 12 11 11 10 10 9 8 7 7 5 6 6 7 6 7 7 7 7 7 8 8
15 15 16 17 17 17 16 15 14 14 15 15 14 13 13 13 13 12 12 12 11 10 10 10 9 9 9 8 5 6 7 6 7 8 8 9 10 10 10 9 9 8 9
16 17 17 18 17 16 15 14 14 14 14 14 14 13 13 13 12 13 13 9 8 7 6 5 6 6 5 5 5 5 5 6 7 9 10 11 11 11 11 10 10 9 10

GFSMW_con_lsi_003.txt.gz
Lid_Strength_Index
9 9 9 9 8 7 7 7 6 6 3 2 3 3 3 3 3 3 3 4 4 4 5 4 4 4 4 4 4 5 5 5 6 5 4 4 3 4 3 3 3 4 4
10 9 9 9 9 9 8 8 7 6 4 2 3 3 3 3 3 2 2 2 2 3 3 4 3 3 4 4 4 4 5 5 4 4 4 6 4 4 4 3 4 4 3
10 10 9 9 9 9 9 7 7 6 5 4 2 3 3 3 4 3 3 3 3 2 2 2 1 1 2 3 3 3 4 4 3 4 4 6 7 6 5 5 4 3 4
10 9 9 9 9 9 8 7 6 7 7 6 6 6 7 7 6 6 6 6 5 4 4 3 3 2 1 2 2 1 2 2 3 3 3 3 3 6 7 4 5 4 4
10 10 9 9 8 8 8 7 7 7 8 8 9 9 9 9 8 8 8 7 7 6 6 7 7 6 4 3 2 1 1 1 2 3 3 3 3 3 5 7 5 3 3
10 10 9 8 8 8 8 8 8 9 9 8 9 9 9 9 8 8 8 8 7 7 6 6 7 7 7 6 5 5 4 2 2 2 2 3 4 4 5 5 5 5 3
10 10 9 8 8 9 9 9 9 9 9 9 8 9 9 9 9 9 8 8 8 8 7 8 7 7 7 7 7 6 6 5 5 4 4 2 2 2 3 4 5 5 3
10 9 9 9 10 10 10 10 10 9 9 9 9 9 9 8 8 9 9 9 9 8 8 8 8 8 7 7 7 7 7 6 6 6 5 5 4 3 2 3 4 6 5
9 9 9 10 11 11 10 10 10 9 9 9 9 9 9 10 10 10 10 10 10 9 9 9 9 8 8 7 7 8 8 7 7 6 6 5 5 4 3 3 2 4 7
10 10 10 11 10 10 10 10 10 10 10 10 10 10 10 11 11 11 11 11 11 10 10 10 10 9 9 9 9 8 7 8 7 6 7 6 5 4 3 3 3 3 4
11 10 10 10 10 10 10 11 11 11 11 10 11 11 12 12 13 13 13 12 12 12 12 11 11 11 11 10 9 9 8 8 8 7 6 6 5 4 4 4 4 5 4
10 10 10 10 10 11 12 12 12 12 12 12 12 12 13 14 14 14 14 13 13 13 12 12 12 13 12 11 10 11 8 9 8 6 6 5 3 4 5 5 5 5 4
11 11 11 10 11 11 12 13 13 13 13 13 14 14 15 15 15 15 14 14 14 14 14 13 13 13 12 11 11 10 8 9 8 7 6 4 6 6 7 6 5 6 7
11 11 10 11 11 12 13 14 14 14 14 14 15 16 16 16 15 15 15 15 14 15 15 14 13 13 12 10 10 9 9 8 7 6 4 7 7 6 6 5 7 8 7
12 10 10 11 13 13 14 15 15 15 15 15 16 16 16 16 16 16 16 15 15 15 14 14 13 12 11 10 10 9 9 8 9 9 8 8 7 5 4 5 6 7 7
12 10 11 12 13 15 15 15 15 15 16 16 16 16 16 16 16 16 16 16 16 15 14 13 12 12 11 9 7 7 8 9 10 11 10 8 7 7 4 5 5 5 7
11 10 12 13 14 15 15 16 16 16 16 17 17 16 16 17 17 16 16 16 15 14 13 13 13 13 12 9 8 7 8 10 11 10 10 9 8 7 7 6 5 5 5
11 12 13 14 15 15 16 16 16 17 18 17 17 17 17 17 17 16 16 15 14 13 13 13 13 13 12 9 8 7 10 10 10 10 9 9 9 8 7 8 8 8 7
12 13 14 14 16 16 15 16 18 18 18 18 18 17 17 17 16 15 14 14 13 13 13 13 13 13 13 9 8 8 10 10 10 9 9 8 8 7 6 8 9 9 9
13 14 14 15 15 16 18 19 18 19 19 18 18 17 16 16 15 14 14 13 13 13 13 13 12 11 12 9 8 8 9 10 9 9 8 6 7 6 6 8 9 9 8
13 14 14 16 17 17 18 18 18 19 18 18 17 16 15 14 14 14 13 13 13 13 13 13 12 12 11 10 7 6 8 8 8 7 8 7 5 5 5 5 7 8 7
15 15 16 17 16 16 17 17 19 18 18 17 16 15 14 13 12 13 13 13 13 13 13 13 12 11 10 7 7 6 5 5 6 7 7 6 5 5 5 6 6 6 7
16 16 17 17 16 16 17 19 19 18 17 17 16 15 14 14 13 13 13 13 13 14 13 13 12 11 9 9 6 5 4 4 5 5 4 5 5 6 7 7 7 6 8
17 17 16 17 17 18 18 19 18 17 17 17 16 15 15 13 13 13 13 13 13 13 12 12 11 11 10 10 8 8 7 6 6 5 7 7 7 7 8 9 9 9 9
16 16 17 18 19 19 19 18 17 17 16 15 15 15 14 14 14 13 13 13 12 10 10 10 10 11 11 10 7 7 8 8 6 7 10 10 10 11 11 11 10 10 10
16 18 19 19 19 19 18 17 16 16 16 15 15 14 14 14 13 14 14 10 9 8 8 7 8 9 8 7 7 7 6 6 6 9 11 12 12 12 12 12 11 11 11

GFSMW_con_lsi_006.txt.gz
Lid_Strength_Index
10 8 7 8 9 9 9 8 6 6 4 3 3 4 3 3 3 3 2 3 3 4 4 5 4 4 4 3 3 4 5 4 4 5 4 4 3 3 3 3 3 3 3
9 9 9 10 10 10 9 8 8 7 5 3 3 3 3 3 3 3 4 4 3 3 3 3 3 3 3 3 3 3 3 3 3 4 4 6 4 4 3 3 3 3 3
9 10 10 10 10 10 9 9 8 8 7 5 4 4 5 5 6 6 7 7 6 7 6 6 5 4 3 3 2 2 2 3 2 2 4 6 7 5 3 4 4 4 4
10 9 9 10 10 9 9 9 8 7 7 7 7 8 8 9 9 8 8 8 7 7 7 7 7 7 6 6 5 5 3 3 3 2 2 2 3 6 7 3 3 4 4
10 10 10 10 10 9 9 9 7 7 7 8 9 9 10 10 9 9 9 8 8 7 7 7 8 8 8 8 7 7 7 6 5 5 4 4 4 3 5 6 5 3 2
10 10 10 10 10 10 9 8 7 8 8 9 9 10 10 10 10 10 10 9 8 8 8 8 8 8 8 8 8 8 8 7 7 7 7 7 7 6 6 6 6 6 4
10 10 10 10 10 9 9 8 9 9 10 10 10 10 10 10 11 11 10 11 10 10 10 10 10 9 9 8 8 8 8 8 8 7 7 6 7 6 6 6 7 6 5
10 10 10 10 10 9 9 9 10 11 11 10 11 11 11 11 11 11 11 11 11 11 11 11 10 10 10 9 9 9 9 8 8 8 8 7 7 6 6 6 5 7 6
10 9 10 10 10 10 10 11 11 11 11 11 11 12 12 12 12 12 13 13 13 12 12 12 12 11 11 11 11 10 10 9 9 9 9 9 8 7 6 4 3 5 8
10 10 10 10 11 11 12 12 12 12 12 12 12 12 13 14 14 14 15 15 14 14 14 13 13 13 13 13 13 11 12 11 9 11 11 9 8 7 5 4 4 5 5
10 10 11 11 11 12 12 12 13 13 13 12 13 14 14 15 15 15 15 15 15 15 15 14 14 14 14 14 13 12 13 12 11 11 10 9 7 5 6 5 6 7 6
10 11 11 11 11 12 13 14 13 13 13 13 14 15 16 16 16 16 16 16 16 15 15 15 15 15 15 14 14 14 13 12 12 11 9 7 5 7 7 6 8 7 5
11 11 11 11 12 13 13 14 14 14 14 15 16 16 17 17 17 17 16 16 16 16 16 15 15 15 15 15 14 13 12 11 10 9 9 10 9 9 9 9 8 6 6
11 11 11 12 12 13 14 15 15 15 15 16 17 17 17 17 17 17 17 16 16 16 16 16 16 15 15 14 12 11 10 9 9 10 10 11 10 10 9 9 9 7 8
12 11 10 12 13 14 15 15 15 16 16 17 17 17 17 17 17 17 17 17 17 16 16 16 16 15 13 11 10 9 9 9 9 10 10 10 8 7 8 8 8 8 8
11 10 11 12 14 15 15 16 16 17 17 17 17 17 17 17 17 17 17 17 17 17 17 16 15 13 11 9 7 8 9 9 10 11 10 10 9 9 7 7 6 7 9
11 10 12 13 15 15 16 17 17 18 17 17 18 17 17 17 17 17 17 17 17 17 16 15 13 13 12 9 8 7 9 10 10 10 10 10 9 8 9 8 7 7 6
11 12 13 14 15 16 16 17 17 17 18 18 18 18 18 18 17 18 18 18 17 16 15 13 13 13 12 9 8 8 10 10 9 9 8 8 8 7 7 8 8 8 8
12 13 14 15 16 17 17 17 17 19 19 19 19 18 18 18 18 18 18 17 16 14 13 13 13 13 13 9 8 8 9 9 9 8 7 6 7 5 3 6 7 8 7
13 14 15 16 17 18 18 19 19 20 19 19 18 18 18 18 18 18 17 15 14 13 13 13 13 12 13 9 7 7 9 10 9 8 6 5 5 4 3 6 7 8 9
14 15 15 17 18 19 18 19 20 20 19 18 18 18 18 18 18 17 15 14 14 14 14 14 13 13 12 10 7 7 8 9 9 8 8 8 5 4 5 5 8 8 7
15 16 17 18 18 17 19 20 19 19 19 18 18 18 18 17 15 15 14 14 14 14 14 14 14 12 11 8 8 7 6 6 8 9 8 7 6 7 6 7 6 6 7
15 16 17 18 19 19 19 20 20 19 19 19 19 19 18 17 15 15 14 14 14 14 15 14 14 12 11 10 7 7 6 6 8 8 7 7 7 8 8 8 7 8 10
17 17 18 18 18 18 19 20 19 19 19 19 19 18 18 16 15 14 14 14 14 14 14 14 13 12 11 10 10 9 9 7 8 7 8 9 9 8 9 10 10 11 11
17 17 17 18 19 20 19 19 18 19 19 19 18 18 17 16 15 14 14 14 13 12 13 12 12 12 11 10 8 8 9 9 8 8 10 11 11 12 12 11 12 12 12
17 17 18 19 20 19 19 19 19 19 19 19 17 17 15 15 14 14 14 11 10 10 9 9 9 9 8 7 7 7 7 7 8 11 12 13 12 13 13 13 13 13 13

GFSMW_con_lsi_009.txt.gz
Lid_Strength_Index
8 8 8 7 6 5 5 6 5 3 1 1 1 1 1 2 3 4 4 4 3 3 3 3 3 3 2 2 2 1 2 1 1 3 2 2 1 1 1 0 1 1 1
8 8 7 6 7 7 7 7 6 5 3 1 1 1 3 4 4 4 5 5 6 6 6 6 6 5 5 5 4 4 4 3 2 3 3 5 3 1 1 1 1 1 0
8 7 7 8 8 8 8 7 7 6 6 4 3 3 4 4 5 6 7 7 7 7 7 6 6 6 6 6 6 5 6 7 5 4 5 6 7 5 3 2 1 1 1
8 8 8 8 8 8 7 7 7 7 6 5 5 5 6 7 7 8 8 8 7 7 7 7 7 7 7 7 7 7 7 7 8 6 5 5 5 8 8 6 4 3 2
8 9 9 8 8 8 8 8 7 7 6 6 6 7 8 8 9 9 9 8 8 8 8 8 8 8 8 8 8 8 8 7 7 7 7 7 6 6 6 8 7 5 4
9 9 9 8 9 8 8 7 8 8 7 7 8 8 9 10 10 10 10 10 9 9 10 10 10 9 9 9 9 8 8 8 7 7 7 7 7 8 8 8 8 8 6
9 9 9 8 8 8 8 7 7 8 8 9 10 10 11 11 11 11 11 12 12 11 11 11 11 11 11 11 10 10 9 9 8 8 7 7 8 8 8 8 8 8 7
8 8 8 8 8 8 8 8 8 9 10 11 11 12 11 12 12 12 12 13 13 12 12 12 12 12 12 12 11 11 9 10 9 8 9 9 10 9 8 8 8 9 9
9 8 9 8 8 8 9 9 10 11 11 11 12 13 13 13 13 13 13 13 13 13 13 13 13 13 13 12 12 12 11 11 11 10 10 10 10 8 7 5 5 6 8
9 9 9 8 9 10 10 10 11 11 11 12 13 13 13 14 14 14 14 14 14 14 14 14 14 13 13 13 13 13 12 12 12 11 11 10 9 8 6 5 5 5 7
9 9 9 9 10 11 11 11 12 12 12 13 14 14 14 14 14 15 15 15 14 15 15 14 14 14 14 14 13 13 13 13 12 11 11 10 8 8 7 6 6 7 8
9 9 9 10 11 12 12 12 13 12 13 14 14 15 15 15 15 15 15 15 15 15 15 15 15 15 14 14 14 14 13 13 13 11 10 9 8 8 8 7 8 8 7
10 10 10 10 11 12 13 13 13 13 14 15 15 15 16 16 16 16 15 15 15 15 15 15 15 15 14 14 14 13 13 12 11 10 8 9 9 9 8 8 8 7 7
10 10 10 11 12 12 13 13 14 14 15 15 16 16 16 16 16 15 15 15 15 15 15 15 15 15 14 14 14 13 12 11 9 9 9 9 9 9 8 8 7 7 7
11 10 10 11 12 13 13 14 15 15 15 16 16 16 16 16 16 16 16 16 16 15 15 15 15 14 14 14 12 11 10 9 9 9 9 9 8 7 6 7 7 7 7
10 10 10 11 13 13 14 14 15 16 16 16 17 16 16 16 16 16 16 16 16 15 15 15 15 15 14 11 9 8 9 9 9 10 9 8 7 7 6 5 5 5 6
11 10 11 11 13 14 14 15 16 16 16 17 17 17 17 17 16 16 16 16 16 16 15 15 15 14 13 10 8 8 9 9 10 9 9 8 7 7 7 6 6 5 4
11 10 11 13 14 14 15 16 16 17 17 17 17 17 17 17 17 17 17 16 16 16 16 15 14 13 12 9 8 8 9 9 9 8 8 8 7 6 7 7 7 7 6
10 10 12 14 15 15 16 17 17 18 18 18 18 17 17 17 17 17 17 16 16 15 15 14 13 12 12 9 9 9 9 9 9 8 7 7 7 6 6 7 8 8 7
11 13 14 15 16 17 17 17 18 18 18 18 18 17 17 17 17 17 16 16 15 15 14 14 12 11 12 10 9 9 9 9 9 8 7 7 7 6 5 8 9 10 9
13 14 15 15 17 17 17 17 18 18 18 18 18 17 17 17 16 16 16 15 15 15 14 13 12 12 11 10 8 8 9 9 9 8 9 8 6 5 6 7 9 9 8
14 15 16 17 17 16 17 18 19 18 18 18 18 17 17 17 16 16 15 15 15 14 14 13 12 11 10 9 9 8 7 7 8 9 8 7 5 6 7 8 8 8 8
15 15 16 17 18 18 18 19 18 18 18 18 18 17 17 16 16 16 15 15 14 14 13 13 12 12 11 10 9 8 7 7 8 8 7 7 7 7 8 8 8 9 10
15 16 17 18 18 17 18 19 19 18 18 18 18 17 17 15 15 15 15 14 14 13 13 12 12 12 11 11 10 9 8 8 8 7 9 9 9 8 9 10 10 10 10
15 16 17 18 18 18 19 19 18 18 18 18 17 17 17 17 16 15 14 13 12 11 12 11 11 12 12 11 8 8 9 8 8 9 10 10 10 11 11 11 11 11 11
17 18 18 18 18 19 19 18 18 18 18 18 17 17 16 16 15 15 14 11 10 9 9 9 10 10 9 8 8 8 7 7 8 11 12 12 12 12 12 12 13 13 13

GFSMW_con_lsi_012.txt.gz
Lid_Strength_Index
5 5 4 4 3 3 2 1 1 0 0 1 1 1 2 2 3 3 4 4 4 4 4 4 5 5 5 5 4 4 4 4 4 5 4 4 2 1 2 0 0 0 -0
6 5 5 4 4 4 3 2 2 1 0 0 0 2 3 3 3 3 3 4 5 5 6 6 6 5 5 5 5 5 5 5 5 6 6 7 6 4 4 4 4 3 2
6 6 6 5 4 4 4 4 4 3 3 3 3 3 2 2 3 4 5 6 6 7 6 6 6 6 6 6 6 6 7 7 7 6 7 9 9 7 6 5 5 4 3
6 6 5 4 4 4 4 4 5 5 4 3 3 3 4 5 5 6 6 7 7 7 8 8 7 7 7 8 8 8 7 8 9 8 7 7 7 9 10 7 6 5 5
7 7 6 5 5 5 5 5 5 5 5 5 4 4 5 6 6 7 8 8 8 8 9 9 9 9 9 9 9 9 9 8 9 9 8 8 7 7 8 10 9 7 7
7 7 6 5 6 5 5 6 6 6 5 5 5 6 7 8 9 9 9 9 9 9 9 10 10 10 10 10 10 10 9 9 9 9 9 8 9 10 10 11 10 10 8
7 6 6 6 6 6 6 6 6 7 6 7 7 8 9 9 10 10 11 11 10 10 11 10 11 11 11 11 11 11 10 9 10 9 9 8 10 10 11 11 10 10 9
6 6 5 5 5 6 6 6 6 7 8 8 9 10 10 10 11 11 11 11 11 11 11 11 11 12 12 11 11 11 11 10 10 10 10 9 10 10 9 9 9 10 10
6 6 5 5 5 6 6 6 7 8 8 10 10 11 11 11 11 11 11 12 12 12 12 12 12 12 12 12 12 12 11 11 10 11 10 10 10 9 9 8 8 9 11
6 6 5 6 6 6 7 7 7 9 10 10 11 11 11 12 12 12 12 12 12 12 13 12 12 12 12 12 12 12 12 12 11 11 11 10 10 9 9 9 9 8 8
6 6 6 6 7 7 8 9 9 10 11 11 11 11 12 12 12 13 13 13 13 13 13 13 13 13 13 12 13 12 12 12 12 11 11 11 10 10 9 8 8 9 8
6 6 6 7 8 8 9 9 9 10 11 11 12 12 13 13 13 13 13 13 13 13 13 13 13 13 13 13 13 13 12 12 12 11 11 11 10 9 8 8 9 8 8
6 6 6 7 8 9 9 10 10 10 11 12 13 13 13 13 13 13 13 14 14 13 13 13 14 14 13 13 13 12 12 12 11 11 11 10 9 9 8 8 8 7 7
6 7 7 8 8 9 10 10 10 11 12 13 13 14 14 14 14 14 14 14 14 14 14 14 14 13 13 13 12 12 12 11 11 10 9 9 9 9 8 8 8 7 7
7 7 7 7 8 10 10 11 12 12 13 13 14 14 14 14 14 14 14 14 14 14 14 14 13 13 12 13 12 12 12 11 11 9 9 8 8 8 7 7 7 7 7
8 8 7 7 9 10 11 11 12 13 13 14 14 14 15 14 14 14 14 14 14 14 13 13 13 13 13 12 11 11 11 10 10 9 9 8 8 7 6 6 5 6 7
8 7 7 8 10 10 10 11 13 14 14 14 15 15 15 15 15 14 14 14 14 13 13 13 13 13 13 12 11 10 10 9 9 9 9 9 8 7 7 6 6 6 5
8 7 8 9 9 10 11 12 13 14 15 15 15 15 15 15 15 15 14 14 14 13 13 13 13 13 13 12 11 9 9 9 9 8 8 9 8 7 7 7 7 7 7
8 7 8 9 10 11 12 13 14 15 15 15 15 15 15 15 15 15 15 14 14 13 13 13 13 13 13 11 10 9 9 9 9 8 8 7 7 6 6 7 8 8 7
9 10 10 10 11 12 13 14 15 16 15 16 16 15 15 15 15 15 14 14 13 14 13 13 13 12 12 10 9 8 9 9 9 9 8 6 7 6 5 7 8 9 9
11 11 10 11 12 13 14 15 16 16 16 16 15 15 15 15 15 14 14 13 13 13 13 13 13 12 11 10 8 8 9 9 9 8 8 7 6 6 6 7 8 8 8
11 11 12 13 13 14 15 16 16 15 16 15 15 15 15 15 14 14 13 13 13 14 14 13 12 11 10 9 8 8 7 8 9 9 7 7 7 7 8 7 7 8 8
11 12 12 13 14 15 15 16 15 16 16 16 15 15 15 14 14 14 14 14 13 14 14 13 12 11 10 9 8 8 7 7 9 8 7 7 8 8 8 8 8 8 9
12 12 13 13 15 15 15 16 16 16 16 16 15 15 14 14 14 13 13 14 14 13 13 12 11 11 10 10 9 8 8 8 8 7 8 9 9 9 9 9 9 10 10
12 12 13 13 14 15 16 16 16 16 16 15 15 15 14 14 14 13 13 13 12 12 12 11 10 10 11 10 8 8 9 8 8 9 10 11 11 11 11 10 11 11 12
12 13 14 14 16 16 16 16 15 15 15 15 15 14 14 14 14 14 13 11 11 10 9 9 9 9 8 8 8 8 8 7 8 10 12 12 12 12 12 12 13 13 13

GFSMW_con_lsi_015.txt.gz
Lid_Strength_Index
4 4 3 3 2 1 1 1 1 1 1 1 1 1 3 3 3 4 4 4 3 4 4 4 5 5 5 5 5 5 5 5 5 6 6 5 5 4 4 5 5 4 3
5 4 4 4 3 3 1 1 1 1 1 1 1 2 3 4 4 4 4 4 5 5 6 6 6 6 6 6 6 6 7 6 6 8 8 9 8 6 6 6 5 5 4
5 5 4 4 4 4 3 3 2 1 2 3 3 3 3 3 4 4 4 5 6 8 8 8 8 7 7 7 7 7 8 9 7 7 9 11 12 10 7 7 6 7 7
5 5 5 5 4 4 3 2 2 2 3 3 3 4 5 6 5 5 5 6 7 8 9 9 9 9 8 8 8 9 9 8 9 8 9 9 9 11 12 9 8 8 8
5 6 5 5 5 4 3 4 4 4 4 4 5 5 5 5 6 6 7 8 8 8 9 10 9 9 9 9 10 9 10 9 10 10 10 10 9 9 11 13 11 10 9
6 6 5 5 5 5 4 5 5 6 6 6 6 6 6 6 7 8 9 9 9 9 10 10 10 10 10 10 10 10 10 10 10 10 10 11 11 11 12 13 13 12 10
6 6 6 6 6 5 5 6 6 7 6 6 6 7 7 7 9 9 10 10 10 10 11 10 11 11 10 11 10 11 10 10 10 10 11 11 11 10 11 12 12 12 10
5 6 6 6 5 5 5 6 6 7 7 7 8 8 8 9 10 10 10 10 11 11 11 11 11 11 11 11 11 11 11 11 11 11 11 11 10 10 10 11 11 13 13
5 5 5 5 5 5 5 6 7 7 8 8 8 10 10 10 10 10 11 11 11 12 12 12 12 12 12 12 12 12 12 11 11 11 11 11 10 10 10 10 10 12 15
5 5 5 5 5 5 6 6 7 8 8 9 10 10 11 11 11 11 12 12 12 12 12 12 13 13 12 12 12 12 12 12 12 11 11 11 10 10 10 10 10 10 11
6 6 5 5 5 6 6 7 8 8 9 10 10 10 11 11 11 12 12 12 12 13 13 13 13 13 13 13 13 13 12 13 12 11 11 11 10 11 11 10 10 10 9
5 5 5 5 6 7 7 7 8 9 10 10 10 11 11 11 12 12 13 13 13 13 13 13 13 13 13 13 13 13 13 13 12 11 11 11 11 11 10 10 10 9 8
5 5 5 6 6 6 7 8 9 10 10 10 11 11 12 12 12 13 13 13 13 13 13 13 13 13 13 13 13 13 13 12 12 11 11 11 11 11 10 9 9 9 8
5 5 5 6 6 7 8 9 9 10 11 12 12 12 12 13 13 13 13 14 14 14 13 13 13 13 13 13 12 13 12 12 11 11 11 10 10 10 9 9 8 8 9
5 5 5 6 6 8 9 9 10 11 12 12 12 13 13 13 13 14 14 14 14 13 13 13 13 13 12 12 12 12 12 12 11 11 10 10 8 7 7 8 8 9 9
6 5 6 6 7 8 9 10 11 12 12 12 13 13 14 13 14 14 14 14 14 13 13 13 13 12 12 10 10 11 12 11 11 11 10 9 7 7 6 6 6 6 8
6 6 6 6 7 8 9 11 11 12 12 13 14 14 14 14 14 14 14 14 14 13 13 13 12 12 12 11 10 10 11 11 11 10 10 9 8 7 8 7 6 6 5
6 6 6 6 7 8 10 10 12 12 13 14 14 14 14 15 14 14 14 14 13 13 13 13 12 12 12 11 10 10 11 10 10 9 8 8 8 8 8 8 7 7 7
6 6 6 7 9 10 11 12 12 13 14 14 14 15 14 15 15 15 14 14 13 13 13 13 13 13 12 11 10 10 10 10 9 8 8 8 8 7 6 7 9 9 9
7 7 8 9 10 11 11 12 13 14 15 15 15 14 15 15 15 14 14 13 13 13 13 13 12 12 12 10 9 9 10 10 9 8 8 7 7 6 6 8 10 11 10
9 10 10 10 11 11 11 13 14 15 15 14 15 15 14 14 14 14 13 13 13 13 13 13 12 12 11 10 8 8 9 9 9 9 9 8 7 6 7 7 10 10 8
11 10 11 11 11 12 12 14 15 15 15 15 15 15 14 14 13 13 12 12 13 13 13 13 13 11 10 8 8 7 7 7 9 9 9 9 6 7 8 9 8 8 8
11 11 11 12 12 13 13 15 15 15 15 15 15 14 14 13 12 13 13 13 13 14 14 13 12 11 10 9 7 7 7 7 9 9 8 7 8 8 9 9 8 9 11
10 10 12 13 13 14 15 14 15 15 15 15 14 14 13 13 13 12 13 13 14 14 13 12 12 11 10 9 9 9 8 8 9 8 8 8 9 9 10 10 10 12 12
11 11 11 12 13 14 15 15 15 15 15 15 14 13 13 13 13 13 13 13 13 12 12 11 10 11 11 10 8 8 9 9 8 8 10 11 12 12 12 12 13 13 13
11 11 12 13 14 15 15 15 14 14 15 15 14 14 14 13 13 14 14 11 10 9 8 8 9 9 8 8 8 8 8 7 7 10 12 13 13 13 13 14 14 13 13

GFSMW_con_lsi_018.txt.gz
Lid_Strength_Index
6 5 5 4 3 3 3 2 2 2 2 2 3 5 6 6 6 7 7 7 8 6 7 7 7 8 8 9 9 9 10 10 9 10 10 9 8 9 9 8 8 7 7
6 6 5 5 4 4 4 3 3 4 4 4 4 4 5 6 7 7 8 8 9 8 8 9 9 10 10 10 10 11 11 10 10 11 11 13 11 10 9 9 8 9 9
7 6 6 6 6 5 5 5 5 5 5 4 4 4 5 6 8 8 9 8 9 10 10 10 11 11 11 11 11 11 11 12 11 11 12 14 14 13 11 10 10 11 10
7 6 6 6 6 6 5 5 5 5 4 3 4 6 8 9 9 9 9 9 9 10 11 11 12 12 11 12 12 11 12 12 12 11 11 12 13 14 14 12 11 11 11
7 7 6 6 5 6 7 7 7 6 6 6 7 8 9 9 9 9 10 10 10 11 12 12 12 12 12 12 12 13 13 12 13 13 13 13 13 13 14 16 15 13 12
7 7 6 6 7 7 7 8 8 8 8 8 9 9 10 10 10 11 11 11 12 12 12 11 12 12 12 13 13 13 13 13 13 13 13 13 15 15 15 15 15 15 14
7 7 7 7 8 8 8 8 9 9 9 9 10 10 10 11 12 12 13 13 13 13 13 13 13 13 13 13 13 14 14 14 14 14 14 13 13 13 13 14 15 15 14
7 7 7 7 8 8 9 9 9 10 10 10 11 11 11 11 12 13 13 14 14 14 13 13 14 14 14 14 14 14 14 14 15 15 14 14 13 13 13 13 14 16 15
8 8 7 6 7 8 8 9 9 10 10 11 11 12 12 12 13 14 13 13 14 13 14 14 14 14 14 14 15 15 15 15 15 15 15 14 13 13 12 12 12 14 17
8 8 7 7 7 7 8 9 10 10 11 11 12 12 13 14 14 14 14 14 14 14 14 15 15 15 15 15 15 15 15 15 15 14 14 14 13 13 12 12 12 12 13
8 7 7 7 8 8 9 10 11 11 11 11 12 14 14 14 14 14 14 14 14 15 15 15 15 15 15 15 16 16 15 15 15 15 14 13 12 13 12 12 12 12 12
7 7 7 8 9 9 10 10 11 11 11 12 14 14 14 14 15 15 14 15 15 15 15 15 15 15 15 15 16 16 15 16 15 14 13 13 12 13 12 12 12 12 11
7 7 8 8 9 9 10 10 11 12 13 13 14 14 14 15 15 15 15 15 15 16 16 15 16 15 15 15 15 15 15 14 14 13 13 13 13 13 12 12 12 11 10
7 8 8 9 9 9 10 11 12 13 14 14 14 15 15 15 15 15 15 15 15 16 16 15 15 15 15 14 14 14 14 14 13 13 13 13 12 12 11 11 10 9 9
7 8 8 9 9 9 10 11 12 14 14 14 15 15 15 15 15 15 15 15 15 15 15 15 15 14 13 13 13 13 14 14 14 13 12 11 10 8 8 9 9 9 9
7 8 7 8 9 10 11 12 13 14 14 15 15 15 15 15 15 15 16 16 16 16 15 15 14 14 12 10 10 11 13 13 13 13 12 11 9 8 6 6 6 6 8
8 7 7 8 9 10 11 13 14 14 15 15 16 15 15 15 15 16 16 16 17 16 15 15 14 15 15 10 10 10 13 13 13 12 11 11 9 8 9 7 6 6 6
7 7 7 8 10 11 12 13 14 15 15 16 15 15 15 16 16 17 17 17 16 16 15 15 15 15 14 11 10 10 12 12 12 11 10 10 9 8 8 8 9 8 9
7 7 8 9 11 12 14 14 15 16 15 15 15 15 16 17 17 17 17 17 16 16 16 15 15 16 15 11 10 10 12 11 11 10 9 8 9 7 7 8 9 10 10
8 9 10 11 13 14 14 15 16 16 16 16 16 16 16 17 17 17 17 16 15 15 15 15 15 13 15 11 10 9 11 11 10 9 9 7 8 7 6 8 10 11 12
11 11 12 13 14 14 14 16 16 17 16 16 16 16 17 17 17 17 16 16 16 16 16 16 15 15 14 13 9 8 9 9 10 10 10 9 7 6 6 6 10 11 9
12 12 13 14 14 14 15 16 17 17 16 16 17 17 17 16 15 16 16 15 16 17 17 16 15 14 13 10 9 7 7 7 9 10 10 9 6 7 7 8 8 8 9
13 13 14 14 14 14 16 17 17 16 17 17 17 17 17 16 15 16 16 16 17 17 17 16 16 14 12 11 8 7 7 7 9 9 8 6 7 8 9 9 9 10 14
13 13 14 15 17 17 16 17 16 17 17 18 18 17 17 15 16 15 16 16 17 17 16 16 15 14 12 11 10 10 9 8 9 8 8 9 9 9 10 11 12 14 13
12 13 14 15 16 16 16 16 17 17 18 18 18 17 16 16 16 16 16 16 16 15 14 14 13 13 12 11 8 8 9 9 8 8 11 12 13 13 13 14 14 14 13
13 14 15 15 16 16 17 17 17 17 17 18 17 17 17 17 17 17 16 13 12 11 10 9 9 10 8 7 7 7 7 7 7 11 13 13 14 14 14 15 15 14 14

GFSMW_con_lsi_021.txt.gz
Lid_Strength_Index
6 6 5 4 4 4 3 3 3 3 4 6 7 8 9 9 9 9 9 10 10 10 11 10 10 10 10 11 11 11 12 12 12 12 12 11 10 11 11 11 10 9 9
7 6 6 5 5 5 5 5 5 5 5 6 7 8 8 8 8 8 10 11 11 11 11 11 11 11 11 12 13 13 12 12 12 12 13 14 12 12 11 11 11 11 11
7 8 7 6 7 7 7 6 6 6 6 6 7 6 6 7 8 9 10 12 12 12 11 12 12 12 12 13 13 13 13 13 12 12 14 15 16 15 13 12 12 12 12
7 7 7 7 7 8 8 7 7 7 7 6 6 7 8 9 10 10 11 12 12 12 11 12 12 13 13 13 13 12 13 13 14 13 11 14 15 16 17 14 13 13 12
8 7 7 6 6 7 9 9 8 7 8 8 8 9 10 10 11 12 12 12 13 12 12 12 13 13 13 13 13 14 14 14 14 14 14 15 15 15 17 18 17 14 13
8 7 6 7 7 8 9 9 9 10 10 10 10 11 11 12 13 13 13 13 12 13 13 13 14 14 13 14 14 14 14 15 15 15 15 15 16 16 16 17 17 16 15
8 7 7 8 8 9 9 10 10 11 11 12 12 12 13 13 13 13 14 14 14 14 15 14 14 14 14 14 14 15 15 15 16 16 16 15 15 15 15 15 16 17 15
8 8 8 8 9 9 10 11 11 12 12 13 13 13 13 13 13 14 14 14 15 15 14 14 15 15 15 15 15 15 16 16 16 17 16 16 15 14 14 15 16 17 16
8 8 8 8 9 9 10 10 11 12 12 13 13 14 13 14 14 14 15 15 15 13 15 15 15 15 15 15 16 16 16 16 16 16 16 16 14 14 13 13 13 15 18
8 8 7 8 9 9 10 11 11 12 12 13 14 14 14 14 14 15 16 15 15 15 15 15 15 16 16 16 17 17 16 16 16 15 16 15 14 13 13 13 13 13 15
8 8 8 8 9 10 11 12 12 13 13 14 14 14 14 15 15 16 16 15 15 15 15 15 16 16 16 16 17 17 16 16 16 15 14 14 14 14 14 13 13 13 14
8 8 8 9 10 11 12 12 13 13 13 14 14 14 15 16 16 16 16 16 15 15 16 16 16 16 16 16 17 17 16 16 16 15 15 15 13 14 14 14 14 13 12
8 8 9 9 10 11 12 12 13 13 13 14 14 15 16 16 16 17 16 15 16 16 16 16 16 16 15 16 16 15 16 15 15 15 15 15 14 15 14 14 13 12 10
8 8 9 10 10 11 11 12 13 13 14 14 15 16 16 16 16 15 15 16 15 16 16 16 16 15 15 15 14 15 15 15 15 14 14 14 14 14 13 12 11 10 10
8 9 10 10 10 11 12 12 13 14 14 15 16 16 16 16 16 16 15 15 16 16 16 16 16 16 15 13 13 13 14 15 15 14 14 13 12 10 9 10 10 10 10
8 9 9 10 10 11 12 13 14 14 15 16 15 16 16 16 16 15 16 16 16 17 17 17 16 16 14 11 10 11 14 14 15 15 14 13 11 10 7 7 6 6 9
9 9 9 10 10 11 12 14 15 15 15 16 16 16 16 16 15 16 16 17 17 17 17 17 16 16 16 11 10 10 13 14 15 14 13 12 10 9 9 7 6 7 6
8 8 9 10 10 12 13 14 15 15 16 16 16 16 15 16 16 17 17 18 18 17 17 17 16 17 15 11 11 10 13 14 14 13 12 11 10 9 8 9 9 8 8
9 9 9 10 11 13 14 15 16 16 17 17 16 16 16 17 17 18 18 18 17 17 17 16 16 17 17 12 11 11 13 13 13 11 10 9 9 8 7 9 9 9 10
10 12 12 13 14 15 15 16 17 17 17 17 16 16 16 17 18 18 18 17 17 17 16 16 16 15 16 12 11 11 13 13 12 10 9 8 9 7 6 8 9 12 12
12 12 13 14 15 15 15 16 17 18 16 16 16 16 17 18 18 18 17 17 17 17 17 18 17 17 16 15 11 10 12 11 10 10 10 10 7 5 6 7 11 11 9
13 14 15 15 15 16 16 18 18 17 16 17 17 17 18 17 16 17 17 17 17 18 18 18 18 17 16 12 11 10 8 7 10 10 10 9 6 7 8 9 9 8 10
14 14 15 16 17 17 17 17 18 17 17 17 18 18 18 17 17 17 17 17 18 18 18 18 17 16 15 15 11 9 7 7 9 9 7 7 8 9 10 10 10 11 14
15 15 16 17 18 17 17 18 17 17 17 19 19 18 18 16 17 17 16 17 18 18 18 17 16 16 15 14 12 10 10 8 9 8 10 10 10 10 11 13 13 13 13
15 15 16 17 18 18 18 17 17 18 19 19 19 18 17 17 17 17 17 17 17 16 15 15 15 15 14 12 9 9 10 9 8 9 12 13 13 14 14 14 14 14 14
14 15 16 17 18 17 18 18 17 18 19 19 18 18 17 18 18 18 17 14 13 12 12 12 12 12 9 8 8 8 7 8 8 12 14 14 15 15 15 15 15 14 14

GFSMW_con_lsi_024.txt.gz
Lid_Strength_Index
7 6 5 5 4 3 3 3 2 4 7 7 9 10 10 10 10 11 11 11 10 11 12 12 12 12 12 13 12 12 12 12 13 13 13 12 12 13 13 12 12 12 12
8 6 5 4 4 4 4 4 3 5 6 8 9 10 10 10 11 12 12 11 12 12 12 13 13 13 13 13 13 13 13 13 13 14 14 15 13 13 13 13 12 14 13
7 7 6 6 7 6 6 6 6 7 7 9 10 10 11 11 12 12 12 13 13 12 13 13 13 13 13 13 14 14 14 15 14 14 15 17 17 16 14 14 14 13 14
8 7 7 7 7 8 7 7 7 8 8 9 10 10 11 11 11 11 13 14 13 13 13 13 13 13 13 14 14 14 14 15 15 14 13 15 16 18 18 15 14 15 14
7 7 6 6 8 8 9 9 8 8 9 9 9 9 11 11 12 13 14 14 14 13 13 13 14 14 14 15 15 15 15 15 15 15 15 16 16 16 17 19 18 15 14
8 7 7 8 10 10 10 10 10 10 10 8 10 11 12 13 14 14 14 14 14 14 14 13 14 15 15 15 15 15 15 16 16 16 16 16 17 17 18 19 18 18 16
8 8 8 9 10 11 11 11 10 11 10 11 12 13 14 14 15 14 15 15 15 14 15 15 16 16 15 15 15 16 16 16 17 17 17 17 16 16 16 17 17 18 16
8 8 8 9 10 10 11 11 10 12 12 13 14 14 14 14 14 14 15 15 15 15 15 16 16 16 15 15 16 16 16 16 17 18 18 17 16 16 15 16 16 18 17
8 9 9 9 10 11 11 11 11 12 13 14 14 14 14 14 15 15 15 15 15 14 16 16 16 16 16 16 16 16 17 17 17 17 17 17 16 15 14 14 14 16 19
8 9 9 9 10 11 12 12 12 13 14 14 14 14 15 15 15 15 15 16 16 16 16 16 16 16 16 16 16 17 17 17 17 16 17 16 15 14 14 14 14 14 16
9 8 8 9 10 11 12 13 13 14 15 15 15 16 16 15 15 15 16 17 16 17 17 17 16 16 16 16 17 17 17 17 17 16 15 15 15 15 15 14 14 15 15
8 8 9 10 11 12 13 13 14 14 15 15 15 15 15 15 16 16 17 17 17 17 17 16 16 16 16 17 17 17 17 17 16 16 16 15 14 15 14 14 15 15 14
9 9 9 10 11 12 13 13 14 14 15 15 15 15 16 16 17 17 17 16 17 17 17 16 16 16 16 16 16 16 16 16 16 16 15 15 15 15 15 15 15 14 13
8 9 10 10 11 12 13 14 14 14 15 15 15 16 16 17 17 17 16 16 17 17 16 16 16 16 16 16 15 15 15 15 15 14 14 15 15 15 14 14 13 12 12
9 9 10 10 12 13 13 14 15 15 15 15 15 16 16 16 16 16 17 17 17 16 17 17 17 17 16 14 14 14 14 15 15 15 15 14 13 11 11 12 11 11 10
9 9 10 11 12 12 14 14 15 15 15 15 16 16 16 16 16 17 17 17 17 17 17 18 17 17 15 12 11 11 14 15 15 15 14 14 12 12 9 8 7 7 9
9 10 10 10 11 13 14 15 15 15 15 16 16 16 16 17 17 17 17 17 18 18 18 18 17 17 17 11 11 10 13 15 15 15 15 14 12 11 11 8 7 7 6
9 9 10 10 12 13 14 15 15 16 16 16 17 17 17 17 17 17 18 18 18 18 18 17 17 17 16 12 11 11 14 15 15 15 14 14 12 10 9 10 9 8 9
9 9 10 12 13 14 14 15 16 16 17 17 17 17 17 18 17 18 19 19 18 18 18 17 17 18 17 12 11 12 14 14 14 13 13 11 11 9 7 8 10 10 11
10 12 13 14 15 15 15 16 17 18 17 17 17 17 17 17 18 19 18 19 18 18 17 17 17 16 17 14 12 12 14 14 14 12 10 8 9 7 6 9 11 13 12
14 14 14 15 16 16 16 17 18 18 17 17 17 17 18 18 18 19 19 18 18 18 18 18 18 18 17 16 12 11 12 13 12 11 11 10 7 7 8 8 12 12 10
15 14 15 16 17 16 17 18 19 18 17 17 17 18 18 17 17 18 18 17 18 19 19 19 19 17 17 13 12 10 10 9 11 11 10 9 8 9 9 10 9 9 10
15 15 16 17 18 18 18 19 19 17 18 18 19 18 18 18 18 18 17 18 18 19 19 19 18 17 15 16 12 10 9 8 10 10 8 8 9 10 11 11 10 11 14
16 16 17 18 19 19 18 18 18 18 18 19 19 19 19 17 18 18 17 18 19 19 18 17 17 17 16 15 14 12 11 9 9 9 11 11 11 11 12 13 13 14 14
17 17 17 18 19 18 18 18 18 18 19 19 19 19 18 18 18 18 18 18 17 16 16 17 16 16 15 14 10 10 11 10 10 10 13 14 14 15 15 15 14 14 14
16 16 17 18 19 19 19 18 18 19 19 19 19 19 18 18 18 19 19 15 14 13 13 13 13 13 11 10 9 9 8 8 9 13 14 15 16 16 16 15 15 15 15

GFSMW_con_lsi_027.txt.gz
Lid_Strength_Index
8 7 6 6 4 4 4 5 4 7 7 8 9 10 10 11 11 12 11 12 12 11 12 12 13 13 14 14 14 14 14 14 13 14 14 13 13 13 14 13 14 14 13
8 7 6 5 4 4 4 3 4 6 7 8 10 11 11 12 12 12 13 13 12 12 12 13 14 14 14 14 15 14 14 14 13 15 15 16 15 13 13 14 13 15 14
8 8 7 5 5 5 5 4 4 6 8 9 10 12 11 12 12 13 14 14 13 13 13 14 14 14 14 15 15 15 15 15 15 15 16 18 18 17 15 15 14 14 15
8 7 7 6 6 6 6 6 6 7 8 9 11 11 12 13 13 15 15 14 14 14 14 14 14 14 14 15 15 14 15 16 16 15 14 15 16 19 19 16 15 16 15
8 8 6 6 6 7 8 8 8 8 9 10 11 12 13 14 15 14 15 16 15 15 14 14 15 15 15 15 15 16 17 16 16 16 16 17 17 17 18 19 18 16 15
7 7 7 7 8 9 9 9 9 10 11 11 12 12 13 14 14 15 15 16 15 15 15 15 15 15 15 15 16 16 16 16 17 17 18 18 18 18 19 19 19 19 17
8 8 8 8 9 9 10 10 10 11 12 12 12 12 12 13 14 15 16 16 16 16 16 16 16 16 16 16 16 16 16 17 18 18 18 17 17 17 17 18 19 19 17
8 7 7 8 9 10 11 11 11 13 13 12 13 14 14 14 15 15 15 16 16 16 16 16 16 16 16 16 17 17 17 17 17 18 18 17 17 17 17 17 18 19 18
8 7 9 9 10 11 12 12 13 14 13 13 13 15 15 15 15 16 16 16 16 15 16 16 16 17 17 17 17 17 17 18 17 17 18 18 17 16 16 15 15 17 19
8 8 9 10 11 12 13 13 13 13 14 14 14 15 15 15 16 16 16 16 16 16 16 16 17 17 17 17 17 17 17 17 17 17 17 17 16 15 15 15 15 15 16
9 10 10 10 11 12 13 14 14 14 15 14 15 16 16 16 17 17 16 16 16 16 16 17 17 17 17 17 18 17 17 18 18 17 17 16 15 15 15 15 15 15 15
9 9 10 11 12 13 14 14 15 15 15 16 16 16 16 17 17 17 16 16 17 17 17 17 17 17 17 17 17 18 17 18 17 17 16 16 14 15 15 15 15 15 15
10 10 11 12 13 13 14 15 15 16 16 15 16 16 17 17 17 17 16 17 17 17 17 17 17 17 16 17 17 17 17 17 16 16 16 15 15 16 15 15 15 15 14
10 10 11 12 13 14 14 15 16 15 15 16 16 17 17 17 17 16 17 17 17 17 18 18 17 17 17 17 17 17 16 16 15 15 15 15 15 15 15 14 14 13 14
10 10 11 12 13 14 15 15 15 15 16 16 16 17 17 16 16 17 17 17 17 18 18 18 17 17 17 16 15 15 15 15 16 15 15 15 13 11 12 13 13 12 12
10 10 11 12 13 14 14 15 16 16 16 16 16 16 16 16 17 17 18 18 18 18 18 18 18 18 17 13 12 12 14 15 16 16 15 15 13 13 11 10 9 8 10
9 10 11 12 13 14 15 16 16 16 16 16 16 16 16 17 17 18 18 18 19 18 18 18 18 19 19 13 11 11 14 16 16 16 15 15 13 13 13 10 8 8 6
9 10 11 12 13 14 15 16 16 16 16 16 16 16 17 18 17 18 19 19 18 19 18 18 19 19 17 12 11 11 15 16 16 16 15 15 14 13 10 10 9 10 10
9 10 11 12 14 15 15 16 16 16 16 17 17 17 18 18 18 19 19 19 19 19 19 19 19 19 18 13 12 12 15 15 16 15 14 13 12 9 8 9 11 12 12
10 12 13 14 15 16 16 16 17 17 17 17 18 18 18 19 19 19 19 19 19 19 19 18 18 16 18 14 12 12 14 15 15 14 13 10 10 8 7 10 12 13 14
13 13 14 15 16 16 16 17 18 18 18 18 18 18 18 18 19 19 18 19 20 19 19 18 19 18 17 17 12 11 13 14 13 14 12 11 8 7 8 8 12 13 11
15 15 16 17 17 15 16 18 18 18 18 18 18 18 19 18 17 18 19 19 19 19 19 19 19 18 18 13 13 11 11 10 13 12 12 11 8 9 9 11 10 10 11
16 16 16 17 18 18 17 18 19 18 18 19 20 20 18 18 18 18 19 19 19 19 19 19 19 17 16 16 12 11 10 10 10 11 10 9 10 10 12 12 11 11 14
17 16 17 18 19 19 19 19 18 18 19 20 19 19 19 19 19 19 18 18 19 19 19 18 18 17 16 16 15 13 13 10 11 10 12 11 11 12 13 14 14 14 14
17 17 18 18 19 19 19 18 18 19 19 19 19 19 19 19 19 19 19 18 18 17 17 17 17 17 17 15 12 11 11 11 10 10 13 14 15 16 15 15 15 15 14
17 17 18 18 19 19 19 19 19 19 19 19 19 19 19 19 19 19 19 15 14 13 13 13 14 14 12 11 11 9 9 9 10 13 15 16 16 17 16 16 15 15 14

GFSMW_con_lsi_030.txt.gz
Lid_Strength_Index
6 7 7 7 6 5 5 4 4 6 6 8 9 10 11 11 11 12 11 12 12 13 12 13 13 14 14 15 15 15 15 15 14 15 14 13 13 13 14 14 14 14 14
8 8 7 7 5 5 4 4 5 6 6 7 11 11 12 12 12 13 13 13 13 13 13 14 14 14 15 15 15 16 16 15 15 16 15 17 16 15 14 15 14 16 15
7 8 8 6 5 5 4 4 5 8 9 10 12 13 13 13 13 13 13 14 14 14 14 15 15 15 15 15 16 16 16 16 15 14 16 19 19 17 15 15 15 16 16
8 7 8 6 6 5 5 5 6 7 9 10 11 12 12 13 13 14 14 14 15 15 15 15 15 16 15 16 15 15 16 16 16 16 15 16 17 19 20 17 15 16 16
7 7 7 6 6 5 6 7 7 7 9 9 10 12 13 13 14 15 15 16 16 15 15 15 16 16 15 16 16 16 16 16 17 17 17 18 17 18 19 19 19 16 16
8 7 7 6 7 7 8 8 7 9 9 10 11 12 14 14 15 15 17 16 16 16 16 16 16 16 16 16 16 16 17 17 18 18 18 18 19 19 19 20 19 19 18
9 8 7 7 7 7 8 8 8 10 10 10 11 12 14 14 16 16 15 16 17 17 17 16 16 16 16 16 16 17 17 17 18 18 18 18 18 18 18 19 19 20 18
9 7 6 6 7 7 8 8 10 12 12 13 14 15 15 14 14 15 16 16 17 17 17 16 17 16 16 16 17 17 17 17 18 18 19 18 17 17 18 18 19 20 19
9 7 6 6 7 8 8 9 12 13 14 15 15 15 14 14 15 16 16 16 16 16 17 17 16 16 16 16 17 18 18 18 18 18 18 18 17 17 17 17 17 18 20
8 7 7 8 8 10 11 12 12 14 15 15 14 15 15 15 16 16 16 17 17 17 17 16 16 17 17 17 17 18 18 18 18 17 18 18 18 17 16 16 16 16 17
8 8 9 10 11 12 12 14 14 15 16 16 16 16 16 16 16 17 17 17 17 17 16 16 17 17 17 17 18 18 18 18 18 18 18 18 17 16 16 16 15 16 16
9 9 11 12 12 13 14 14 15 16 17 16 16 16 16 17 17 17 17 17 17 17 17 17 17 17 17 18 19 18 18 18 18 18 18 17 15 16 15 15 16 16 15
11 12 12 12 13 14 14 15 16 17 16 16 16 17 17 17 18 17 17 17 17 17 17 17 17 18 18 18 18 17 18 18 18 17 17 16 16 16 16 16 16 15 14
11 12 12 13 14 14 15 16 16 16 16 16 17 17 18 18 18 17 17 17 17 17 18 18 18 18 18 17 17 17 17 17 17 16 16 16 16 16 15 15 15 14 15
11 11 13 14 14 15 16 16 16 16 16 17 17 17 17 17 17 17 17 17 17 17 18 18 18 18 17 16 16 16 16 17 16 16 16 15 14 11 12 13 14 14 14
10 12 12 13 14 15 16 16 16 17 16 16 17 17 17 17 17 17 17 17 18 18 18 19 18 18 17 14 12 13 15 15 16 16 15 15 13 14 11 11 10 10 11
10 11 13 13 14 15 16 16 16 16 17 17 17 17 17 17 17 17 18 18 18 19 19 19 19 20 19 14 12 11 14 15 16 16 15 15 14 13 14 12 9 8 8
10 11 12 13 14 15 15 16 16 16 17 17 17 17 17 17 18 18 19 19 19 19 19 20 19 20 18 13 12 11 15 16 16 16 16 16 15 14 12 12 10 11 11
9 10 12 13 15 15 16 16 17 17 17 17 17 17 17 18 19 19 19 20 19 20 20 19 20 20 19 13 12 12 16 16 16 15 15 15 13 11 9 10 12 12 12
11 12 14 15 16 16 16 16 17 17 18 18 17 18 18 19 19 20 19 20 20 19 19 19 19 17 18 14 12 12 15 17 15 15 14 12 11 9 8 11 12 14 14
13 14 14 15 16 16 16 17 18 18 17 17 18 18 19 19 19 20 20 20 20 20 20 19 19 18 18 17 12 12 14 15 14 14 14 13 9 8 8 9 13 13 11
15 15 16 17 16 16 16 17 18 18 18 18 19 20 19 18 18 19 19 19 20 21 20 19 19 17 18 14 13 12 11 11 14 13 12 11 9 9 9 11 11 10 11
16 16 17 18 18 17 16 18 20 19 19 20 20 19 19 19 19 19 19 20 20 20 20 19 19 18 16 17 13 12 11 11 12 12 10 9 9 10 12 12 11 12 15
17 16 17 18 19 19 19 19 19 18 19 20 20 19 19 20 20 19 18 19 20 20 19 18 18 18 17 17 16 15 14 11 11 10 12 11 11 12 13 14 14 15 15
17 17 18 19 20 19 19 18 18 19 20 20 19 20 19 20 20 19 19 19 18 18 18 17 17 17 17 16 13 12 12 11 10 11 13 15 15 16 16 16 15 14 14
18 18 18 18 19 18 19 19 19 19 19 20 19 19 20 20 20 20 19 15 14 14 13 13 14 15 13 12 11 11 9 9 10 13 15 16 17 17 16 16 15 15 14

GFSMW_con_lsi_033.txt.gz
Lid_Strength_Index
5 4 4 4 5 4 3 2 1 1 2 4 5 6 8 8 10 10 11 11 11 12 11 11 11 11 12 12 11 11 12 12 12 11 11 10 10 9 8 10 10 11 11
5 4 5 5 4 4 3 2 1 2 2 3 5 7 8 10 10 11 12 12 12 13 12 12 12 12 12 12 12 12 12 13 12 13 12 13 11 10 10 10 11 11 11
6 5 5 5 4 4 3 2 3 3 4 7 9 11 11 11 11 13 13 13 13 13 12 12 12 12 12 13 13 13 13 13 12 12 13 14 14 14 12 11 11 12 12
7 6 5 5 5 3 3 3 3 5 6 7 8 9 9 10 11 13 14 14 13 13 12 13 13 13 13 13 13 13 13 12 14 13 13 12 13 15 16 13 12 12 13
7 6 5 4 3 3 3 3 4 6 7 7 8 8 9 11 14 14 15 15 14 12 13 13 13 13 13 13 13 13 13 13 13 13 13 14 14 14 15 16 15 14 13
7 6 5 5 4 3 4 4 5 6 7 7 9 10 12 15 15 14 15 14 13 13 13 13 13 13 13 13 13 13 14 14 14 13 14 14 15 15 16 17 16 16 15
8 7 6 5 4 4 5 5 6 7 7 8 10 11 13 14 14 15 15 15 14 14 14 13 14 13 13 13 13 13 13 14 13 14 14 14 14 15 15 16 16 17 15
7 7 6 5 4 4 5 6 7 8 8 8 11 12 13 14 14 14 14 14 13 14 14 14 13 13 13 14 13 13 13 13 13 14 14 15 14 14 14 15 16 17 16
9 7 6 5 4 5 6 6 7 8 9 10 12 13 14 14 15 14 14 13 14 14 14 13 14 14 14 14 14 14 14 14 14 14 15 15 14 14 14 14 14 16 18
9 7 6 5 4 5 6 7 9 10 11 12 13 14 15 14 15 14 14 13 14 14 14 14 14 14 14 14 14 14 14 14 14 14 14 14 14 14 14 14 14 13 15
9 7 6 6 6 7 8 10 12 13 13 14 15 15 15 14 14 15 14 14 14 14 14 14 14 14 14 14 14 15 15 15 15 14 15 15 14 14 14 13 13 13 13
8 7 8 9 9 9 11 12 12 14 15 15 15 15 15 15 15 15 14 14 15 14 14 15 15 14 15 15 15 16 15 15 15 15 15 15 14 14 13 13 13 13 13
9 10 10 10 11 11 12 12 14 15 16 15 15 16 16 16 16 15 15 15 15 15 15 15 15 15 15 16 16 15 14 14 15 15 15 14 14 14 14 13 13 13 13
10 10 11 12 12 12 13 14 15 15 16 16 16 16 16 16 15 15 15 15 15 15 15 15 15 16 16 16 15 14 14 14 14 14 14 14 14 14 13 13 13 12 13
11 11 13 13 13 14 15 15 15 16 16 16 16 16 16 15 15 15 15 16 15 15 15 16 16 16 16 15 14 13 13 14 14 14 13 13 12 11 11 12 12 12 13
11 13 13 14 14 15 15 15 16 15 15 16 16 16 15 16 16 16 16 16 16 15 16 17 17 17 16 14 13 12 13 13 14 14 13 13 13 12 11 11 11 11 12
11 12 13 14 14 15 15 15 15 15 15 16 16 16 16 16 16 16 16 16 16 16 17 17 17 17 17 14 12 12 13 13 13 13 13 13 13 12 13 12 10 9 7
11 12 13 14 14 14 15 15 15 15 16 16 16 16 16 17 17 16 16 17 17 17 17 17 17 17 16 14 13 12 13 13 13 13 13 13 13 12 12 12 11 9 10
11 12 13 14 15 15 15 15 15 16 16 17 16 16 16 17 17 17 17 17 17 17 17 17 17 17 16 14 13 12 13 13 13 13 13 13 13 11 10 10 10 11 10
11 13 13 14 15 15 15 16 16 16 17 16 17 16 17 17 17 17 17 18 17 17 17 17 17 16 16 14 12 12 13 14 13 13 13 12 12 10 8 10 11 12 12
13 13 14 15 16 15 15 16 16 17 17 17 17 17 17 18 17 18 17 18 17 18 18 17 17 16 16 15 13 12 13 13 13 14 13 12 11 9 8 9 11 12 10
15 15 16 16 15 15 15 16 18 18 17 17 18 18 17 17 17 17 17 18 18 18 18 17 16 15 15 14 13 12 12 12 13 13 12 11 9 9 9 10 10 10 10
16 15 16 17 16 16 16 18 18 17 18 18 19 18 17 17 17 17 18 17 18 18 17 17 17 16 15 15 13 12 12 12 12 12 10 9 10 10 11 11 11 11 13
16 16 17 17 18 17 17 18 18 18 18 18 17 18 18 18 18 18 17 17 17 17 17 17 16 16 16 15 14 14 13 12 12 11 10 11 11 11 12 13 13 13 13
16 16 17 18 19 18 19 18 17 17 18 18 18 18 18 18 18 18 17 17 16 16 16 15 16 16 16 15 13 13 13 12 11 11 12 13 14 15 15 14 14 14 13
17 18 18 19 18 18 18 18 17 17 18 18 18 18 18 18 18 18 18 16 15 14 14 14 14 14 13 13 12 12 11 10 10 12 14 15 16 15 15 15 15 14 13

GFSMW_con_lsi_036.txt.gz
Lid_Strength_Index
3 2 2 1 1 1 1 1 1 0 0 1 1 1 2 2 3 4 5 8 8 9 9 9 8 8 9 9 9 10 10 10 10 10 9 9 8 8 7 8 8 8 9
5 4 2 2 1 2 1 1 1 1 1 1 1 1 2 5 6 8 8 8 9 11 10 9 9 9 10 10 10 10 10 10 10 11 10 11 10 8 8 9 8 9 9
6 5 4 2 2 2 1 1 1 1 1 0 0 2 6 9 10 11 10 10 11 12 11 10 9 9 10 10 10 10 11 11 11 11 11 11 11 12 9 9 10 10 10
6 5 5 4 2 2 1 1 1 1 1 0 2 3 4 8 8 9 10 12 12 12 12 10 10 10 10 10 11 11 11 10 11 10 11 11 12 13 13 10 10 10 11
6 6 5 4 3 1 1 1 1 1 1 1 1 2 4 6 9 10 12 13 13 12 10 10 10 10 10 11 11 11 11 11 11 11 11 11 11 12 13 14 12 11 11
6 5 5 4 3 1 1 1 1 1 1 1 1 2 5 9 11 12 14 14 13 11 10 10 10 10 10 11 11 11 11 11 11 11 12 12 13 13 13 14 13 14 12
7 6 5 4 3 2 2 2 2 2 2 1 2 4 7 9 10 12 14 13 13 11 10 10 10 10 10 11 10 11 11 11 11 12 12 12 12 12 13 14 14 14 13
6 6 4 4 3 2 2 2 2 3 2 2 4 6 9 11 13 13 14 12 12 11 10 11 10 11 11 11 11 11 11 11 11 12 12 12 12 12 13 13 14 15 14
6 6 5 4 3 3 2 2 2 3 3 3 6 10 11 13 13 14 13 12 11 11 10 10 10 11 11 11 11 11 11 12 12 12 12 12 13 12 12 12 13 14 17
6 5 5 4 3 2 2 2 2 4 4 5 7 10 12 13 14 13 14 12 11 11 11 11 11 11 11 12 12 12 12 12 12 12 13 13 12 12 12 12 12 13 14
5 5 5 4 3 2 2 3 4 5 6 7 8 11 13 14 13 13 13 11 12 12 12 11 11 12 12 12 12 12 12 13 13 13 13 13 12 13 13 12 12 13 12
5 5 5 4 3 3 3 5 6 7 8 9 11 12 14 13 12 13 12 12 12 12 11 12 12 12 13 13 13 13 13 13 13 13 13 13 13 13 13 13 12 13 12
5 6 6 5 5 5 5 6 7 10 11 11 13 14 14 13 12 12 12 12 13 12 12 12 13 13 13 13 13 13 13 13 13 13 13 13 13 13 13 12 12 12 12
6 6 6 6 6 5 6 8 11 13 13 14 14 15 13 12 13 13 13 13 12 12 12 13 13 13 13 13 14 13 13 12 12 12 13 13 13 13 12 12 12 12 12
7 7 7 7 7 9 11 13 14 14 14 15 15 14 13 13 13 14 13 13 12 13 13 13 14 14 13 14 13 12 12 12 12 12 12 12 12 12 11 12 12 12 12
7 8 8 8 11 12 13 14 15 15 15 15 15 14 13 14 14 14 13 13 13 14 14 14 14 14 15 15 13 12 12 12 13 13 12 12 12 12 11 11 11 11 12
9 9 9 11 12 13 14 15 15 14 14 15 14 14 14 15 14 13 13 14 14 13 14 14 15 15 14 14 13 12 12 12 12 12 13 12 12 11 12 11 11 10 9
9 9 11 13 13 13 14 15 14 14 14 14 14 14 14 14 14 14 14 14 14 14 14 15 15 15 14 14 13 12 12 12 12 12 12 12 12 12 12 12 11 10 10
9 10 12 13 13 13 13 13 13 13 14 14 14 14 14 15 15 14 14 14 14 15 15 15 15 14 14 14 13 12 12 13 12 12 12 12 12 11 10 11 11 11 10
10 11 12 12 12 12 12 13 13 13 14 14 15 14 14 14 14 14 14 15 15 15 14 14 14 15 14 14 13 13 13 13 13 12 12 11 11 11 10 11 11 11 10
11 12 12 12 13 13 13 14 14 15 15 15 15 15 14 15 14 15 15 15 14 14 14 15 14 14 14 14 13 12 13 13 13 13 13 12 11 10 9 9 10 10 9
12 13 14 15 14 13 14 14 15 15 15 15 16 16 15 15 15 14 14 14 14 15 15 15 14 14 14 14 13 12 12 12 13 13 12 11 10 9 9 10 10 10 10
14 13 13 14 13 13 14 16 16 16 16 16 16 15 15 14 14 14 14 14 15 15 15 15 15 15 14 13 13 12 12 11 12 12 11 10 9 10 11 11 11 11 11
14 13 14 14 15 15 16 16 16 16 16 15 15 14 15 15 15 14 15 15 15 15 15 15 15 15 14 14 13 13 12 12 12 11 10 10 10 11 12 12 12 12 12
14 14 15 15 16 16 16 16 16 14 14 14 14 15 15 15 15 15 15 15 14 15 15 15 15 15 15 14 13 12 13 12 12 11 11 12 13 13 13 13 12 12 12
15 15 16 16 16 15 15 15 14 14 14 15 15 15 15 15 15 15 15 15 15 15 14 14 14 14 13 13 13 12 12 11 11 12 14 14 14 14 14 14 13 13 12

GFSMW_con_lsi_039.txt.gz
Lid_Strength_Index
3 2 2 1 1 1 1 1 1 1 0 1 1 1 2 1 1 0 -0 1 3 5 6 6 6 6 7 8 8 9 9 10 10 9 8 8 9 8 8 8 8 8 9
5 4 3 2 2 1 1 1 1 1 1 1 1 1 2 3 3 3 2 4 5 7 8 8 8 8 8 9 9 9 9 10 10 11 10 10 10 9 8 8 9 9 9
6 5 4 3 2 2 1 1 1 1 1 0 1 1 5 7 8 7 6 7 8 9 9 8 9 8 8 9 9 9 9 10 10 11 12 11 11 12 9 9 9 10 9
5 5 5 4 3 2 1 1 1 1 1 0 1 2 3 6 7 8 8 9 9 9 9 9 10 9 9 9 10 10 10 10 11 10 11 11 12 13 14 10 10 9 11
5 5 4 4 3 2 1 1 1 1 1 1 1 2 3 2 6 9 10 11 11 10 10 10 9 9 8 9 9 10 10 10 11 11 11 11 11 12 13 14 12 11 10
5 5 4 4 3 2 1 1 1 1 1 1 1 1 2 4 8 11 11 12 10 10 10 10 9 9 9 9 9 9 10 10 11 11 12 12 13 13 13 14 13 13 12
6 6 5 4 4 3 2 2 2 2 1 1 1 1 1 5 8 11 11 12 12 11 11 10 10 9 9 9 9 10 10 10 11 11 12 12 12 12 13 14 14 14 13
5 4 5 4 3 3 2 2 2 2 2 1 1 1 3 4 7 10 11 12 12 12 11 10 9 9 10 10 10 10 10 10 11 11 11 12 12 12 12 13 14 16 15
5 4 3 4 4 3 2 2 2 2 2 2 1 2 4 6 8 10 11 12 12 12 10 10 10 10 10 10 10 10 11 11 11 11 11 12 12 11 12 12 13 15 17
5 4 3 3 4 3 2 2 2 2 2 1 2 4 6 10 12 12 13 13 13 11 11 11 11 11 11 11 11 11 11 12 12 12 12 12 12 12 12 12 12 13 14
4 4 3 3 4 3 2 2 2 2 2 3 6 7 9 11 13 13 13 13 12 12 11 11 12 12 12 11 11 12 12 12 12 12 12 12 13 13 13 12 13 13 13
4 4 4 3 3 3 3 2 2 2 3 6 8 10 11 12 13 13 13 12 12 12 12 12 12 13 12 12 13 13 13 13 12 12 13 13 13 13 13 13 13 13 13
4 4 4 4 3 3 3 3 3 4 6 7 10 11 12 12 13 13 12 12 12 12 12 12 13 13 12 13 13 13 13 12 12 13 13 13 13 13 13 13 13 13 12
5 5 4 4 4 3 3 4 5 7 8 9 11 12 13 13 13 12 12 12 12 13 13 12 13 13 13 13 14 13 12 12 12 12 12 12 13 13 13 13 13 12 13
5 5 5 5 4 5 5 7 8 8 10 11 12 13 13 13 13 13 12 13 13 13 13 13 13 13 14 14 13 13 13 13 13 12 12 12 12 11 12 12 12 12 13
6 5 6 5 6 7 9 10 11 13 13 13 13 13 14 14 13 13 13 13 13 14 14 13 13 14 14 14 13 13 13 13 13 13 13 12 12 12 11 10 10 11 13
6 7 7 7 9 11 12 13 14 14 14 15 14 14 14 14 13 13 13 13 14 13 13 14 14 14 14 15 13 13 13 13 13 13 13 13 12 11 12 11 11 10 10
8 8 9 10 12 13 13 14 14 14 15 15 15 15 15 14 14 14 14 14 13 14 14 14 14 14 14 15 13 13 13 13 13 12 12 12 12 12 12 12 12 12 11
8 9 10 13 14 14 14 14 14 15 15 15 15 14 14 14 14 15 14 14 14 14 14 15 15 15 14 14 14 13 13 13 13 12 12 12 12 11 10 12 12 12 11
11 13 13 13 13 13 13 14 14 14 14 14 14 14 14 14 14 14 15 14 14 15 15 15 14 14 15 13 13 13 14 14 13 13 12 11 11 10 10 12 12 13 12
13 12 12 13 13 13 13 13 14 14 14 13 14 14 14 14 15 14 14 14 15 14 14 14 14 14 14 14 13 13 13 13 13 13 13 12 11 10 10 10 11 12 11
11 11 12 12 12 12 13 14 15 15 15 15 15 15 15 14 14 14 14 14 14 14 14 15 14 14 13 13 13 12 12 12 13 13 13 12 10 10 10 10 10 10 10
14 13 14 14 13 13 14 16 15 15 15 16 15 15 15 15 13 13 14 14 14 15 15 15 15 15 14 13 12 12 11 11 12 12 11 10 11 10 11 11 10 10 12
13 13 13 14 15 15 16 16 16 15 15 15 15 14 14 14 14 14 14 15 15 15 15 15 15 15 14 14 13 13 13 12 12 12 12 11 11 11 11 12 12 12 12
12 12 14 15 16 16 16 16 15 14 14 14 14 14 14 14 15 15 15 15 14 15 16 15 15 16 16 15 13 13 13 13 12 12 13 13 13 13 13 13 13 12 12
14 14 15 16 16 15 15 14 13 13 14 14 14 14 14 15 15 15 15 14 15 15 14 14 14 14 13 13 13 12 12 12 11 13 14 14 14 14 14 14 13 13 12

GFSMW_con_lsi_042.txt.gz
Lid_Strength_Index
5 4 4 4 4 4 4 2 3 3 2 3 3 2 2 1 1 1 1 1 4 4 6 7 8 8 9 10 10 11 12 13 13 12 12 12 12 11 11 11 11 12 12
6 5 5 4 4 3 4 4 3 3 2 2 2 2 3 4 3 2 2 4 5 6 8 8 9 10 11 11 12 11 12 13 13 14 14 14 13 12 11 11 12 13 12
7 6 6 5 4 3 3 3 3 3 2 2 2 4 7 8 9 8 7 7 8 8 9 9 10 10 10 11 12 12 12 13 14 14 15 16 15 15 13 13 12 13 13
7 7 6 7 6 4 3 3 2 3 2 1 2 4 5 6 9 8 8 9 8 8 10 9 9 10 10 11 12 11 13 13 14 13 12 14 15 16 17 14 13 13 13
8 8 7 7 6 6 5 3 2 3 2 1 2 4 6 8 8 10 11 10 9 9 10 10 11 11 11 12 12 13 13 13 13 13 14 14 14 15 16 17 15 14 14
9 8 8 7 6 6 5 3 3 3 2 2 3 5 7 9 10 11 12 11 10 10 10 10 11 12 12 12 12 13 13 13 13 13 14 15 15 16 16 17 17 17 15
9 8 8 7 6 6 5 5 3 3 3 3 4 5 5 9 9 10 11 11 11 11 11 11 11 12 12 12 12 12 12 13 14 14 14 14 14 14 15 16 17 17 16
8 8 8 7 6 5 5 5 3 3 3 3 4 4 8 9 9 9 10 11 11 12 11 11 12 13 12 12 12 12 13 13 13 14 14 14 14 14 15 16 17 18 18
9 9 8 6 6 5 4 4 3 3 3 4 4 6 7 8 9 10 10 11 12 12 12 12 13 13 13 13 13 14 14 14 14 14 14 14 14 14 14 14 15 17 19
9 8 7 6 5 4 4 3 3 3 4 3 4 6 7 9 9 10 12 12 12 12 13 13 12 13 13 13 14 14 15 15 14 14 15 15 15 15 14 15 15 16 17
8 7 6 5 5 4 4 3 3 3 3 4 5 10 12 11 10 11 12 13 13 13 13 12 12 13 14 14 14 14 15 15 14 14 14 15 14 15 15 16 16 16 16
7 7 5 5 4 5 4 4 3 3 6 7 10 11 12 12 12 13 13 13 13 11 12 13 13 13 14 14 15 15 15 15 15 15 15 14 13 16 16 16 16 16 16
6 6 5 5 5 4 4 3 3 7 8 10 12 12 12 12 12 13 13 12 12 12 13 13 13 15 14 15 15 15 15 14 15 14 14 15 15 16 16 16 16 16 14
6 5 6 5 5 4 4 5 7 8 10 11 12 12 12 13 13 13 12 13 13 14 14 14 14 15 15 15 15 14 14 14 14 14 14 15 15 15 16 15 15 14 15
5 5 6 6 4 4 6 7 9 10 11 12 12 12 13 13 13 13 13 13 14 14 14 15 15 14 15 14 14 14 14 15 15 15 14 14 13 11 12 13 15 15 14
6 6 6 5 5 7 9 9 10 11 11 12 13 13 13 13 14 14 14 14 14 15 15 15 14 14 15 13 13 13 15 15 16 15 15 15 12 13 11 10 10 11 13
6 7 6 8 10 11 10 12 13 12 13 13 13 13 13 14 14 14 14 15 16 15 16 16 15 15 15 14 14 13 15 15 15 16 15 15 13 12 14 12 10 11 10
6 6 9 11 12 11 13 12 12 13 14 14 14 14 14 14 14 14 15 16 15 15 16 16 16 16 15 14 14 13 15 16 16 15 15 15 15 14 12 13 15 14 13
9 11 12 12 13 13 13 13 13 14 14 15 15 14 15 15 14 15 16 16 16 17 16 16 16 16 17 14 13 14 16 16 16 15 14 14 14 11 10 12 15 14 13
13 13 13 13 13 13 13 14 14 14 14 14 14 13 13 15 16 16 17 17 16 16 16 16 17 15 17 13 13 13 15 17 16 15 14 11 12 10 10 12 13 14 14
12 12 12 13 13 12 12 13 13 15 14 14 15 15 15 16 16 16 16 16 16 16 17 17 16 16 16 16 13 12 15 15 15 15 15 15 11 11 10 10 12 12 11
12 11 12 12 12 12 13 15 16 15 15 16 16 16 16 15 15 16 17 17 17 17 17 17 17 17 16 13 13 12 12 12 14 15 15 14 11 10 10 10 9 9 9
14 13 14 14 14 15 15 17 17 16 16 16 16 16 16 15 16 16 16 17 17 17 18 18 18 18 17 17 12 12 12 12 13 14 12 11 11 11 11 10 10 10 13
14 14 15 16 16 16 16 16 16 15 16 17 17 17 17 16 16 16 16 17 18 18 19 18 19 18 17 17 16 15 15 13 13 12 14 12 12 11 11 12 13 13 13
14 15 16 17 17 17 16 15 15 15 16 16 16 16 16 16 17 17 18 18 17 17 18 18 17 18 18 16 13 13 14 14 12 13 15 15 15 15 14 14 14 13 13
16 16 17 17 16 15 15 14 14 15 16 17 17 17 18 18 18 18 17 14 15 14 14 14 15 16 14 13 13 12 12 12 12 15 16 16 15 15 15 15 14 14 13

GFSMW_con_lsi_045.txt.gz
Lid_Strength_Index
6 6 6 5 6 5 5 4 4 3 1 2 2 2 3 2 1 1 1 1 3 4 6 7 8 9 10 10 11 12 13 12 13 12 13 12 12 12 12 12 13 12 12
8 7 6 6 6 5 5 5 4 3 3 3 2 2 3 4 3 1 1 2 4 6 7 8 9 10 11 11 11 12 12 13 14 14 13 15 14 13 13 12 12 13 13
8 7 7 7 7 6 5 4 4 3 5 6 4 6 6 6 6 4 4 6 7 7 8 10 10 11 12 12 12 12 12 14 13 14 14 15 15 16 13 13 13 14 14
9 8 8 8 8 7 5 4 4 4 3 3 2 3 4 4 7 7 9 9 8 8 8 9 9 11 11 12 12 12 12 12 14 13 13 15 15 16 17 14 14 14 14
8 8 8 7 7 7 7 5 4 3 3 2 1 2 3 7 9 9 10 9 9 9 9 9 9 11 11 13 13 13 13 12 13 13 14 15 15 15 16 17 15 14 14
9 9 8 8 8 8 8 6 5 4 3 2 2 2 6 8 10 10 10 10 10 10 10 10 9 10 11 11 12 14 14 14 14 14 14 15 16 16 17 17 17 17 16
10 10 10 8 8 8 8 7 6 4 3 2 2 4 6 7 9 10 9 11 11 11 11 11 11 11 11 11 12 13 14 14 14 14 15 15 15 16 16 17 17 18 17
10 9 9 8 7 6 6 6 6 4 2 2 3 5 7 8 9 9 9 10 11 11 10 11 11 12 11 11 13 13 13 14 14 15 15 15 15 15 15 16 17 19 18
11 11 9 8 7 6 6 6 6 3 3 3 5 8 9 9 10 10 10 10 10 10 11 11 11 12 12 12 13 13 15 14 14 15 15 15 15 15 15 15 16 18 20
10 8 7 6 6 6 6 6 6 3 4 5 7 9 9 10 10 11 11 12 11 10 11 12 12 12 12 13 13 14 15 15 15 14 15 15 15 15 15 16 16 16 18
9 9 7 6 6 5 5 5 5 3 4 6 7 9 10 10 11 11 11 10 11 12 12 13 13 13 14 14 14 15 14 15 15 15 15 15 15 15 16 16 16 17 18
9 7 7 6 5 5 5 5 3 5 7 9 10 11 12 12 12 11 11 11 12 12 12 13 13 14 13 14 14 15 15 16 15 15 15 15 14 16 16 17 17 17 17
8 8 6 6 5 5 5 5 7 9 9 10 11 11 12 12 12 13 12 12 12 13 13 13 13 13 13 15 15 15 16 15 15 15 15 15 16 16 17 17 17 17 15
6 6 6 5 5 5 7 9 10 10 11 11 12 12 12 12 13 12 12 12 12 13 13 14 14 14 15 15 14 15 15 15 14 14 15 15 16 16 16 16 16 15 16
6 6 6 5 5 6 9 10 10 10 10 11 11 12 12 11 12 13 13 13 13 14 14 14 14 15 15 15 15 15 15 15 15 15 15 15 14 12 12 14 15 16 16
6 6 6 7 9 8 9 10 11 11 11 11 12 12 12 13 13 14 14 14 14 15 14 15 15 16 14 13 13 13 15 16 16 16 16 15 13 13 11 11 11 11 14
6 7 10 11 11 10 11 11 12 12 12 12 12 13 13 14 14 14 14 15 15 14 15 15 15 16 15 13 13 13 15 16 17 16 16 16 14 13 15 12 10 11 10
7 9 10 11 11 11 12 12 12 12 13 13 13 14 14 14 14 14 14 15 15 15 15 16 16 16 15 13 14 13 16 16 16 16 16 16 16 15 13 14 15 14 14
13 13 13 12 12 12 12 12 13 13 13 14 14 15 14 14 14 15 15 14 15 16 17 16 17 18 16 14 14 14 16 17 17 15 15 14 15 12 10 13 15 15 14
13 13 13 13 12 12 13 13 13 13 14 14 15 14 14 14 15 15 15 16 16 16 16 16 17 15 18 14 13 14 16 17 16 16 15 12 12 11 10 12 14 15 15
12 12 12 12 12 12 12 13 14 14 14 14 13 13 13 14 15 16 16 16 16 17 18 18 18 17 16 16 13 12 15 15 15 15 15 15 11 11 10 11 14 14 11
12 12 13 14 14 13 13 14 15 14 14 14 14 15 15 15 15 16 17 17 18 18 18 18 18 18 17 13 13 12 12 12 15 15 15 15 11 11 11 12 11 9 10
13 13 15 15 14 14 13 14 15 15 15 16 16 16 16 16 17 18 18 18 17 18 19 19 19 19 17 17 13 12 12 12 14 14 13 12 12 13 14 11 10 10 14
14 14 15 15 16 16 16 16 16 15 16 16 16 17 18 17 17 17 17 18 19 20 20 19 19 19 18 17 16 15 16 13 14 13 15 14 14 13 12 13 13 14 14
15 15 16 17 17 16 16 15 15 15 16 17 17 17 17 18 19 19 19 19 18 18 19 18 18 18 18 16 13 13 14 14 13 14 17 17 16 15 15 14 14 14 14
16 16 17 16 16 15 15 15 15 15 17 18 18 18 19 19 20 20 19 14 14 14 14 14 15 16 14 13 13 12 12 13 13 17 17 17 16 16 15 15 15 15 14

GFSMW_con_lsi_048.txt.gz
Lid_Strength_Index
6 7 7 7 7 6 6 6 2 2 1 1 2 2 3 3 2 3 2 3 4 4 4 5 7 9 10 11 12 12 13 13 13 13 13 12 13 13 12 12 13 13 13
8 8 7 7 6 6 6 6 4 1 1 1 1 1 2 3 2 2 2 2 4 4 4 6 8 10 11 12 12 12 13 14 14 14 13 14 13 12 12 13 12 13 13
8 7 8 8 7 7 6 5 5 3 1 1 3 6 5 5 5 4 3 3 4 4 5 7 9 11 10 12 12 13 13 14 14 14 13 15 15 15 14 14 14 14 14
9 8 8 8 8 7 7 6 5 4 3 5 4 3 3 4 4 2 5 7 6 5 6 8 10 10 11 12 13 12 13 13 14 14 13 15 15 16 17 14 14 14 14
10 9 9 8 8 8 8 7 6 5 4 3 3 4 3 3 6 7 8 8 7 7 7 8 9 10 11 11 10 10 12 13 13 13 14 15 15 16 16 16 16 15 15
10 9 9 9 8 8 8 8 7 6 5 4 2 2 4 7 7 8 9 9 9 8 7 8 9 10 10 10 10 12 12 13 13 14 15 15 16 16 17 17 18 18 16
11 10 10 9 9 9 8 7 7 7 6 5 2 2 3 6 6 8 8 10 10 9 8 7 9 10 9 10 12 13 12 13 13 15 15 15 15 16 16 17 18 18 17
11 11 10 9 8 7 7 7 6 6 6 5 2 2 2 4 5 7 8 9 9 9 9 9 10 10 11 11 12 13 13 13 14 15 14 15 15 16 16 16 17 19 18
10 11 9 8 8 8 7 7 6 6 5 4 2 5 5 5 6 9 9 10 9 9 10 10 10 11 11 11 12 12 13 14 14 14 15 15 15 16 16 16 16 18 20
8 9 8 7 7 7 6 6 6 6 6 2 5 6 6 7 8 8 9 9 8 10 10 11 11 12 12 12 13 14 14 14 15 14 16 16 16 16 16 16 17 17 18
8 9 10 8 7 7 7 6 5 6 4 5 7 7 8 8 9 8 9 9 9 11 11 12 12 13 12 13 13 14 14 15 14 15 16 15 16 16 17 17 17 17 18
9 8 8 7 7 7 6 4 5 4 5 6 8 9 10 10 10 11 10 11 12 10 11 12 13 13 13 14 15 14 15 15 15 15 15 15 15 16 16 17 17 18 18
7 8 7 6 6 6 4 6 7 8 8 9 10 10 11 10 11 11 11 11 12 12 12 13 13 13 13 13 15 15 15 15 15 15 15 16 16 16 16 17 17 18 16
6 7 6 6 6 5 7 9 8 9 10 10 10 11 11 12 11 11 11 12 12 12 12 12 13 13 13 15 14 14 14 15 14 15 15 15 16 16 16 16 17 16 17
6 7 6 7 7 9 10 10 9 9 9 10 10 11 11 11 12 11 12 13 13 13 13 14 14 14 14 14 14 14 14 15 16 16 16 16 14 12 13 14 16 16 16
6 6 9 10 10 10 10 9 8 9 8 10 11 11 12 13 12 13 13 13 13 14 14 14 14 15 13 12 12 13 15 16 16 17 16 16 15 14 12 11 11 12 14
8 10 10 11 10 10 10 10 10 10 11 11 11 12 12 13 14 14 14 14 14 14 15 14 14 15 14 13 13 14 16 17 17 17 17 17 15 15 15 13 11 11 10
13 14 14 13 11 10 11 11 11 12 12 12 13 12 12 13 13 13 14 14 14 14 15 15 15 15 14 12 13 14 16 17 17 17 17 17 16 15 13 14 15 14 14
14 14 13 13 12 12 12 12 12 12 13 13 13 13 13 13 13 15 15 15 15 16 16 15 16 15 15 14 14 15 17 17 17 17 16 15 15 12 11 13 15 14 14
13 13 13 12 12 13 12 13 13 13 13 13 13 12 13 15 15 15 15 15 15 15 16 16 17 16 18 14 14 14 17 18 17 16 15 13 13 11 10 12 14 16 16
12 12 13 13 12 12 12 13 13 14 13 14 14 13 13 14 15 15 15 15 16 17 18 19 19 19 17 17 13 13 16 16 15 15 15 15 12 11 11 11 15 15 13
13 13 14 14 13 12 13 14 15 14 14 14 14 15 15 14 15 16 16 17 18 19 20 18 18 18 18 14 13 13 12 12 15 15 15 15 12 12 12 13 12 11 11
14 13 14 15 14 13 13 15 14 14 14 15 15 15 15 16 17 18 19 19 19 19 19 20 20 19 18 18 14 13 12 12 14 15 13 12 13 13 14 13 12 11 14
13 13 13 15 15 14 14 14 14 14 15 17 17 17 18 18 18 17 18 19 20 20 20 20 20 20 18 17 16 15 16 13 14 13 16 15 15 14 14 14 13 14 14
15 15 16 17 17 16 16 16 16 16 17 17 17 18 18 19 19 19 19 19 19 18 19 19 18 19 18 17 14 14 14 14 14 16 17 18 17 17 15 15 14 14 14
16 16 16 16 16 15 15 15 15 16 17 18 18 19 19 20 20 19 19 14 14 14 14 14 15 16 14 13 13 13 13 13 13 17 18 18 17 16 16 15 16 15 15

GFSMW_con_lsi_051.txt.gz
Lid_Strength_Index
7 7 7 7 7 7 7 7 4 1 1 1 2 2 2 2 3 2 2 3 3 4 4 4 6 7 8 9 11 13 13 13 13 13 13 12 13 13 13 13 13 12 12
9 8 8 7 7 7 7 8 6 2 1 1 1 2 2 2 2 2 3 3 3 4 4 5 6 8 10 12 12 13 13 14 14 14 14 14 13 13 13 13 12 13 13
8 8 9 8 8 8 7 6 6 5 1 1 1 5 4 4 4 4 4 4 4 4 4 4 6 8 9 10 12 12 12 14 15 15 13 14 14 15 14 14 14 14 14
9 9 9 9 9 8 7 7 6 6 4 1 3 2 3 3 3 2 2 4 5 5 4 4 7 7 8 9 9 9 11 13 15 15 14 14 14 15 16 15 15 15 14
11 10 9 9 8 8 9 8 8 7 6 4 1 2 3 3 4 3 3 7 7 5 6 6 7 7 7 8 9 9 10 11 13 14 15 15 15 15 16 17 16 15 15
11 10 10 9 9 10 9 9 8 8 6 5 3 3 3 6 6 6 5 7 7 7 7 7 7 7 8 9 9 8 10 11 12 13 14 14 14 16 16 18 18 18 17
10 9 10 10 9 8 8 8 8 8 7 6 5 2 3 5 5 5 5 6 8 8 9 8 9 8 8 9 10 10 12 12 13 13 14 15 14 16 16 17 18 18 17
10 10 9 9 9 8 7 7 7 7 7 7 6 4 2 2 3 5 5 6 6 6 8 9 9 8 9 10 11 12 13 13 13 14 14 14 14 14 15 16 18 19 19
9 9 10 8 8 8 8 8 7 6 6 6 6 4 3 3 3 5 7 8 8 9 9 9 9 10 11 11 12 13 13 13 13 14 13 15 15 14 16 16 17 18 20
9 9 9 10 9 8 8 7 7 6 6 6 5 4 4 4 6 7 8 9 9 8 9 10 10 11 11 12 12 14 13 13 13 14 15 15 15 15 16 17 16 17 18
9 9 8 9 9 8 8 8 6 6 6 4 5 6 7 8 7 8 8 8 9 9 9 10 11 12 12 13 13 13 13 14 14 14 15 15 15 15 16 16 17 16 18
9 9 9 9 8 7 6 5 5 5 5 7 8 8 8 8 8 8 9 8 10 10 10 11 12 12 13 13 14 14 15 14 15 15 15 15 15 15 16 16 16 17 18
8 6 8 8 8 7 6 7 8 8 9 8 9 9 9 9 9 9 10 10 10 11 11 12 13 14 14 14 14 14 13 14 14 14 15 14 14 15 16 16 18 18 17
7 7 8 8 7 8 8 8 9 8 8 8 8 9 9 9 10 10 10 11 12 12 13 13 13 13 13 13 13 14 14 14 14 14 14 15 15 16 16 17 17 17 18
10 10 10 10 10 11 10 9 9 8 8 9 9 10 10 10 11 12 12 12 12 12 13 13 14 13 13 13 14 14 15 15 15 15 16 15 15 13 14 15 17 17 17
11 10 13 13 12 12 11 10 10 10 9 10 10 11 11 11 12 13 12 12 12 12 13 14 13 14 13 11 12 15 16 16 16 17 17 17 16 15 13 13 12 12 15
13 14 14 14 13 12 11 11 11 11 11 12 11 12 12 12 13 12 12 13 13 13 14 14 14 14 13 13 13 13 15 16 18 18 17 17 16 15 16 14 12 12 11
14 14 14 14 13 11 11 10 11 11 11 12 12 12 12 13 13 12 13 13 13 14 14 15 15 15 14 13 13 14 17 17 17 18 18 18 17 16 15 15 15 14 14
13 14 13 13 13 13 12 12 12 12 12 12 12 12 12 12 13 14 14 15 15 15 15 15 15 15 15 13 13 15 17 17 18 17 17 16 16 13 11 14 15 15 14
14 14 13 13 13 13 12 13 13 13 13 13 13 12 12 13 14 15 15 15 15 15 15 16 17 14 17 14 14 15 18 18 17 17 16 14 14 12 11 13 15 17 16
13 13 13 13 13 12 12 13 14 15 14 13 13 14 14 15 15 15 15 15 16 17 18 19 19 19 17 17 12 12 16 16 16 16 16 15 12 11 11 11 16 15 13
13 13 14 13 13 13 13 14 15 14 13 14 14 15 14 13 14 15 16 18 19 20 20 20 20 19 19 14 14 13 13 13 15 16 16 16 12 12 12 13 12 11 12
14 14 14 14 14 13 13 15 14 13 14 14 15 15 15 16 17 19 20 20 20 20 20 20 20 20 18 18 14 13 12 12 14 15 13 13 13 13 15 13 12 12 15
13 13 14 14 14 13 13 14 13 14 15 17 18 18 18 18 18 18 18 20 20 21 20 20 20 20 18 17 17 15 16 14 14 14 17 15 15 14 14 14 14 14 14
13 15 15 15 15 14 14 14 15 16 17 18 18 18 19 19 19 19 19 19 20 19 20 19 18 19 19 16 13 14 15 15 14 16 18 18 18 17 16 15 14 14 14
16 16 16 16 16 16 17 16 16 17 18 18 19 19 20 20 20 19 19 14 14 13 13 13 15 16 14 13 13 13 13 13 14 18 19 19 17 16 16 16 16 15 15

GFSMW_con_lsi_054.txt.gz
Lid_Strength_Index
7 7 7 7 7 7 7 7 7 2 1 1 2 2 3 2 2 2 2 3 4 4 3 3 4 5 7 7 10 12 13 14 13 13 13 13 13 13 13 12 13 12 12
9 8 8 8 8 7 8 8 7 4 1 1 1 1 1 2 1 2 2 2 4 4 4 4 5 6 7 9 11 12 14 14 13 13 14 14 14 13 13 13 13 13 13
10 9 10 9 9 9 8 7 7 6 1 1 1 4 4 4 2 3 3 3 4 4 4 5 5 6 7 8 10 11 11 13 14 14 13 15 14 15 15 14 13 14 14
12 11 10 10 10 9 9 8 7 7 5 1 2 2 3 3 2 2 2 3 4 4 4 5 6 7 7 8 9 9 8 9 12 13 14 16 14 15 16 15 15 15 15
11 10 11 10 10 10 9 9 8 7 6 5 2 2 2 2 4 3 3 3 4 4 4 5 6 7 7 8 8 9 10 9 11 12 13 15 15 16 15 17 15 16 16
10 9 9 10 10 10 10 10 9 9 8 7 4 2 2 3 5 5 4 6 6 5 5 5 6 7 7 8 8 9 9 10 11 11 13 13 14 15 15 16 16 16 17
10 10 9 9 8 8 8 7 8 8 8 8 7 4 3 4 4 4 3 4 5 5 6 6 6 7 8 8 8 9 9 9 11 12 13 14 14 14 15 16 17 16 17
9 9 9 9 9 9 8 8 8 8 7 7 7 6 4 2 3 4 4 4 5 4 5 6 7 8 8 8 9 9 10 12 12 14 14 14 14 15 14 15 16 19 17
9 9 9 9 9 9 9 8 8 7 7 7 7 7 6 4 2 4 4 5 6 7 7 7 8 8 8 8 10 12 13 13 13 13 13 14 14 14 15 15 16 16 19
9 9 9 9 9 9 9 8 8 7 6 6 6 6 6 4 4 5 6 7 8 8 8 7 8 9 10 11 11 12 13 13 13 13 14 15 15 14 14 15 15 16 17
9 9 9 9 9 9 8 8 7 7 6 6 6 7 7 7 7 7 8 8 8 8 8 9 9 10 11 11 12 13 13 13 14 14 15 15 15 15 15 15 16 16 16
9 9 8 8 8 9 9 9 10 9 8 7 7 7 6 6 7 8 8 8 7 7 8 9 10 11 12 12 13 13 13 14 14 15 15 15 14 15 15 15 15 16 16
9 9 9 9 10 11 11 11 10 9 8 7 7 7 6 7 7 7 8 8 8 9 10 11 12 13 13 13 13 13 13 13 13 13 14 14 13 14 14 15 16 16 16
11 11 10 11 13 13 12 10 10 9 9 8 7 7 7 7 8 8 9 10 11 12 13 13 13 12 12 12 13 13 13 14 13 14 14 14 15 15 15 16 16 17 17
12 12 13 15 14 14 12 11 11 10 9 10 9 9 9 9 10 11 11 12 12 13 13 13 13 12 13 13 13 13 14 14 15 14 15 15 16 14 14 14 16 17 18
13 14 14 15 13 14 13 12 11 12 10 10 10 10 10 10 12 11 12 12 12 13 12 12 12 12 11 11 11 13 14 14 15 17 17 16 15 15 14 14 13 14 16
14 15 15 14 13 12 12 12 11 11 11 10 10 11 11 11 11 11 12 12 12 12 13 13 12 12 12 11 11 12 15 16 17 17 17 17 16 16 17 15 13 13 11
14 15 14 14 14 12 12 12 11 11 11 11 11 11 11 11 11 12 13 12 12 13 13 14 14 14 13 11 12 14 17 17 17 17 17 18 18 17 15 15 16 14 14
14 14 14 14 13 13 13 12 12 12 12 13 13 12 12 13 13 14 14 14 14 14 14 14 15 15 14 12 13 15 17 18 18 17 17 16 17 13 12 14 15 14 15
13 13 13 13 13 13 12 13 13 13 13 13 13 12 12 13 14 14 14 14 15 15 15 15 15 14 17 14 13 16 18 19 17 17 16 14 14 12 11 12 15 17 17
13 13 13 13 13 13 13 14 14 14 13 13 13 13 14 14 15 15 15 15 16 17 18 19 19 18 17 16 13 13 16 16 16 16 16 15 12 12 11 12 16 16 14
14 13 13 13 13 13 13 14 15 13 13 14 14 14 14 13 14 15 16 18 19 20 20 20 20 19 19 14 13 13 13 13 15 15 16 15 12 13 13 14 13 12 12
14 14 13 13 13 13 13 14 14 13 14 14 14 15 16 17 18 19 19 20 20 20 21 21 20 19 18 18 13 13 12 13 14 14 14 13 14 14 15 13 13 12 15
13 13 13 13 14 13 13 13 12 12 14 16 18 18 18 19 19 19 19 20 20 20 20 20 20 20 18 18 17 15 16 14 14 15 17 15 15 15 15 15 14 14 14
13 14 14 13 13 13 13 13 15 16 18 18 19 19 19 20 19 19 19 19 20 19 20 19 19 19 19 16 14 14 15 16 14 16 18 19 18 18 16 16 15 15 15
16 15 14 15 14 15 16 17 17 17 18 19 19 20 20 20 19 19 19 13 14 13 13 14 15 16 14 13 13 13 13 13 13 18 19 19 18 18 17 17 16 16 16

GFSMW_con_lsi_057.txt.gz
Lid_Strength_Index
7 6 5 5 5 5 5 5 4 1 1 1 1 2 2 1 1 0 0 1 2 2 1 1 0 -0 0 2 3 5 7 9 9 10 9 9 9 9 7 7 7 7 8
9 8 7 7 6 6 5 5 5 4 1 1 1 1 1 1 0 0 1 0 2 2 2 2 1 1 1 2 5 6 8 9 10 9 9 10 10 10 10 9 8 8 9
10 9 9 8 8 7 6 6 5 5 3 0 1 1 1 1 1 1 1 1 1 2 2 2 2 2 2 3 5 7 7 9 10 10 8 11 10 11 11 10 10 10 9
9 8 8 8 8 8 7 7 6 5 5 2 1 2 2 3 2 1 1 1 1 2 3 3 3 3 3 4 5 7 6 7 10 11 12 11 10 11 13 13 12 12 11
9 8 8 8 8 7 7 8 7 6 5 4 1 1 2 2 1 1 1 1 1 2 3 2 3 4 4 4 5 6 6 6 7 9 12 13 13 13 13 14 14 13 13
8 8 7 7 7 7 6 6 6 7 7 6 4 1 2 2 2 2 2 1 2 2 2 3 3 4 4 5 6 6 6 6 7 8 11 11 12 12 14 14 14 14 14
8 7 8 8 7 7 7 6 6 6 6 6 6 5 1 1 2 2 2 2 3 3 2 2 3 4 5 5 6 6 7 7 8 9 11 12 12 13 13 14 16 15 16
8 7 8 7 7 7 7 6 6 6 5 5 5 5 5 3 1 1 1 1 1 2 2 3 3 4 5 6 7 6 7 7 8 10 12 12 13 13 13 13 15 16 15
8 7 7 7 6 7 7 7 6 6 5 4 4 4 4 4 3 1 1 1 1 3 2 3 4 4 5 6 7 6 8 8 10 12 13 13 13 13 13 13 13 13 15
7 7 7 7 6 6 6 6 6 6 6 5 5 5 4 4 3 3 2 1 2 3 4 5 5 5 7 7 8 9 11 12 13 13 14 14 14 14 14 14 14 14 16
7 7 7 7 7 8 8 8 8 8 8 7 6 6 5 5 4 4 4 4 4 4 5 5 6 7 9 10 11 12 13 13 13 13 14 14 14 14 14 14 14 15 15
8 9 9 9 10 10 10 10 9 9 8 7 6 6 5 5 4 4 5 5 5 5 5 6 7 9 10 11 12 13 13 13 14 14 15 14 13 14 14 14 14 15 15
11 10 10 12 12 11 10 10 10 10 9 7 6 5 5 5 5 5 6 6 6 6 7 8 10 11 12 12 13 13 13 13 13 13 13 13 13 14 14 14 15 16 15
12 12 13 13 13 12 12 11 11 10 10 9 9 8 7 6 7 7 8 9 9 10 11 11 11 12 13 12 12 12 13 13 13 13 13 14 15 15 15 15 14 15 16
13 14 14 14 13 13 12 12 11 11 10 10 10 10 9 8 8 9 9 10 10 11 11 11 12 12 12 12 12 12 13 14 14 15 15 15 15 14 14 14 14 15 15
13 14 14 14 13 13 12 12 12 11 11 11 11 11 10 10 10 10 10 10 10 10 10 11 11 12 11 10 10 12 14 14 15 16 15 15 14 14 14 14 13 13 14
14 14 15 14 13 12 12 12 12 11 11 11 11 11 11 11 11 11 11 11 11 11 11 11 11 11 11 10 10 12 14 15 16 16 16 16 15 15 15 14 13 12 12
14 14 14 14 13 12 12 12 11 12 12 12 12 12 12 12 12 12 12 12 12 13 13 13 14 13 12 12 12 13 15 16 16 16 16 16 16 15 13 13 12 12 12
14 14 13 13 13 13 12 12 12 12 12 13 12 12 12 12 13 14 14 14 14 14 14 14 14 13 12 12 13 15 16 16 17 16 15 14 14 13 11 12 13 13 13
13 13 13 13 13 12 12 13 13 13 13 13 13 13 12 13 14 14 14 14 14 15 15 15 14 13 15 13 13 15 16 16 15 15 14 13 13 11 11 12 13 15 14
13 12 13 13 13 12 13 13 13 14 13 13 13 13 13 14 14 14 15 15 16 17 17 17 17 16 15 13 12 13 14 14 15 14 14 14 12 12 12 12 14 14 12
13 13 13 13 13 12 13 14 14 13 13 13 13 14 13 13 15 16 17 17 17 18 18 18 18 17 16 13 12 12 12 12 14 14 14 13 13 13 13 13 13 12 12
13 13 13 13 13 13 13 14 13 13 13 13 15 16 17 17 17 17 17 18 18 18 18 18 18 17 16 15 13 12 12 13 14 13 13 13 14 14 14 13 12 12 13
13 13 13 13 13 12 12 12 12 12 14 16 17 17 18 18 18 17 17 18 18 18 18 18 18 17 16 15 14 14 14 14 14 15 15 15 15 15 14 14 14 13 13
13 12 13 13 13 12 12 13 14 16 17 18 18 18 18 18 17 17 17 18 18 17 17 17 17 17 16 15 13 13 14 14 14 15 16 17 17 16 15 14 14 14 14
14 13 13 13 13 13 14 16 16 16 18 18 18 18 18 17 17 17 16 13 13 13 13 14 15 15 14 13 13 14 14 14 14 17 18 17 17 16 16 15 15 14 14

GFSMW_con_lsi_060.txt.gz
Lid_Strength_Index
4 4 4 3 3 2 3 3 4 2 0 0 1 1 2 1 1 0 -1 -1 -1 -1 -1 -0 -0 -0 0 0 0 0 2 2 2 6 6 6 6 7 6 5 5 6 6
6 6 6 5 5 4 3 2 2 1 1 0 0 0 1 1 0 -0 -0 -0 -1 -1 -1 -0 -0 -0 0 0 0 1 2 2 4 4 4 6 7 7 7 6 6 6 7
6 5 5 5 5 5 4 4 3 2 2 1 -0 0 0 0 1 1 0 -0 -0 -0 -1 -0 -0 -0 -0 1 0 1 2 4 5 4 4 6 6 7 7 8 7 7 8
5 5 5 5 4 4 4 5 4 4 3 2 1 1 2 2 1 1 0 0 -0 -0 1 -0 -0 -0 -0 0 0 0 1 2 5 6 7 7 6 7 9 9 8 8 9
5 5 5 5 4 4 3 3 4 5 4 3 2 1 1 1 1 1 1 0 0 -0 -0 0 0 0 0 0 0 1 2 1 3 5 7 8 9 9 9 9 11 10 9
5 4 4 4 3 3 3 3 3 4 4 4 3 2 1 1 1 1 1 1 1 0 0 1 0 0 0 0 0 1 2 2 2 5 6 8 8 9 10 9 10 11 11
5 4 5 5 4 4 3 4 4 4 3 3 4 4 3 1 1 1 1 1 1 1 1 1 1 1 1 1 1 2 3 3 4 5 6 7 10 11 11 11 12 12 14
5 5 5 4 4 4 4 4 4 4 3 3 2 2 3 2 2 0 1 1 1 1 0 0 0 1 1 1 2 2 3 3 4 5 7 9 11 12 12 11 13 13 15
5 5 5 4 4 4 4 4 4 4 3 3 2 2 2 2 2 1 1 0 0 0 0 0 1 1 2 3 3 4 5 5 5 7 9 10 12 12 12 13 12 11 14
5 6 6 5 5 5 5 4 4 5 4 4 3 3 3 2 2 1 1 0 0 0 0 1 1 2 3 4 5 5 6 6 9 11 12 13 13 13 13 13 13 13 14
6 6 6 6 6 6 6 6 6 5 5 4 4 4 4 3 3 3 2 1 1 1 1 1 2 3 4 4 7 8 9 11 12 13 12 15 14 14 14 13 13 14 13
7 7 7 7 7 7 7 7 7 7 6 5 4 4 3 3 2 2 2 2 2 2 2 2 3 5 7 8 10 11 11 14 14 14 14 14 13 13 13 13 14 14 14
8 8 8 9 9 9 8 8 8 8 8 7 6 5 5 5 5 5 5 4 4 5 5 6 7 8 8 10 11 12 13 13 13 13 13 14 13 14 13 13 14 14 14
10 9 9 9 9 9 9 9 9 9 8 8 8 8 8 9 9 8 8 8 8 8 9 9 9 10 10 10 11 12 12 12 12 12 13 13 13 14 15 14 14 14 15
11 11 10 10 10 10 9 9 9 9 9 9 9 9 9 10 10 9 9 9 9 10 10 11 10 10 10 11 11 12 12 13 14 14 13 14 14 13 13 14 14 14 14
12 12 11 11 10 10 9 9 9 10 9 10 11 10 11 10 11 10 9 10 10 9 10 10 10 10 9 9 10 12 13 13 14 15 15 14 13 13 13 13 13 13 14
12 12 12 11 10 10 10 10 10 9 10 11 11 11 11 12 11 11 12 11 11 11 11 11 11 11 10 10 10 12 14 15 15 15 15 14 14 15 15 14 14 13 12
12 12 11 11 11 10 10 10 10 11 11 12 12 12 12 12 12 12 12 12 12 13 13 13 14 13 12 11 12 13 14 14 14 14 15 15 15 15 14 13 12 11 11
12 12 12 12 11 11 11 10 11 11 12 12 12 12 12 12 13 13 14 14 14 14 14 14 13 13 13 12 13 14 14 15 15 15 15 15 15 14 12 11 12 12 12
11 11 12 12 12 12 11 11 12 12 13 13 13 12 12 13 14 14 14 14 14 14 14 14 13 12 12 12 14 14 14 15 15 15 14 14 13 12 11 11 12 13 13
11 11 12 12 12 12 12 13 13 13 13 12 12 12 13 13 13 14 14 14 14 14 14 15 14 13 13 13 13 13 13 13 14 14 13 13 12 12 12 12 12 13 12
11 11 12 12 12 12 12 13 13 13 12 12 12 12 12 12 13 14 14 14 14 15 15 15 15 14 13 12 12 12 12 13 13 14 13 13 13 13 13 13 13 12 12
12 12 12 13 12 12 12 13 13 12 12 12 13 14 14 14 14 14 14 14 14 14 15 15 15 15 14 13 13 13 13 13 13 13 13 14 14 14 14 14 13 13 13
12 11 12 12 13 12 12 11 11 11 12 14 15 14 15 15 15 14 14 15 15 15 15 15 15 15 14 13 13 13 13 13 13 14 14 15 15 15 14 14 13 13 12
12 12 11 12 12 11 11 11 11 12 14 15 15 15 15 15 15 14 15 15 15 14 15 15 15 15 15 14 13 13 13 13 14 14 15 15 15 14 14 14 13 13 12
11 11 11 11 12 11 12 11 12 13 14 15 15 15 15 14 14 14 14 13 13 13 14 14 14 14 14 13 13 14 14 14 14 16 16 15 15 15 15 14 14 12 12

GFSMW_con_lsi_063.txt.gz
Lid_Strength_Index
4 4 4 3 3 2 2 2 2 2 2 1 1 1 2 1 1 -0 -0 -1 -1 -1 -0 -0 -0 -0 0 0 0 1 1 1 0 2 4 3 4 5 5 4 4 4 5
5 5 5 5 4 3 2 2 1 1 2 2 1 1 1 1 0 0 -0 -0 -0 -1 -0 -0 0 0 0 0 1 1 2 1 1 3 4 6 6 6 6 6 5 5 5
6 5 5 4 4 4 3 3 3 2 1 0 0 0 0 0 1 1 1 0 -0 -0 -0 -0 0 0 0 1 1 1 1 2 2 3 3 5 6 7 6 7 6 6 6
5 5 5 4 4 3 2 3 3 3 2 1 1 1 2 2 1 1 0 0 -0 -0 -0 -0 0 0 0 1 1 0 1 1 3 4 3 2 5 6 10 8 8 7 7
4 5 4 4 3 2 2 2 3 3 3 3 2 2 1 1 1 1 1 0 0 -0 -0 0 -0 0 0 1 0 1 1 1 2 4 5 5 6 7 8 10 10 9 8
4 4 3 3 3 2 2 2 3 3 3 3 3 3 2 1 1 1 1 1 1 0 0 0 0 0 0 1 1 0 1 1 1 3 4 5 7 8 9 8 9 10 10
4 4 4 4 3 3 2 3 3 3 3 2 2 3 3 2 1 1 1 1 1 1 1 0 0 0 0 0 1 1 1 1 2 2 4 5 5 7 7 8 12 12 13
4 4 4 3 3 3 3 3 3 3 3 3 3 2 2 2 2 2 1 1 1 1 0 0 0 0 0 0 1 1 2 2 2 2 2 4 8 10 11 10 12 13 15
5 5 4 4 4 4 4 4 4 4 4 4 3 2 2 2 2 1 1 1 1 0 0 0 0 0 0 1 2 2 3 3 3 3 6 9 10 11 12 12 11 11 15
5 5 5 5 5 5 5 5 5 5 4 4 3 3 3 3 3 2 2 1 1 0 0 0 0 1 0 1 2 3 4 4 5 8 10 12 12 13 13 13 12 12 13
6 6 5 6 6 5 6 5 5 5 5 4 4 3 3 3 3 3 2 2 2 1 1 1 1 1 1 2 3 5 5 8 9 10 11 13 13 13 14 14 13 13 13
6 6 6 7 6 6 6 6 7 7 6 6 5 5 5 5 5 5 5 4 4 3 3 2 2 3 4 5 7 7 9 10 10 12 13 14 13 13 13 13 13 13 13
7 7 7 7 7 7 7 7 8 8 7 7 7 7 7 7 7 7 7 7 8 8 8 7 7 7 7 7 8 9 10 11 11 11 12 13 13 13 13 13 14 13 13
8 7 7 7 8 8 8 8 8 8 8 8 8 8 8 9 9 9 9 9 9 9 10 10 9 9 9 9 9 10 10 11 11 11 12 12 12 13 14 13 14 13 14
9 9 8 8 8 8 8 8 8 8 8 9 9 9 9 9 9 9 9 9 9 10 9 10 10 10 10 9 9 10 10 12 13 13 13 13 12 11 11 12 13 14 14
10 10 10 9 9 8 9 8 9 9 8 9 10 10 10 10 11 11 10 10 10 11 10 10 10 10 9 9 9 11 12 13 14 14 14 13 12 11 11 12 13 13 13
10 10 10 10 9 9 9 9 9 9 10 10 10 11 11 11 11 11 12 12 12 12 12 12 13 13 12 10 10 11 13 14 14 13 14 14 14 14 14 14 14 13 13
10 11 10 10 10 9 9 9 10 11 12 12 12 11 11 12 12 12 13 13 13 13 13 14 14 13 12 11 12 12 14 14 14 14 14 14 14 15 14 14 14 13 12
10 10 10 11 10 10 10 10 10 11 12 12 12 12 12 13 13 14 14 14 14 14 14 14 13 13 13 12 12 13 14 14 15 14 14 14 15 14 12 12 12 12 12
10 10 10 11 11 11 10 10 12 12 13 12 12 12 12 13 14 14 14 13 13 13 12 12 12 11 13 12 13 13 14 15 15 15 14 13 13 12 11 12 13 14 14
10 10 10 11 11 11 11 13 13 13 13 12 12 12 12 13 13 13 13 12 13 13 13 13 13 12 12 12 12 12 13 13 14 14 14 13 12 12 12 13 14 14 13
10 10 10 11 11 11 12 13 13 12 12 12 12 12 11 12 13 13 13 13 14 14 14 14 14 14 13 12 12 12 12 12 14 14 14 13 13 14 14 13 13 12 12
10 10 11 12 12 11 12 13 13 12 11 11 12 13 13 14 13 13 14 14 14 15 15 15 15 15 14 13 13 13 13 13 14 14 14 14 14 14 14 14 13 13 14
11 10 11 12 12 11 11 12 11 11 11 12 14 14 14 14 14 14 14 15 15 15 15 16 15 15 14 14 13 13 13 13 13 14 14 15 15 14 14 14 14 14 14
11 10 11 11 12 11 11 10 10 11 12 13 14 14 15 15 15 14 14 15 14 14 15 15 15 15 15 14 13 14 14 14 14 14 15 16 15 15 15 14 14 14 14
11 11 11 11 11 11 11 10 10 11 13 15 15 15 15 14 14 14 14 13 13 13 14 14 14 14 14 14 14 14 14 14 14 16 17 16 15 15 15 15 15 14 13

GFSMW_con_lsi_066.txt.gz
Lid_Strength_Index
6 6 6 6 6 5 5 5 4 4 4 5 4 2 2 1 1 0 1 1 2 1 1 1 1 2 2 1 1 2 2 3 4 5 6 7 7 7 7 6 6 6 6
8 7 7 8 7 7 6 5 5 4 3 3 3 1 2 1 1 1 -0 0 1 1 1 1 1 2 2 2 2 2 2 2 3 6 8 9 8 8 7 7 7 7 7
8 8 7 7 6 6 5 5 5 5 4 3 3 2 1 2 2 2 1 0 0 1 2 1 1 2 2 2 2 2 2 3 3 5 6 8 8 9 8 8 8 8 8
7 6 6 6 6 5 4 4 5 5 5 4 4 4 4 3 3 2 1 1 1 1 1 1 1 1 1 2 2 1 2 3 3 4 4 5 7 9 11 9 9 8 9
7 6 6 5 5 4 4 4 4 4 5 5 5 5 5 4 3 1 2 2 2 1 1 2 2 2 2 1 1 1 1 2 2 4 6 4 6 9 10 12 11 10 9
6 6 6 5 5 5 4 4 4 4 4 4 5 6 5 5 5 2 3 3 2 2 1 1 1 1 0 1 1 1 2 2 1 3 5 5 5 6 9 9 11 11 10
6 6 6 5 5 5 5 4 5 5 4 5 4 4 5 6 6 5 4 3 2 2 2 2 2 1 0 1 1 1 1 2 2 2 5 4 5 5 6 7 11 11 13
6 6 6 6 6 5 6 6 5 5 5 5 5 5 4 4 4 4 4 4 5 4 2 1 2 2 0 0 0 1 1 1 2 2 2 4 7 8 7 7 10 13 14
7 7 7 6 7 7 7 7 6 6 6 5 5 5 5 5 5 4 4 3 3 2 2 2 2 1 1 0 1 1 1 2 2 2 4 7 9 9 9 9 9 9 14
7 7 7 7 7 7 7 7 7 7 6 6 6 5 5 5 5 5 5 5 4 4 3 3 3 2 2 1 1 2 3 3 6 7 9 9 11 11 11 10 10 10 11
8 8 8 8 8 8 8 8 8 8 8 7 7 7 7 7 7 8 8 7 6 5 5 4 3 3 3 3 3 3 4 6 8 9 9 10 10 11 11 11 11 12 12
8 8 8 8 8 8 8 9 9 9 9 8 8 9 9 9 9 10 10 10 10 10 10 9 9 8 8 7 7 7 7 7 9 9 10 10 10 11 11 11 12 12 13
8 8 8 9 9 9 9 9 10 10 9 9 10 10 10 11 11 11 10 10 11 11 11 10 10 10 10 10 10 10 10 10 10 10 10 11 10 11 11 12 13 13 13
8 9 9 9 9 9 9 10 10 10 10 10 10 11 11 11 11 11 10 10 10 11 11 11 11 11 10 10 10 10 10 10 10 10 10 10 11 12 13 13 13 13 13
9 9 10 10 10 10 10 10 10 10 10 11 11 11 11 10 10 10 10 10 10 10 11 10 10 10 10 10 11 11 11 11 12 11 11 11 10 10 11 12 13 13 13
10 11 10 10 10 11 10 10 10 10 10 11 12 11 11 11 11 11 11 11 12 12 12 12 12 11 10 9 10 12 13 13 12 13 13 14 12 11 11 11 11 12 14
10 11 11 11 11 11 10 11 11 11 11 11 12 12 11 12 12 12 12 13 13 13 13 13 13 13 12 10 10 11 14 14 14 14 14 14 13 14 14 14 13 13 13
10 11 12 11 11 11 11 11 11 11 12 12 12 12 12 13 13 13 13 13 13 13 13 14 13 13 12 11 11 12 14 14 14 14 14 14 15 14 14 14 15 15 14
11 12 12 12 11 11 11 11 11 12 12 13 13 12 13 13 13 14 14 14 14 14 14 13 15 15 14 12 12 14 15 15 15 15 15 15 15 13 12 14 14 14 14
11 12 12 12 12 11 12 12 12 13 13 13 13 12 12 13 14 14 14 14 14 15 15 14 15 12 15 11 11 13 15 16 15 15 14 12 12 11 11 14 16 16 16
11 11 11 12 12 12 12 13 13 13 12 12 12 12 13 14 13 14 16 17 16 16 16 16 16 15 14 14 11 11 15 15 15 15 16 15 12 12 13 13 16 16 15
11 11 12 12 12 11 12 13 13 12 12 12 13 13 13 13 13 15 16 16 17 18 18 18 18 17 15 12 12 12 12 13 16 16 16 16 13 13 14 14 13 12 13
11 11 12 12 12 11 12 13 13 12 12 13 14 15 15 15 15 17 17 18 18 19 19 19 19 18 16 16 13 12 13 13 15 15 14 14 14 14 15 14 13 13 16
11 12 12 13 12 11 11 12 12 12 12 14 16 16 17 17 17 17 17 18 19 19 19 19 19 19 18 17 16 16 16 14 15 15 16 15 15 14 14 15 15 16 16
11 12 13 12 12 11 11 11 12 12 14 16 16 16 17 18 18 17 17 18 17 17 18 18 18 18 18 16 14 15 15 16 15 16 18 18 18 17 17 16 16 16 16
11 12 12 12 12 11 12 12 12 13 15 16 17 17 18 18 18 18 17 13 14 14 14 14 16 16 15 14 14 14 14 14 14 17 19 19 18 18 17 17 16 16 14

GFSMW_con_lsi_069.txt.gz
Lid_Strength_Index
7 8 8 8 7 7 7 7 7 7 7 7 3 3 2 3 2 1 1 2 1 1 2 2 2 2 3 3 2 2 3 3 5 6 6 8 8 7 7 7 6 5 3
9 8 8 8 7 7 6 7 7 6 5 5 5 2 2 2 1 1 1 1 1 1 2 2 2 2 3 3 2 3 4 3 4 5 8 8 9 8 8 8 7 7 6
9 9 7 7 6 6 6 6 7 7 6 6 5 5 2 3 3 3 3 1 1 0 0 2 2 3 3 3 3 2 2 3 4 5 7 9 9 10 9 8 8 7 8
9 8 8 7 6 6 6 6 5 6 6 6 6 6 6 4 2 2 2 1 1 1 1 2 1 2 2 3 2 2 1 3 3 5 4 5 7 9 10 9 8 8 8
8 8 7 6 5 5 6 6 5 5 5 6 6 6 6 6 5 4 2 1 2 1 1 2 2 3 3 3 3 3 3 2 2 3 4 5 5 7 10 11 9 8 8
8 7 6 5 5 5 5 5 5 5 5 5 5 6 7 7 6 6 5 3 3 2 1 1 2 2 2 2 2 1 2 2 2 2 3 4 4 5 8 9 10 9 10
7 6 6 6 6 6 7 6 6 6 6 6 6 5 5 5 6 6 6 5 5 5 4 2 2 2 2 1 0 1 1 1 2 2 3 3 4 4 5 6 9 10 12
7 7 7 7 7 8 8 7 7 7 6 6 6 6 5 5 5 5 5 5 5 4 5 4 3 3 2 1 0 1 1 1 1 2 2 3 3 5 5 6 8 10 12
7 8 8 8 8 8 8 8 7 7 7 6 6 6 6 6 6 6 6 6 5 4 5 4 5 4 4 3 1 1 1 1 1 2 3 5 7 7 6 6 7 6 11
8 8 8 9 8 8 8 8 8 8 8 7 7 8 8 8 8 9 9 9 8 7 7 5 5 5 5 4 4 4 3 1 5 6 7 9 10 9 9 8 8 8 8
9 8 9 8 8 9 9 9 9 9 9 9 9 10 10 10 10 11 11 11 11 10 10 9 8 9 8 8 7 6 6 6 7 8 8 9 9 9 10 9 8 10 9
8 9 9 9 10 10 10 10 10 10 10 9 10 11 11 11 11 11 11 11 12 11 11 11 11 11 11 11 10 9 8 9 9 9 9 9 9 9 9 9 10 10 11
8 9 10 10 11 11 10 11 11 11 10 10 11 11 11 12 12 12 11 11 12 12 12 11 11 11 11 11 11 10 10 10 10 10 9 9 9 9 10 10 11 11 11
8 9 10 10 10 10 10 10 11 11 10 11 11 12 12 11 11 11 11 10 11 12 12 11 11 11 12 11 12 11 11 11 11 11 11 10 10 11 11 12 12 12 13
9 9 10 10 10 10 10 10 10 11 11 11 12 12 12 11 11 11 11 11 11 11 11 11 11 11 12 11 12 12 12 12 13 12 11 11 10 9 10 12 12 13 14
10 10 10 10 11 11 11 11 11 11 11 12 13 12 11 11 12 12 11 12 12 12 12 12 11 11 10 10 10 12 13 13 13 14 13 13 13 12 10 10 11 12 13
10 11 11 11 11 11 11 12 12 12 12 12 12 11 12 12 12 12 12 12 13 13 13 13 12 12 11 10 10 11 15 15 14 14 14 14 13 13 14 13 13 13 12
10 11 12 11 11 11 12 12 12 11 12 12 12 12 12 12 12 13 13 13 14 14 14 14 14 15 12 11 11 12 18 18 16 15 16 16 16 15 14 15 15 14 14
11 11 12 12 12 12 12 12 12 12 12 13 12 13 12 13 13 14 14 14 14 14 14 17 17 17 15 11 11 13 15 16 16 15 15 15 15 11 11 14 15 15 15
11 12 12 13 13 12 12 13 13 12 13 13 13 12 12 13 14 14 14 14 18 15 14 14 17 13 16 11 11 14 16 17 16 16 16 12 13 12 12 15 17 17 17
12 12 12 13 13 12 13 13 12 13 12 12 12 12 13 13 14 14 18 18 17 17 17 17 17 16 15 14 12 12 15 16 16 16 17 16 13 13 13 13 17 16 15
11 12 13 13 12 12 12 12 13 12 12 12 13 14 14 13 14 16 16 16 18 18 19 19 19 17 16 13 13 12 13 13 16 17 17 16 13 14 14 15 13 12 13
12 12 13 13 13 11 11 12 12 11 12 12 14 14 14 15 16 17 18 19 19 20 20 20 19 19 17 17 13 12 12 13 16 16 14 14 14 14 15 14 13 13 17
11 12 13 14 12 11 12 11 11 11 12 14 15 16 17 17 17 18 18 19 20 20 20 19 19 19 18 17 17 16 17 14 15 15 17 15 15 14 15 15 16 16 16
11 12 13 13 12 11 12 11 11 12 14 16 17 17 16 17 18 17 19 19 18 18 19 19 19 19 19 17 15 15 16 16 15 16 18 18 18 18 17 17 16 16 16
11 12 13 13 12 11 12 11 11 13 15 18 18 18 18 18 18 18 18 14 14 14 14 14 16 16 15 14 14 14 14 14 14 17 19 20 19 18 17 17 17 16 15

GFSMW_con_lsi_072.txt.gz
Lid_Strength_Index
10 8 9 9 8 7 7 8 7 8 5 3 3 3 3 3 3 3 2 1 1 1 2 3 3 3 3 2 2 3 3 3 5 6 6 7 7 8 8 8 6 3 2
10 10 9 8 7 7 7 7 7 7 8 7 8 3 3 3 2 2 2 2 2 2 2 2 2 3 3 3 3 3 4 3 5 5 7 7 7 8 8 8 7 7 3
10 9 8 7 7 7 7 6 6 7 7 7 6 5 1 3 3 3 3 2 2 2 2 1 2 3 3 3 4 3 4 3 5 5 5 9 8 9 8 8 8 8 7
10 9 8 7 7 6 6 6 6 7 7 7 8 8 7 5 3 3 2 2 2 2 2 2 2 2 3 3 3 3 3 3 3 4 3 5 6 8 9 9 7 7 6
9 9 8 6 6 6 6 7 6 6 7 7 8 8 8 7 6 6 4 2 1 1 2 2 2 2 3 3 3 3 4 3 3 4 5 4 5 6 8 7 8 7 6
9 8 7 6 6 7 7 7 7 8 7 7 7 7 8 8 8 7 7 6 3 4 5 3 2 3 3 3 3 2 3 3 2 2 3 4 6 5 6 8 9 8 8
9 8 8 7 7 8 8 7 7 7 6 6 6 6 7 7 7 6 6 6 5 5 5 4 4 3 3 3 2 1 1 1 2 1 2 2 2 3 4 5 6 8 9
9 8 8 8 8 8 8 7 7 7 7 7 7 7 6 6 6 6 6 6 6 5 5 5 5 5 5 5 4 2 2 1 2 2 3 3 2 3 3 4 6 10 10
8 8 8 9 8 8 8 8 8 8 8 7 7 8 8 8 8 9 8 8 8 6 6 6 5 5 6 5 5 5 5 3 2 3 3 4 6 6 6 6 6 6 8
7 8 9 9 8 9 9 9 9 9 9 9 9 9 10 10 11 11 11 11 11 10 9 9 9 9 8 7 6 6 5 4 6 6 7 7 7 7 8 7 7 7 7
8 8 9 9 9 10 10 11 11 10 10 10 10 11 11 11 11 12 12 12 12 12 11 11 11 11 11 10 9 9 8 8 8 8 8 9 8 9 8 8 8 8 8
9 9 9 9 10 10 11 11 10 10 10 11 11 12 12 12 12 12 12 12 12 12 12 12 12 12 11 11 11 11 11 10 10 10 10 10 9 10 9 10 10 10 9
8 9 10 10 10 10 11 11 11 11 11 12 12 12 12 12 12 12 12 12 12 12 12 12 12 12 12 12 12 12 12 11 11 10 11 10 10 11 11 11 11 11 10
8 9 10 10 11 11 11 12 12 12 12 12 12 12 11 10 11 12 11 12 12 12 12 12 12 12 12 12 12 11 12 11 11 11 11 11 12 12 12 12 12 12 12
9 10 10 11 11 11 11 12 12 12 11 12 12 12 11 11 11 11 11 11 11 11 11 10 11 11 12 12 13 13 13 13 13 12 12 11 10 10 10 12 13 13 13
10 9 10 10 10 11 11 11 11 11 11 12 12 12 11 11 12 12 12 12 12 12 12 12 11 11 11 10 10 13 14 14 14 14 13 13 13 12 10 10 11 11 13
10 10 10 10 11 11 11 12 12 12 12 13 12 11 11 12 12 12 12 13 13 13 13 12 12 12 11 10 10 12 16 16 16 17 16 14 13 13 14 13 12 12 11
9 11 11 11 11 11 12 12 12 12 11 12 12 12 12 12 12 13 13 13 14 14 14 16 17 17 13 11 12 12 19 18 17 16 16 16 16 14 14 14 15 15 15
10 11 11 11 12 12 12 12 12 12 12 12 12 12 12 13 13 14 14 14 14 18 19 20 18 17 16 12 12 14 17 17 17 16 16 15 15 11 11 15 16 17 16
11 12 12 12 12 12 12 13 13 12 13 12 12 12 12 13 13 14 14 14 14 16 17 18 18 13 16 12 12 15 17 18 17 17 16 12 14 12 12 16 17 18 17
12 12 12 13 13 12 12 14 13 12 12 12 12 12 13 13 14 14 18 20 19 18 18 18 18 17 16 16 12 12 16 16 16 17 17 16 13 13 13 14 17 16 16
12 12 13 13 13 12 13 13 13 11 11 12 12 13 13 13 14 16 16 17 18 18 19 19 19 18 18 14 13 13 13 14 16 17 17 17 14 14 14 15 13 13 14
12 12 13 13 13 13 13 12 12 11 11 12 13 14 15 15 16 17 17 18 19 20 20 20 20 19 18 18 13 13 13 13 16 16 15 13 14 14 15 14 13 14 17
11 12 13 14 14 13 12 11 11 11 12 12 15 15 16 17 17 17 17 18 20 21 20 20 20 20 19 18 18 16 17 15 15 15 17 16 15 15 15 16 16 16 17
11 12 13 13 13 12 12 11 11 11 12 13 15 17 18 17 18 18 18 18 19 19 20 20 19 20 20 18 15 15 16 17 15 16 18 19 18 18 17 17 17 16 16
12 12 13 13 13 12 12 11 11 12 14 16 18 19 19 19 18 17 18 14 14 13 14 14 17 17 15 14 14 14 14 14 14 17 19 20 20 19 18 17 17 17 16

GFSMW_con_lsi_075.txt.gz
Lid_Strength_Index
10 9 10 10 9 8 10 11 10 10 5 3 3 3 3 3 3 2 2 1 2 3 3 3 3 4 4 3 4 4 4 4 5 6 6 7 6 6 6 6 7 5 3
10 11 9 8 8 8 8 8 8 8 9 7 6 3 3 3 3 3 3 2 2 2 2 3 3 3 3 3 4 4 5 4 5 5 8 6 6 8 7 8 8 7 4
10 10 10 9 8 8 7 7 7 8 7 7 6 6 4 4 3 3 3 3 2 2 2 2 2 2 3 3 4 4 4 4 5 5 5 9 8 8 8 9 9 8 7
11 9 9 9 8 7 7 7 7 7 7 8 7 7 6 3 4 5 4 5 2 2 2 2 2 2 3 3 3 4 4 5 4 6 5 5 7 7 7 8 8 8 8
10 9 8 7 7 7 7 7 6 6 7 7 8 8 8 7 7 7 7 5 3 2 3 3 3 3 3 3 3 4 4 4 3 3 4 4 5 6 7 6 6 7 6
10 9 7 7 7 7 7 7 7 7 7 6 6 7 8 8 8 8 7 7 5 4 4 4 4 4 4 3 4 3 4 4 3 2 2 3 4 5 6 7 5 7 6
10 9 8 8 8 8 8 8 7 8 7 7 7 8 8 8 8 8 7 7 6 6 6 5 5 5 4 4 4 3 3 3 2 2 2 3 3 2 4 4 5 7 8
10 9 8 8 9 9 9 9 9 9 8 8 8 8 7 7 7 8 8 8 7 7 6 6 5 6 6 5 5 5 4 4 3 2 2 2 2 3 3 4 5 7 8
9 8 9 9 9 10 10 9 9 9 9 9 9 10 10 10 11 11 10 10 11 8 8 8 8 8 7 6 6 6 6 5 5 5 5 5 6 6 6 5 4 4 6
8 9 9 10 10 10 10 10 10 9 9 10 10 11 12 12 12 12 12 12 12 11 11 10 11 11 10 9 8 8 6 5 6 7 7 8 8 9 8 7 7 7 7
8 9 9 9 9 11 11 11 10 10 10 11 11 12 12 12 12 13 13 13 12 12 12 12 12 12 11 11 10 10 8 8 8 9 9 9 9 9 9 9 8 9 9
8 9 9 9 9 10 11 11 10 11 11 11 12 13 13 13 13 13 13 13 13 12 12 12 12 12 12 12 12 12 11 10 10 10 10 10 9 10 10 10 10 11 11
9 9 9 10 10 11 11 11 11 11 12 12 12 12 12 13 13 13 13 13 13 13 13 13 13 13 12 12 12 12 12 11 11 11 11 11 11 11 12 12 13 13 11
8 9 10 10 11 11 11 12 12 12 11 12 12 13 12 12 12 11 12 12 12 12 12 13 13 13 13 13 13 12 12 12 12 11 11 11 12 12 14 13 13 13 12
9 9 10 11 11 11 11 12 12 12 12 13 13 13 12 11 11 11 11 11 11 11 11 11 11 12 12 12 14 13 12 13 13 13 12 11 10 9 11 13 13 14 14
9 9 10 10 11 11 11 11 12 12 12 13 13 12 11 11 11 11 12 12 12 12 11 11 11 11 10 10 11 14 15 15 14 15 16 14 13 12 10 10 10 11 12
9 9 10 10 10 10 10 11 12 12 12 12 12 11 11 11 12 12 12 13 13 12 13 13 13 13 11 10 11 12 17 18 19 19 18 15 14 14 15 12 12 12 11
9 9 9 10 10 11 11 11 12 12 12 12 12 11 12 12 12 13 13 13 13 14 15 17 18 18 14 12 12 13 21 20 18 17 17 16 16 14 15 15 16 16 16
9 10 11 10 11 11 12 12 12 12 12 12 12 12 12 12 13 14 14 14 17 19 20 21 19 18 16 12 12 16 18 18 18 17 16 16 16 12 12 16 16 17 17
10 10 11 11 12 12 12 13 13 13 12 12 12 12 12 13 13 14 14 15 18 20 19 18 19 14 17 12 13 16 17 19 17 17 17 13 14 12 13 16 17 18 18
11 12 12 12 12 12 12 14 14 13 12 12 12 12 12 13 13 14 15 15 15 15 19 18 19 18 16 16 13 13 16 17 17 17 17 16 13 13 13 14 17 16 16
12 12 13 13 13 12 13 14 14 12 11 11 12 12 13 12 13 14 17 18 19 19 20 20 19 18 18 14 14 13 14 15 17 17 17 17 13 14 14 15 13 13 15
11 11 13 13 13 13 12 13 12 11 11 12 12 13 13 13 14 17 17 18 20 20 20 20 20 19 17 18 14 14 14 14 17 16 15 14 14 14 15 14 13 14 17
11 12 13 13 14 13 13 12 11 11 11 12 13 13 14 16 17 17 17 18 20 20 20 20 19 20 19 19 18 17 18 16 16 16 18 16 15 15 15 16 16 17 17
11 12 12 13 13 13 13 12 11 11 12 12 13 15 16 15 18 19 19 19 20 19 20 20 19 20 20 18 16 16 16 17 16 17 19 20 19 18 18 18 18 17 17
11 12 12 13 12 12 13 11 11 11 12 13 14 16 18 18 19 19 18 14 15 13 13 14 17 17 15 15 14 13 14 14 14 18 20 21 20 20 19 18 18 18 17

GFSMW_con_lsi_078.txt.gz
Lid_Strength_Index
10 10 10 11 10 10 11 10 4 4 3 3 3 3 3 3 3 2 1 2 3 3 3 3 4 4 5 4 5 5 5 5 5 5 5 6 5 6 5 5 7 7 6
12 11 11 11 9 9 9 11 11 11 10 6 4 3 3 3 3 3 3 3 2 2 3 4 4 4 4 4 4 4 5 5 5 4 5 5 4 6 6 7 7 8 6
11 12 11 10 9 9 8 8 8 8 8 9 8 8 5 4 4 3 4 3 2 2 2 2 3 3 4 4 4 4 4 4 6 5 4 6 6 7 7 8 8 8 8
12 11 10 10 9 8 8 8 7 7 8 8 8 8 7 3 4 6 6 6 4 3 3 2 3 3 4 3 3 4 4 4 3 4 4 4 5 5 6 6 7 8 7
11 10 9 9 8 8 8 8 7 7 6 7 8 8 8 8 8 7 7 6 4 4 4 3 2 3 3 4 4 4 4 4 3 3 4 4 4 5 6 6 4 6 6
11 10 8 8 8 8 8 8 8 8 7 6 7 8 8 8 7 7 7 6 6 6 6 5 4 3 3 4 4 4 4 4 3 2 3 4 3 5 5 5 5 5 4
11 9 8 9 9 9 9 8 8 9 8 8 8 7 8 8 8 7 7 8 7 8 8 6 6 5 4 4 3 3 3 3 3 2 2 3 2 2 3 4 4 5 6
10 9 8 9 9 9 10 9 9 9 8 8 8 9 8 9 9 9 10 11 10 9 8 8 7 7 7 5 4 4 5 5 4 4 5 4 5 4 4 3 5 6 7
9 9 8 9 10 10 10 9 9 9 10 10 11 12 11 12 12 13 12 11 11 9 10 10 10 9 8 7 6 6 5 5 5 6 6 6 6 6 6 6 5 5 7
8 8 9 9 10 10 10 10 10 10 11 11 12 12 13 13 13 13 12 12 12 12 12 11 11 11 10 9 9 8 6 6 7 7 7 7 8 9 10 8 7 7 7
8 8 9 9 10 11 11 11 11 11 12 12 13 13 13 13 13 13 13 13 13 13 13 13 12 12 12 11 11 10 8 8 8 8 9 9 9 9 9 9 9 9 9
8 9 9 10 11 11 12 12 12 12 12 13 13 12 12 12 13 13 13 13 14 13 13 13 13 13 13 13 13 12 10 10 10 10 10 10 10 10 10 10 11 10 11
8 9 9 10 11 11 11 11 11 12 12 13 13 13 13 13 13 14 14 14 13 14 14 14 14 14 13 13 13 12 11 11 11 11 12 11 11 12 12 12 12 12 12
8 9 9 10 10 11 11 11 11 11 12 12 12 13 12 12 12 12 12 12 13 14 14 14 13 14 14 13 12 12 12 12 11 11 11 11 12 13 14 14 14 13 14
9 9 9 10 11 11 12 11 11 11 12 12 13 13 11 11 11 11 12 12 12 12 11 11 12 12 12 13 12 12 12 12 13 13 12 12 10 10 11 13 14 15 15
9 9 9 10 11 11 12 12 12 12 12 13 13 12 12 12 12 12 12 12 12 11 11 11 11 11 11 10 11 14 14 14 16 17 17 16 14 13 10 10 10 12 15
8 9 9 10 10 11 11 12 12 12 13 13 13 12 11 12 12 12 12 12 12 12 13 13 13 12 11 11 12 13 18 19 20 20 19 16 14 15 15 13 12 12 11
8 9 9 10 10 11 11 12 12 12 12 12 12 12 11 11 12 12 12 13 13 14 15 17 18 17 14 12 12 14 21 20 19 18 18 17 16 15 15 16 16 16 16
8 8 9 10 10 10 11 11 12 12 12 12 12 11 11 12 12 13 14 14 15 20 20 20 19 18 16 12 13 16 18 18 18 17 17 16 16 12 13 16 17 17 17
9 10 11 11 11 12 11 12 12 12 13 12 11 11 12 12 13 14 14 15 18 20 19 18 19 14 18 12 13 16 17 19 17 18 17 13 14 13 13 17 18 18 18
11 11 11 11 11 12 12 13 13 13 12 12 11 12 12 13 13 14 15 18 18 17 19 19 19 19 17 17 12 13 17 17 17 17 18 17 14 14 14 14 17 17 16
11 10 12 12 12 12 12 13 13 13 12 12 12 12 12 12 13 14 15 15 16 19 20 20 20 19 19 14 13 13 14 15 17 18 18 17 14 14 14 15 14 13 15
11 11 11 13 13 13 13 14 13 12 12 12 12 12 12 13 13 15 17 18 19 20 20 20 21 20 17 18 13 13 14 14 17 17 16 14 14 15 16 15 13 15 18
11 12 13 12 13 13 13 13 12 11 12 12 12 12 13 14 14 16 16 18 20 21 20 20 20 20 18 18 18 17 18 15 16 15 18 16 16 15 16 17 17 17 18
11 12 12 12 12 13 13 13 11 11 12 12 13 13 13 13 17 17 18 18 19 19 20 20 19 20 20 18 16 16 17 18 16 16 19 20 20 19 19 18 18 18 18
11 12 12 12 13 12 12 12 11 11 12 12 13 13 14 16 17 19 19 15 15 14 13 14 17 17 15 15 14 13 13 13 13 18 19 21 21 20 19 19 19 18 17

GFSMW_con_lsi_081.txt.gz
Lid_Strength_Index
7 9 9 9 9 9 5 3 2 1 1 1 2 2 2 1 1 0 0 1 1 2 1 1 1 2 2 2 2 2 2 2 2 3 2 1 1 1 1 0 1 2 2
8 8 8 8 9 9 8 8 4 4 2 2 2 1 1 1 1 1 0 -0 -0 1 2 2 2 2 2 2 2 2 2 2 2 2 3 5 2 1 1 1 2 2 3
8 9 9 8 7 7 7 8 9 9 9 8 7 6 3 2 2 1 1 1 1 1 0 0 1 2 2 2 2 2 2 2 2 2 3 5 6 4 2 3 5 5 3
9 9 9 8 8 7 7 7 7 7 7 6 6 6 4 2 2 3 5 5 4 3 2 1 1 1 1 1 1 2 1 2 2 2 2 1 3 5 6 3 4 4 5
8 9 9 8 7 7 7 7 6 5 5 6 6 6 6 5 5 5 5 4 3 3 3 2 1 0 1 1 1 1 2 2 1 2 2 2 2 2 4 6 3 3 3
8 8 8 7 7 7 7 7 7 7 6 5 6 6 6 6 6 5 5 5 4 4 5 4 3 1 1 2 2 2 2 2 2 1 1 2 3 3 3 4 4 3 2
9 9 8 7 8 8 7 7 7 7 7 7 7 7 7 6 6 6 6 6 6 6 6 5 5 4 4 3 2 2 2 2 2 1 2 1 2 2 2 3 3 4 3
10 9 8 7 7 7 7 7 7 7 7 7 7 7 8 8 8 8 8 9 8 8 8 8 7 8 6 4 3 3 4 3 4 4 4 3 4 3 3 2 3 4 5
9 8 7 8 8 8 8 7 8 8 8 8 9 10 10 10 10 10 10 10 10 9 9 10 9 8 7 6 5 4 4 4 4 4 4 5 6 5 6 5 4 4 6
8 7 7 8 8 8 8 8 8 8 9 9 10 11 11 11 11 11 11 12 11 11 11 10 9 9 9 8 7 6 5 5 5 5 6 6 7 7 6 6 5 5 5
7 7 7 7 8 8 9 9 9 9 10 10 10 11 11 12 12 12 12 12 12 11 11 10 10 10 10 10 8 7 7 7 7 7 8 8 7 8 8 7 7 8 8
7 7 7 8 8 8 9 9 9 10 10 10 11 11 11 12 12 12 12 11 11 11 11 11 11 11 11 11 9 9 9 9 9 9 9 9 9 10 10 10 10 10 10
7 8 8 8 8 9 9 9 9 9 10 11 11 12 12 12 12 12 11 11 11 11 12 12 12 12 12 11 11 10 10 10 10 10 10 10 10 10 10 11 10 10 10
7 8 8 8 8 9 9 9 9 10 10 11 11 11 12 11 11 11 11 10 11 11 12 12 12 12 12 12 11 11 11 11 11 10 10 11 11 11 12 12 12 11 11
8 8 8 8 8 9 9 9 9 10 10 11 11 11 10 10 10 10 10 10 10 11 11 11 11 12 12 12 11 11 11 12 12 12 11 10 10 10 10 11 12 12 12
7 7 8 8 8 9 9 10 10 11 11 11 11 11 10 10 11 11 11 12 11 11 11 11 11 11 10 10 10 12 13 13 13 14 14 13 13 11 10 10 10 11 13
8 8 8 8 8 9 9 10 10 11 11 11 11 11 11 11 11 12 12 12 12 12 13 12 11 11 11 11 11 13 15 15 15 15 14 14 13 13 13 12 12 11 11
8 8 8 9 9 9 9 10 10 11 11 11 11 11 11 11 12 12 12 13 13 13 13 14 14 13 12 12 12 14 16 16 16 15 14 13 13 13 14 14 14 14 13
7 7 7 8 9 9 10 10 11 11 11 12 11 11 10 11 12 12 13 14 14 15 15 15 15 14 13 12 13 15 16 16 15 15 14 14 13 12 13 15 15 15 15
8 8 9 9 9 10 10 11 11 11 11 11 11 10 11 12 12 13 14 14 15 16 15 15 15 14 14 13 13 15 16 16 16 15 15 13 13 13 13 15 16 16 16
9 10 9 10 10 10 10 11 11 11 11 10 11 11 11 12 13 14 14 15 16 16 16 16 16 16 15 14 13 14 16 16 16 16 16 15 14 14 13 14 15 15 14
10 10 10 11 11 10 10 11 12 11 11 11 11 11 12 12 13 14 14 15 15 16 17 17 17 16 16 14 13 12 14 14 15 16 16 15 14 14 14 14 14 13 15
11 10 11 11 11 11 11 12 12 11 11 12 12 12 12 12 13 14 14 15 16 16 17 17 18 17 16 16 13 12 13 13 15 15 15 14 14 14 15 14 13 14 15
10 10 11 12 12 12 12 11 12 11 12 12 12 12 12 13 13 14 14 16 17 17 18 18 18 18 17 17 16 15 14 14 14 15 15 15 15 15 15 15 15 15 16
10 11 11 11 11 12 11 11 11 11 12 12 12 12 13 13 14 14 15 15 16 16 17 17 17 18 18 17 15 15 16 15 15 15 16 17 18 17 17 16 16 16 16
10 11 11 11 11 12 11 12 11 11 11 12 13 13 13 13 14 14 15 13 13 13 13 13 16 16 14 14 13 13 13 13 13 16 17 17 18 18 17 17 17 16 16

GFSMW_con_lsi_084.txt.gz
Lid_Strength_Index
4 4 6 6 3 1 1 1 1 0 0 1 1 1 1 0 -0 -1 -1 -1 -1 -1 -1 -1 -1 -1 -0 0 -0 0 1 1 0 1 1 1 -0 -0 -0 -1 -1 -1 -1
4 4 6 6 5 3 2 1 1 1 0 0 0 0 0 0 -0 -1 -1 -1 -1 -1 -1 -1 -0 -0 -0 -0 0 0 1 1 0 2 2 4 2 1 0 -0 -0 -0 -1
4 4 5 6 5 5 4 4 2 1 0 0 0 1 0 -0 0 0 -0 -0 -0 -1 -1 -1 -0 -0 -0 0 0 0 1 2 1 0 2 5 5 3 1 0 0 0 1
4 4 5 6 6 5 4 4 5 5 6 5 3 1 2 2 1 0 1 2 3 2 2 2 1 0 1 1 0 0 1 1 2 1 1 1 2 5 5 1 0 1 1
4 6 5 5 5 4 4 4 4 4 5 6 5 4 4 3 3 3 3 3 1 2 2 1 -0 -0 -0 -0 0 0 1 1 1 2 2 2 2 2 4 5 3 1 -0
4 5 4 5 5 4 5 5 5 4 4 4 4 4 4 5 4 4 3 3 2 2 2 2 1 0 -0 -0 -0 1 0 1 1 1 1 2 3 3 3 4 3 3 1
5 5 5 6 5 5 5 5 5 5 4 4 4 4 4 4 4 4 3 3 3 3 4 4 3 2 2 1 -0 -0 0 1 1 1 2 1 1 2 2 3 4 4 2
7 6 5 5 5 5 5 5 5 5 5 5 5 5 5 5 5 5 5 6 6 6 6 5 5 4 4 2 2 1 2 2 2 2 3 4 4 3 3 3 3 4 3
7 8 7 6 5 5 5 5 5 5 5 5 6 6 6 6 7 7 7 7 7 8 7 7 7 6 6 5 4 2 2 3 4 4 3 4 4 5 5 4 3 3 6
6 7 7 6 6 6 5 5 5 5 5 6 6 7 7 7 7 7 8 8 8 8 8 8 8 7 7 6 5 3 4 4 5 4 4 4 5 5 3 3 3 3 4
6 6 5 5 5 5 5 5 5 6 6 6 7 7 8 8 8 8 8 9 9 9 9 9 9 8 8 7 5 5 5 6 6 5 5 6 5 5 5 4 5 5 5
5 5 4 4 5 5 5 4 5 6 6 6 7 8 8 8 8 9 9 9 9 9 9 9 9 8 8 7 6 7 7 7 7 7 7 7 7 7 7 7 7 7 7
5 4 4 4 5 5 4 5 5 5 6 7 7 8 8 8 8 9 9 9 10 10 10 9 9 8 8 8 9 9 9 9 9 8 7 8 8 8 8 8 8 8 8
5 5 5 5 5 5 5 5 5 5 6 6 7 7 8 8 8 9 9 9 10 10 10 10 10 10 10 10 10 10 10 10 9 9 9 9 9 9 9 9 9 9 8
5 5 5 4 5 5 5 6 6 6 6 7 7 7 7 7 8 8 9 9 10 10 10 10 10 10 11 11 10 10 10 11 10 10 9 9 9 10 10 9 10 9 9
5 5 4 4 5 5 5 6 6 6 6 7 7 7 8 8 8 9 9 10 10 10 10 10 10 10 10 10 11 11 11 11 12 12 12 11 11 10 10 10 10 11 11
5 5 4 4 4 4 5 5 6 6 7 7 8 8 8 9 9 10 10 11 11 11 11 11 11 11 11 11 11 11 12 13 13 12 12 13 13 12 12 12 11 11 11
6 5 4 4 4 4 5 5 6 7 7 8 8 8 9 9 10 11 11 11 11 12 12 12 11 11 11 11 12 13 13 13 13 13 12 12 12 12 13 13 13 12 12
5 4 4 4 4 5 6 7 8 8 8 8 8 9 9 9 10 11 11 12 13 13 13 12 12 12 12 12 13 14 13 14 14 13 13 12 12 12 14 13 14 14 13
5 5 4 5 5 5 6 7 8 8 9 9 9 8 8 9 10 11 13 13 13 13 12 13 12 12 12 12 13 14 14 14 14 14 12 13 12 13 13 14 14 15 14
6 5 5 5 5 6 7 8 8 9 8 8 8 8 9 9 11 12 13 14 14 13 13 13 13 13 12 12 13 14 14 15 15 15 14 14 13 13 13 14 13 13 13
7 6 6 6 7 7 7 8 8 7 8 9 9 9 9 10 11 12 13 14 14 14 14 15 14 14 13 13 12 13 14 14 15 15 14 14 13 14 13 13 14 12 13
7 7 7 8 8 7 7 8 8 8 9 9 9 10 10 11 12 13 14 14 14 14 15 15 15 15 15 14 12 12 12 12 14 14 14 14 14 13 14 14 13 12 13
7 7 7 8 8 8 8 7 8 8 9 9 10 10 11 12 12 12 13 13 13 14 14 15 15 15 15 15 14 12 12 12 12 14 13 14 14 14 14 14 13 13 14
8 8 8 8 8 8 9 8 9 9 9 9 10 11 11 12 13 13 13 13 12 13 14 14 15 16 16 15 14 13 13 13 13 14 14 15 16 16 15 15 15 14 14
9 9 9 10 9 10 9 9 9 9 9 10 11 11 12 12 13 13 14 11 12 12 12 13 14 14 13 14 13 12 12 13 13 14 15 15 15 16 16 16 16 15 15

GFSMW_con_lsi_087.txt.gz
Lid_Strength_Index
3 2 4 5 2 1 1 1 1 1 0 1 1 1 1 0 0 -0 -1 -1 -1 -1 -1 -0 -0 -0 0 0 0 0 1 1 0 1 2 1 0 0 0 -0 -0 -1 -1
3 3 4 5 5 2 1 1 1 1 1 0 1 1 0 0 -0 -1 -0 -1 -1 -1 -1 -0 -0 -0 0 0 0 1 1 1 0 2 3 5 3 1 0 -0 0 -0 -1
4 3 3 4 5 4 2 1 1 1 1 0 0 1 0 0 1 0 0 -0 -1 -1 -1 -0 0 -0 0 1 0 1 1 2 1 1 3 5 6 3 1 1 0 0 -0
3 3 3 4 5 4 3 3 1 1 0 2 1 1 2 3 1 1 0 0 1 1 1 1 1 1 0 0 0 0 1 1 3 1 1 1 2 5 5 2 1 0 0
4 3 3 4 4 3 3 3 4 3 3 3 1 1 2 1 3 4 2 2 1 2 2 1 0 -0 -0 -0 0 0 1 1 2 2 2 2 2 2 4 5 3 1 1
3 3 3 4 4 3 3 3 4 4 4 4 4 4 5 5 4 4 4 4 3 3 3 3 2 1 0 -0 -0 0 0 1 1 1 1 2 3 3 3 4 4 3 2
3 3 4 4 4 4 4 4 4 4 4 4 4 4 4 4 4 4 4 4 4 4 4 4 3 2 1 1 1 1 0 0 1 1 1 1 1 1 2 3 4 4 2
3 4 3 3 4 4 4 5 4 4 4 4 4 4 4 4 4 4 5 5 5 5 5 5 4 4 4 4 2 1 1 1 1 1 2 3 4 3 3 3 3 5 4
5 5 5 5 4 4 4 5 4 4 4 4 5 5 5 5 5 6 6 6 7 7 7 6 6 6 6 5 4 2 2 3 3 4 3 4 5 4 4 3 3 3 6
5 6 6 6 5 4 4 4 4 5 4 5 5 6 6 6 7 7 7 7 7 8 8 8 7 7 7 6 5 4 4 4 4 4 4 5 5 5 4 3 3 3 4
5 5 5 6 5 5 5 5 5 5 5 6 6 6 7 7 7 7 8 8 8 8 8 8 8 8 8 7 6 5 5 5 5 4 5 5 5 5 5 5 4 5 5
4 4 4 4 4 4 5 5 5 6 6 6 6 7 7 7 7 7 8 8 8 8 9 8 8 8 8 8 7 7 7 6 6 7 7 7 7 7 7 6 7 7 7
4 4 4 4 4 4 3 3 4 4 5 5 5 6 7 7 7 7 8 8 8 9 9 9 9 9 9 9 8 8 7 7 7 8 8 8 8 8 7 7 8 7 7
4 4 4 4 4 3 4 4 4 4 5 5 5 5 5 6 6 7 7 8 8 8 9 9 9 10 10 10 10 10 9 9 9 9 9 9 9 10 9 9 9 8 8
4 4 4 3 3 4 4 4 4 5 5 6 6 6 6 6 6 6 7 7 8 8 8 9 9 10 10 10 10 9 9 10 10 10 9 10 10 10 10 9 9 9 9
5 4 4 3 3 4 4 4 5 5 5 6 6 6 6 6 7 7 7 8 9 9 9 10 10 10 10 9 9 10 11 11 12 13 12 10 10 10 10 10 10 11 11
4 4 4 3 3 3 4 5 5 5 6 6 6 6 6 7 7 8 8 9 10 10 10 10 10 10 10 10 10 10 12 12 13 13 12 13 12 12 12 11 11 11 11
4 4 4 3 3 3 3 4 4 5 6 6 6 6 6 7 8 8 9 10 10 11 11 11 11 11 11 11 11 12 13 13 13 13 12 12 13 13 13 13 13 12 12
4 4 4 3 2 3 3 4 5 6 7 7 7 7 7 7 9 10 10 11 13 13 13 12 12 11 12 12 12 13 13 14 14 13 13 12 12 13 14 13 14 14 13
4 4 4 3 3 3 4 5 6 7 7 7 7 7 7 8 9 10 11 12 13 13 12 12 11 11 12 12 12 13 14 14 14 14 13 13 13 12 13 14 14 15 15
5 5 4 3 3 4 4 6 6 6 6 7 7 8 8 8 9 11 12 12 13 13 12 13 13 13 12 12 12 13 15 15 15 15 15 14 13 13 12 13 14 14 14
6 5 4 4 4 5 5 6 6 6 7 7 7 8 8 9 10 11 12 13 13 13 13 13 14 14 13 13 12 13 13 14 15 15 15 15 13 13 13 13 13 13 14
6 5 5 6 6 6 5 6 6 7 7 8 8 8 9 10 10 12 13 14 14 14 13 14 15 15 14 14 12 11 12 13 14 15 14 14 13 13 13 13 13 13 14
6 6 6 6 7 6 6 6 6 7 8 8 9 9 10 11 11 12 13 14 14 13 13 15 15 15 15 15 14 13 12 12 13 14 14 13 13 13 14 14 14 14 14
6 6 6 6 6 6 7 6 7 7 8 8 9 9 10 11 12 13 13 13 12 12 13 14 14 15 16 15 13 13 13 13 13 13 14 15 15 16 16 15 15 15 15
7 7 7 7 7 7 8 8 8 8 8 9 10 10 11 11 12 13 13 11 11 10 11 11 13 14 13 13 13 12 12 12 12 14 15 15 15 16 16 16 16 16 15

GFSMW_con_lsi_090.txt.gz
Lid_Strength_Index
4 4 5 6 5 2 2 1 1 1 1 2 2 2 2 1 1 0 0 0 0 0 0 1 1 1 1 1 1 1 2 2 2 2 3 2 2 2 2 1 2 1 1
5 5 6 6 3 3 2 2 2 1 1 1 1 1 1 1 1 1 1 0 1 0 1 1 1 0 1 1 2 2 2 2 2 3 4 5 3 3 2 2 2 3 2
6 5 6 6 6 3 3 3 2 2 1 1 2 2 2 1 1 1 1 1 1 0 1 1 1 1 1 2 2 2 2 3 2 1 3 6 7 4 3 2 3 3 4
5 5 5 6 6 6 3 2 2 2 2 2 3 2 2 3 2 2 1 3 3 3 3 2 2 1 1 1 1 1 2 1 3 2 1 2 3 5 6 3 3 3 3
5 5 5 6 6 4 5 5 4 3 3 4 3 2 2 3 4 4 4 4 4 4 3 3 3 2 1 0 0 1 1 1 2 2 3 3 2 2 4 6 4 3 4
5 4 5 6 6 5 5 5 5 5 6 5 5 4 3 7 6 6 6 5 4 5 5 4 4 3 3 3 2 2 1 1 1 2 2 2 3 4 4 5 4 5 4
5 5 6 6 6 5 5 6 6 6 5 6 7 6 7 7 7 7 6 6 6 5 6 5 5 5 5 4 3 3 2 1 1 1 1 2 3 3 4 3 5 5 4
7 5 5 6 6 5 5 6 6 5 5 5 5 5 5 6 5 6 6 7 7 7 7 7 7 7 7 6 5 3 2 3 3 2 2 3 4 4 4 3 4 5 5
8 6 5 5 5 5 5 5 5 6 5 5 6 6 7 6 7 7 7 8 8 8 8 8 8 8 8 7 6 6 3 4 5 5 4 5 5 5 5 4 4 6 9
8 7 6 6 6 5 4 5 5 5 6 6 6 7 7 8 8 8 9 9 9 9 9 9 9 9 9 8 8 7 4 5 5 5 5 6 6 5 4 5 6 6 7
7 7 7 6 6 6 5 5 5 6 6 6 7 8 8 8 9 9 10 9 10 10 10 10 10 9 9 9 9 7 7 7 6 6 6 7 6 5 6 6 6 6 6
6 6 6 6 6 6 6 5 6 6 7 7 7 8 8 9 9 10 10 10 10 11 11 10 10 10 10 10 9 9 8 9 9 9 9 8 7 9 9 9 10 10 9
6 6 6 6 6 6 5 5 5 7 7 8 8 9 9 9 10 10 10 10 10 11 11 10 10 10 10 10 10 10 10 10 10 10 9 8 9 10 11 11 11 11 9
6 6 6 6 6 5 5 5 5 5 6 6 7 8 9 9 8 8 9 9 9 10 10 11 11 11 11 10 10 9 10 10 10 10 10 11 10 11 12 11 12 11 10
7 6 6 6 6 6 5 6 6 7 7 7 7 7 7 7 7 8 8 8 9 9 9 9 10 10 10 10 10 10 10 10 11 10 10 11 10 9 10 11 12 11 12
7 7 6 5 6 6 6 6 6 7 7 7 8 7 7 8 8 8 9 9 9 10 10 10 9 10 9 9 9 10 11 11 11 12 12 11 11 11 10 10 10 11 13
7 6 6 5 5 6 6 7 7 7 7 8 7 7 7 8 8 9 9 9 11 11 11 10 10 10 10 9 9 10 12 12 13 13 14 13 13 13 14 11 11 11 11
7 7 6 5 5 5 5 6 6 7 8 8 8 8 8 9 9 10 10 10 11 11 10 11 12 11 10 10 10 11 13 14 14 14 14 15 15 14 14 14 15 15 14
7 6 6 6 5 5 5 6 7 7 8 8 8 8 9 9 10 11 10 11 12 13 13 12 12 12 12 11 11 13 15 15 16 14 14 14 14 13 13 14 15 16 15
7 7 6 5 5 5 5 7 8 8 9 8 9 9 9 10 11 10 11 12 13 13 12 12 12 11 14 11 12 13 15 16 16 15 14 12 13 12 13 16 16 16 16
7 7 6 6 6 6 6 8 8 9 8 8 8 9 9 10 11 11 12 13 13 13 12 13 13 14 13 13 11 12 16 16 16 16 16 15 13 13 13 13 16 15 15
7 6 6 7 7 6 7 8 9 8 8 9 9 9 10 10 10 11 12 12 13 13 13 13 15 15 14 12 11 12 13 14 16 17 17 16 13 13 12 14 12 12 13
7 7 8 8 8 7 7 8 9 9 9 9 10 10 10 10 10 11 13 13 13 14 14 14 16 16 15 15 11 12 12 13 16 16 15 13 13 12 13 12 12 12 15
8 7 8 9 9 8 7 8 8 8 9 10 10 10 10 10 11 12 12 13 14 14 14 15 16 16 16 16 15 14 13 12 13 14 16 15 14 14 14 14 14 15 15
8 8 8 8 9 8 8 8 8 8 9 9 10 11 10 11 12 12 13 13 13 12 13 14 16 16 17 16 14 14 14 15 14 14 16 16 17 17 17 17 17 16 16
8 9 9 9 9 9 9 9 8 7 8 9 10 11 11 11 12 13 13 11 11 10 10 10 14 15 13 12 12 12 12 11 11 15 17 18 17 18 18 17 17 17 15

GFSMW_con_lsi_093.txt.gz
Lid_Strength_Index
5 4 4 7 4 3 2 1 1 1 1 1 1 2 2 1 1 0 0 0 0 0 1 1 1 1 1 1 1 1 1 2 2 3 3 3 2 2 2 2 2 2 2
6 6 6 6 6 3 2 2 1 1 1 1 1 2 1 2 2 1 1 0 1 0 0 1 1 1 1 1 2 2 2 2 2 3 3 5 4 4 3 3 3 4 4
7 6 7 7 6 3 3 2 2 2 1 1 2 3 2 2 2 1 1 1 0 1 1 1 1 1 1 1 1 1 1 3 2 1 3 5 7 5 3 3 4 5 5
7 5 8 8 7 4 4 3 2 2 2 2 2 3 3 3 2 1 1 1 1 1 1 2 2 1 1 1 1 1 1 1 3 2 1 2 3 5 6 4 4 4 5
6 5 6 7 7 6 5 5 4 3 3 2 2 2 3 2 3 3 3 4 4 4 4 4 4 4 4 2 2 1 1 1 2 2 2 2 3 4 5 6 5 5 5
6 6 5 6 7 5 5 7 6 5 5 5 4 3 3 5 5 5 6 5 6 5 4 4 5 4 3 4 3 3 3 3 2 2 3 3 4 4 4 5 6 6 6
7 6 6 6 7 6 6 6 6 7 7 6 6 6 5 6 6 6 7 7 6 6 6 6 6 6 5 5 4 4 4 4 4 4 3 3 3 3 4 4 5 6 6
8 6 5 6 7 6 6 6 6 7 7 8 7 6 6 6 6 6 7 6 6 7 7 7 7 7 7 7 6 5 4 4 4 4 4 3 4 4 3 4 4 6 5
8 7 6 7 7 6 6 6 6 6 6 7 6 7 7 7 7 8 8 8 9 8 8 8 8 8 8 8 7 7 6 5 5 5 5 4 5 5 5 4 5 5 7
8 7 7 7 6 6 6 6 6 5 5 6 6 7 7 8 8 8 9 9 9 9 9 9 10 9 9 9 9 8 6 6 6 5 6 6 6 7 6 6 6 5 6
8 8 7 7 6 6 6 6 5 4 6 6 7 7 8 8 9 9 9 9 9 10 10 10 10 10 10 10 10 9 8 7 7 6 6 6 6 6 7 7 6 6 6
7 8 7 6 6 6 6 6 6 5 5 6 6 7 8 9 9 9 10 9 10 11 11 11 11 11 11 11 11 10 9 9 9 9 8 8 8 8 8 8 8 8 8
7 7 7 7 6 6 6 6 6 6 7 6 7 8 8 9 10 10 10 10 10 11 11 11 11 11 11 11 11 11 11 11 10 10 10 9 10 11 12 12 12 12 10
6 7 7 7 7 6 6 6 6 6 7 7 7 8 9 9 10 10 10 10 11 11 12 11 11 11 11 11 10 10 11 11 10 10 10 9 9 11 13 13 12 11 11
7 7 7 7 7 6 6 6 6 6 7 7 8 8 7 7 8 8 8 9 9 10 9 10 10 10 10 9 9 9 9 9 10 10 10 10 10 9 10 11 12 12 12
8 7 6 7 7 7 7 6 7 7 7 7 8 8 8 8 8 9 9 10 10 10 10 10 10 10 9 8 8 9 9 10 11 12 11 11 10 10 9 9 10 11 13
8 8 7 6 6 6 6 7 7 7 8 8 8 8 8 8 9 9 10 10 11 11 11 11 10 10 9 8 8 9 11 12 12 12 12 12 12 13 13 11 11 11 11
8 7 7 7 6 6 5 6 7 7 8 8 8 8 8 9 9 10 11 11 12 12 12 11 12 11 9 8 8 10 12 13 12 13 14 14 15 15 14 15 15 15 14
7 7 7 7 6 5 5 6 7 8 8 8 8 8 9 10 10 11 12 13 13 14 13 12 11 11 11 9 9 12 14 14 15 15 14 15 15 13 12 15 15 15 15
7 8 8 7 6 6 6 7 7 8 8 9 9 9 9 10 11 12 12 12 12 13 12 12 11 11 12 10 10 13 16 17 16 16 14 12 13 12 12 15 16 17 16
8 8 8 7 7 6 6 7 8 8 8 8 9 9 9 10 12 12 12 12 13 13 12 12 12 12 13 13 11 11 16 16 16 16 16 15 11 11 13 14 16 16 15
8 7 8 8 8 7 7 8 9 9 9 9 9 10 11 10 11 12 11 12 12 12 13 13 13 13 14 11 10 11 12 14 16 17 16 15 12 12 12 14 12 12 13
8 8 8 9 8 7 7 9 9 9 9 9 10 11 11 11 11 12 12 12 13 13 13 14 14 15 15 15 11 10 11 12 16 16 15 14 12 12 13 12 12 11 16
8 8 8 9 9 8 7 8 9 9 9 10 10 11 11 11 10 11 12 12 13 13 13 14 15 15 16 16 15 13 13 12 13 14 14 14 13 13 14 14 13 15 15
9 8 8 9 9 9 9 9 9 9 9 10 10 11 10 10 11 11 12 12 12 12 13 13 14 15 17 15 14 14 14 14 13 15 16 16 16 17 17 17 16 16 15
8 9 9 9 9 9 9 9 9 9 9 9 9 10 10 11 11 12 12 10 10 10 10 10 13 14 13 12 12 11 11 11 11 14 16 17 17 17 17 17 17 17 15

GFSMW_con_lsi_096.txt.gz
Lid_Strength_Index
5 6 6 3 3 3 2 2 2 2 1 1 1 2 3 1 1 1 1 1 1 1 1 1 1 1 1 1 1 2 2 2 2 2 2 2 1 2 3 2 2 3 4
7 5 5 6 4 2 2 2 1 2 1 1 1 1 2 2 1 1 0 0 0 0 0 1 1 1 1 1 1 2 2 2 2 3 3 5 4 4 3 4 3 5 4
8 6 6 6 8 4 2 2 1 1 1 1 2 2 2 2 2 2 2 1 1 0 0 1 1 1 1 1 1 1 2 3 2 1 3 5 7 5 4 4 4 5 5
7 6 5 7 7 5 3 2 1 2 1 2 2 2 2 3 2 2 2 2 1 1 1 1 1 0 0 1 1 1 1 2 3 2 1 1 3 5 6 4 5 5 5
8 7 5 5 7 6 5 4 3 3 3 3 2 3 4 3 3 3 3 3 4 3 3 2 1 2 1 1 2 3 3 2 2 2 2 2 2 3 4 6 6 6 6
7 7 6 6 7 7 5 6 5 5 4 4 4 4 3 4 4 5 4 5 6 5 4 4 5 3 3 3 3 3 4 3 3 3 3 2 3 4 5 6 7 6 7
7 8 6 6 7 6 5 5 5 6 6 5 5 4 4 5 4 4 5 5 6 6 6 5 5 5 5 4 4 4 4 4 5 5 4 4 2 2 3 4 5 6 8
8 8 6 6 7 5 5 5 6 7 7 7 7 7 6 6 5 5 5 5 6 6 6 7 7 6 7 6 6 5 5 4 5 5 4 4 3 4 4 4 4 6 6
8 8 7 7 6 6 6 6 6 6 7 8 8 7 7 6 7 7 5 6 6 7 8 8 8 8 8 8 8 7 7 5 5 5 5 5 5 5 5 4 4 4 7
9 7 7 7 7 7 7 7 6 6 6 6 6 7 8 8 9 8 9 9 9 8 8 9 9 9 9 9 9 9 8 7 7 6 7 7 6 6 6 5 5 6 6
9 9 8 7 7 7 7 7 6 6 6 6 7 7 8 8 9 9 9 8 8 9 9 9 9 10 10 10 10 10 9 8 8 8 8 8 7 7 7 6 6 6 7
9 9 8 7 7 7 6 6 6 5 6 6 6 7 7 8 7 9 8 8 9 9 9 10 10 10 10 10 10 10 10 10 10 10 9 9 8 8 8 8 8 8 8
8 8 7 7 7 6 6 6 6 6 7 7 7 7 8 8 8 8 8 8 9 9 10 10 11 11 11 11 11 11 11 11 11 11 11 10 9 10 10 10 10 10 9
7 8 8 7 7 6 6 6 6 6 7 8 8 8 9 8 8 9 9 9 10 11 11 11 12 12 12 12 12 11 11 11 11 10 10 9 9 10 12 12 12 12 12
7 7 7 7 7 7 6 6 6 6 6 7 8 8 8 8 9 9 10 10 10 11 11 11 11 11 10 10 11 10 10 10 9 9 9 9 9 8 9 11 12 12 12
8 6 6 6 6 7 6 6 6 6 7 7 8 8 9 9 9 9 9 10 10 10 10 10 10 10 9 8 8 8 9 9 10 11 10 10 9 9 8 9 10 11 13
8 8 7 7 7 7 6 6 7 7 7 8 8 8 8 9 9 9 10 11 11 11 11 11 11 11 10 8 7 8 10 11 11 11 11 11 11 11 12 10 10 10 10
9 8 8 8 6 6 7 7 7 7 8 8 8 8 8 9 10 10 11 11 12 12 12 12 13 12 10 8 8 9 12 12 11 11 12 13 14 14 14 15 15 15 15
8 8 8 8 7 6 6 7 8 8 8 8 8 8 9 10 10 11 12 13 13 13 13 13 12 11 11 9 9 10 12 13 13 13 13 14 15 12 12 14 15 15 14
7 7 8 8 8 6 6 7 8 8 8 8 8 8 9 10 11 11 12 12 12 13 13 13 11 10 11 9 9 11 14 15 15 16 15 11 14 12 11 14 15 16 16
8 8 7 8 8 7 7 7 8 8 8 8 8 8 9 10 11 12 12 14 12 13 14 12 11 11 11 12 9 10 16 16 16 16 16 15 11 11 12 13 16 15 15
8 8 9 9 8 7 7 8 8 8 8 8 9 9 10 10 11 12 13 12 12 12 13 12 12 12 12 11 10 10 12 13 16 16 15 15 12 11 12 13 13 12 13
9 9 9 9 9 8 8 9 9 8 9 9 10 10 11 11 12 13 13 12 12 12 12 13 13 13 13 14 10 10 10 11 15 15 15 13 12 12 12 12 12 11 16
8 8 9 9 9 9 8 8 8 8 9 10 10 11 11 12 12 12 11 12 12 12 13 13 13 14 14 14 14 13 13 11 13 13 14 13 13 12 13 14 13 15 16
9 9 9 9 10 9 9 9 9 9 9 10 11 11 11 11 11 11 11 11 11 11 12 12 13 14 14 14 13 13 14 14 13 14 16 16 16 16 16 16 16 16 15
9 9 10 9 10 10 9 9 9 9 10 10 10 10 10 10 11 11 12 9 10 10 9 9 11 13 11 11 11 11 11 11 10 13 16 17 16 17 16 17 17 17 15

GFSMW_con_lsi_099.txt.gz
Lid_Strength_Index
6 6 6 4 3 2 2 2 2 2 1 2 2 2 2 2 1 1 0 1 1 1 1 2 2 2 2 2 2 1 2 2 2 2 2 3 2 2 4 4 2 3 4
7 6 6 6 4 3 3 2 2 2 1 1 2 2 2 2 2 1 1 0 0 1 1 1 1 1 1 1 1 2 2 2 2 3 3 5 4 4 4 4 4 5 5
7 7 6 6 5 4 3 2 2 2 2 3 3 3 3 3 3 2 2 1 1 1 1 1 1 1 1 2 1 1 2 3 2 2 3 6 6 6 4 5 5 5 6
8 7 6 6 6 4 3 2 2 2 2 2 3 3 2 3 2 3 2 2 2 2 1 1 1 1 1 1 1 1 1 2 3 2 2 2 2 5 6 5 5 5 6
8 8 7 5 6 6 4 4 3 3 3 3 2 3 3 3 3 4 3 3 3 2 2 2 3 2 2 1 1 1 2 2 3 3 3 3 3 3 4 6 6 6 7
8 8 7 6 6 7 3 4 4 4 4 4 3 3 3 5 5 5 4 5 5 4 4 3 3 3 3 2 3 3 4 4 3 3 3 3 4 4 5 6 6 6 7
8 8 8 7 7 8 6 3 4 4 4 4 4 4 5 5 5 5 5 5 6 5 4 5 5 5 4 4 4 4 4 3 4 4 4 4 4 3 3 3 4 7 8
10 9 8 7 7 7 7 5 4 4 5 6 5 5 5 5 6 5 5 5 6 6 6 6 6 7 6 6 6 6 5 5 4 5 5 5 4 3 3 3 4 6 7
10 9 8 7 6 7 6 5 4 5 7 7 7 8 7 7 7 7 7 6 6 6 6 7 7 8 8 8 8 8 7 6 5 5 5 6 6 5 5 4 4 4 7
9 8 8 7 7 7 6 6 5 6 7 8 7 7 7 7 8 8 8 8 8 8 9 9 8 8 9 8 8 8 8 7 6 6 6 7 7 7 6 6 5 6 6
9 9 8 7 7 7 6 6 6 7 7 7 7 8 7 8 9 10 10 10 10 9 9 9 9 9 9 9 9 10 9 8 7 7 7 7 8 8 7 7 7 7 6
9 9 8 8 7 7 7 7 7 7 7 7 7 8 8 8 8 9 9 8 9 9 10 9 9 9 9 9 9 10 10 10 10 9 9 9 9 9 9 9 8 8 8
9 9 9 8 7 8 8 7 7 7 7 7 7 8 8 9 9 9 9 8 9 9 8 9 9 9 10 11 11 11 11 11 11 11 11 10 10 9 10 10 10 9 9
8 9 9 8 8 7 7 7 7 6 7 7 8 9 9 9 9 8 9 9 9 9 10 10 10 11 11 12 12 11 12 12 11 10 10 10 9 9 10 10 10 10 10
8 8 8 8 8 7 7 7 6 6 7 7 8 8 8 9 9 9 10 10 10 10 11 11 11 12 11 11 12 12 11 11 10 10 9 9 8 8 8 9 10 11 12
9 8 7 7 7 7 7 6 7 7 7 7 7 7 8 9 9 10 11 11 11 11 10 11 10 11 10 8 8 8 10 9 9 10 10 9 9 8 7 8 8 9 12
8 8 8 7 7 7 6 6 6 7 7 7 7 8 8 9 10 10 11 11 12 11 11 11 11 11 11 8 7 7 10 10 11 11 11 11 10 11 11 10 9 9 9
9 9 9 9 8 7 7 6 6 7 7 7 8 8 8 9 10 10 11 12 12 12 12 12 13 12 11 8 7 8 12 12 11 11 11 12 12 12 13 13 13 14 14
8 8 8 8 8 8 7 7 8 8 8 8 8 8 9 9 10 11 11 13 13 13 13 13 12 13 12 8 8 10 12 12 12 12 13 13 13 12 11 14 15 15 14
8 8 8 8 8 8 7 8 8 8 8 8 8 8 9 9 10 11 12 11 12 13 12 12 13 11 12 9 9 10 12 13 14 14 14 11 13 12 11 15 16 16 15
9 8 9 8 8 7 7 8 8 8 7 8 8 9 9 9 10 11 11 12 12 12 12 12 13 12 11 11 9 8 14 15 16 16 16 15 11 11 11 12 15 15 15
9 8 9 9 9 8 7 9 9 8 8 8 9 9 10 9 11 11 12 13 13 12 12 12 13 12 12 10 10 8 10 13 16 16 17 16 12 10 11 13 13 12 13
9 9 9 10 10 9 8 9 10 9 8 9 9 10 10 11 11 12 13 13 12 12 12 13 13 13 12 12 10 9 9 10 15 16 15 13 12 11 12 11 12 11 15
9 9 10 10 10 10 9 9 9 7 8 9 10 11 11 11 12 12 12 13 12 12 12 13 13 13 13 13 13 13 11 10 11 12 15 13 13 12 13 13 13 14 15
9 9 10 10 10 10 10 9 8 7 8 9 10 10 10 11 12 12 12 12 11 10 11 12 12 13 13 13 12 12 13 13 12 14 16 16 15 16 15 15 15 15 15
9 9 10 10 10 10 10 10 9 9 9 10 11 11 11 11 10 11 11 9 9 9 9 9 11 12 10 10 10 10 10 10 10 14 16 17 16 16 16 16 16 16 15

GFSMW_con_lsi_102.txt.gz
Lid_Strength_Index
7 4 3 3 2 2 2 1 1 1 1 1 2 1 2 2 2 2 1 1 2 2 2 2 2 2 3 2 3 2 2 2 2 3 3 3 3 4 4 4 3 3 4
8 7 6 4 3 2 2 2 1 1 1 1 1 1 1 1 1 2 2 1 1 1 1 1 1 2 2 2 2 2 2 2 2 4 4 5 4 4 4 4 4 5 5
8 7 7 6 4 3 3 2 1 1 1 1 1 2 2 2 2 2 2 1 1 1 1 1 1 1 1 2 1 2 2 3 2 2 3 6 7 6 5 5 5 6 6
8 8 7 6 6 5 3 2 2 2 2 2 2 2 2 3 2 3 3 2 2 2 1 1 2 1 1 2 1 1 2 2 3 2 1 2 4 5 6 5 6 6 6
8 8 7 6 5 5 3 2 2 3 2 3 2 2 3 3 3 3 3 3 3 3 2 2 2 2 1 2 1 1 2 1 2 2 3 3 4 4 5 7 7 6 6
9 8 7 7 6 6 4 2 2 3 3 3 3 3 3 4 4 5 4 4 4 4 4 3 3 2 3 3 3 3 3 3 3 3 3 3 4 5 5 6 7 7 7
9 9 8 8 7 7 7 3 3 3 4 4 3 3 3 3 4 5 4 5 5 5 5 4 4 4 4 4 4 4 4 4 4 4 4 4 4 4 3 4 5 6 8
11 10 8 8 7 7 8 6 3 3 4 4 3 3 3 3 4 5 5 4 5 5 6 6 7 6 6 6 6 6 5 4 5 5 4 5 4 4 3 3 5 6 7
10 10 9 9 8 8 7 7 6 4 4 5 4 4 5 5 5 6 6 6 7 6 7 7 7 7 8 8 8 7 7 8 7 5 6 6 6 6 5 6 5 5 7
10 9 9 10 9 9 8 7 6 5 5 7 7 7 7 7 7 7 7 8 8 8 8 8 8 9 9 9 9 9 8 7 7 6 7 7 7 7 7 6 6 5 6
10 9 9 9 9 8 7 7 6 6 6 7 8 7 7 7 7 8 8 8 8 9 9 9 10 10 10 10 9 9 8 8 8 7 7 7 7 8 7 7 7 7 7
11 10 9 8 8 8 8 7 6 6 6 7 7 8 8 8 8 9 10 10 11 10 10 10 10 9 9 10 10 10 9 10 9 10 9 9 8 9 9 8 8 9 9
10 9 9 9 8 8 8 7 7 7 7 8 8 8 8 9 9 9 9 9 9 9 9 9 9 9 9 10 10 10 10 11 11 11 11 10 10 11 10 9 10 10 9
9 9 9 9 9 8 8 8 8 7 8 8 8 8 9 9 9 10 9 9 9 10 10 10 10 9 10 10 11 11 11 11 11 11 11 11 10 10 10 9 9 9 9
9 9 8 9 9 8 8 8 8 8 8 8 8 8 8 9 9 9 9 10 10 10 10 10 11 11 11 10 11 11 11 11 12 12 11 10 8 7 7 8 9 9 10
9 9 9 9 9 8 8 7 7 7 7 8 8 8 8 8 9 10 11 11 11 11 11 11 11 11 10 8 8 8 11 10 10 10 10 9 9 9 7 7 7 8 10
8 9 9 9 8 8 7 7 7 7 8 8 8 8 8 9 9 10 11 11 12 12 12 12 12 12 11 8 7 7 10 10 10 10 10 11 10 11 11 10 10 9 9
8 9 9 9 8 8 7 7 7 7 7 7 7 8 8 9 10 11 11 12 12 12 12 12 13 13 11 8 7 8 12 11 11 10 10 11 12 12 13 13 13 13 13
9 8 8 8 8 8 8 8 8 8 8 7 7 7 8 9 10 10 11 12 12 13 13 12 12 13 12 9 8 9 11 12 12 12 12 12 12 12 11 14 14 14 13
9 9 9 9 9 8 8 8 9 9 8 8 8 8 8 9 10 11 12 11 12 12 12 11 12 11 13 9 8 9 12 12 13 13 13 11 12 12 10 14 15 16 16
9 8 9 9 9 8 8 9 9 9 8 8 9 9 9 10 11 12 11 12 12 12 11 11 13 13 12 12 9 8 12 13 14 14 15 15 11 10 11 12 16 15 15
9 9 9 10 9 9 8 9 9 9 8 8 8 9 9 9 10 11 11 12 12 12 13 12 11 13 13 10 9 9 9 12 16 16 16 16 12 11 10 12 12 12 13
9 9 10 10 10 10 9 9 9 9 9 9 9 10 10 11 11 11 12 12 13 13 13 12 12 14 13 12 10 9 9 8 14 15 14 12 12 11 11 10 11 12 15
9 9 10 10 10 10 10 9 9 9 9 9 9 10 10 11 11 12 12 12 13 13 12 12 13 13 13 13 13 12 11 9 10 11 12 13 13 12 13 13 13 15 16
9 9 10 10 11 10 10 10 9 9 9 9 9 10 10 11 11 11 11 12 11 10 11 12 13 14 13 12 11 12 13 12 11 13 15 16 16 16 15 15 15 16 15
9 9 10 10 10 10 10 10 9 8 8 9 10 10 9 10 11 11 11 9 9 8 8 8 10 11 10 9 9 9 9 10 10 14 16 17 17 16 16 15 15 16 15

GFSMW_con_lsi_105.txt.gz
Lid_Strength_Index
5 3 3 2 2 1 1 1 1 1 1 1 1 1 1 0 0 -0 -1 -1 -0 -0 -0 -0 0 0 1 1 1 1 1 1 0 1 1 1 0 1 1 0 -1 -0 0
8 5 4 3 2 2 2 1 1 1 1 1 1 1 1 0 0 -0 -0 -0 -0 0 0 0 0 1 1 1 1 1 1 1 1 2 2 4 2 2 2 2 2 2 1
8 8 6 4 3 3 2 2 1 1 1 0 1 0 0 1 1 1 1 1 0 0 0 1 0 1 1 1 0 0 1 2 1 1 2 5 5 3 2 3 3 3 3
8 8 7 6 5 3 2 1 1 1 1 0 1 2 2 3 2 1 0 0 1 0 0 0 0 0 0 1 1 1 1 1 3 1 1 1 2 4 5 2 3 3 4
7 6 7 6 5 5 2 1 1 1 1 1 1 1 2 1 1 1 1 1 1 1 1 1 0 1 1 1 1 1 1 1 1 2 2 2 1 1 4 5 4 4 4
7 6 6 6 5 4 4 2 2 2 1 1 1 1 2 2 2 2 2 2 2 2 2 2 1 1 2 2 2 2 2 2 2 1 1 2 3 3 3 4 3 3 5
7 7 7 6 6 5 5 2 2 2 2 1 2 1 2 2 2 2 2 3 3 4 3 3 2 2 2 1 2 2 3 3 3 2 2 2 2 1 2 3 3 4 4
9 8 7 6 6 5 5 4 2 2 2 2 2 1 1 1 2 2 3 3 3 4 3 3 3 4 4 4 4 4 4 4 3 3 3 2 3 1 1 3 3 4 4
9 10 9 8 6 6 5 5 4 2 2 2 2 2 2 2 2 2 3 3 3 4 5 5 5 6 6 6 7 7 7 5 4 4 3 3 3 2 2 2 2 4 7
8 8 9 9 7 7 6 6 5 3 2 2 2 3 4 4 4 4 4 4 5 6 6 6 7 7 8 8 7 7 7 6 5 4 3 3 3 3 3 3 3 3 5
9 8 7 8 7 7 6 6 5 4 4 3 5 5 5 5 5 4 5 5 6 6 7 8 8 9 9 8 8 8 7 6 6 5 4 4 4 4 4 4 4 4 5
9 9 7 7 7 7 6 6 5 5 5 5 5 6 5 5 5 6 6 6 7 8 9 9 9 9 9 8 7 7 7 7 7 7 6 6 6 6 6 6 5 6 6
9 9 9 8 7 7 7 6 6 6 6 5 5 6 6 6 6 7 7 8 9 9 9 9 9 8 8 8 8 8 8 8 8 8 7 7 7 7 7 7 7 7 7
8 8 9 9 8 7 6 6 6 6 6 6 7 7 7 6 7 7 8 8 8 8 8 8 8 8 8 8 8 8 9 8 9 8 8 8 8 8 8 8 7 7 7
8 9 8 8 8 8 7 7 6 6 6 6 7 7 7 7 7 8 8 8 8 8 8 9 9 9 9 9 8 8 8 8 9 9 8 8 7 7 7 7 7 8 8
8 8 8 8 8 7 7 7 7 6 6 7 7 7 7 8 7 8 8 8 9 9 9 10 10 9 9 7 7 8 8 8 9 9 8 8 8 8 7 7 7 7 8
8 8 8 8 8 7 7 7 6 6 7 7 7 7 7 7 7 8 8 9 10 10 10 10 10 9 8 7 7 8 9 9 9 9 9 9 9 10 10 10 10 10 9
8 8 8 8 7 7 7 6 6 6 7 7 7 7 7 7 8 8 9 10 9 10 10 10 10 10 9 7 7 8 10 9 9 9 9 10 11 11 11 12 12 12 11
8 8 8 8 7 7 7 7 7 6 6 7 7 7 7 8 8 8 9 11 12 13 12 10 10 10 9 7 7 9 9 10 10 10 11 11 11 11 10 12 13 13 13
7 8 8 7 7 7 7 8 8 8 7 7 7 7 7 7 8 8 10 10 10 11 10 10 10 10 10 9 7 8 10 10 11 12 12 11 10 11 10 12 13 14 13
8 7 8 8 8 8 8 8 8 8 7 7 7 7 7 8 8 10 10 10 10 10 11 11 11 10 10 9 8 8 10 11 12 12 13 13 11 10 10 10 12 13 12
8 8 9 9 9 9 8 8 8 8 7 7 8 8 8 9 10 10 10 10 10 11 11 11 11 10 10 9 8 8 8 10 12 13 13 13 12 11 10 10 11 11 12
9 9 9 9 9 9 9 8 8 8 8 8 8 8 9 9 10 10 11 11 11 11 11 11 11 11 11 11 9 8 8 8 13 13 13 12 12 11 10 9 10 11 12
9 9 9 9 10 10 9 9 8 8 8 8 9 9 9 10 10 10 10 11 11 11 11 11 11 11 11 11 11 10 9 8 9 10 11 11 12 11 11 11 11 12 13
8 9 9 10 10 10 9 9 8 8 8 8 9 9 9 10 10 10 10 10 10 9 10 10 11 11 12 11 10 11 11 11 11 12 13 13 13 13 13 13 13 13 13
8 8 9 9 9 10 10 9 8 8 8 9 9 9 9 9 10 10 10 9 8 8 8 8 10 11 9 9 9 9 9 9 10 12 13 13 13 14 14 14 13 13 13

GFSMW_con_lsi_108.txt.gz
Lid_Strength_Index
4 3 3 2 2 2 2 1 1 1 1 1 1 1 1 0 0 -1 -1 -1 -1 -1 -1 -1 -1 -1 -0 0 -0 0 1 1 -0 1 1 1 0 0 -0 -1 -1 -1 -1
5 4 3 3 2 2 2 1 1 1 1 1 1 0 0 0 -0 -1 -1 -1 -1 -1 -1 -1 -0 -0 -0 -0 0 0 1 1 0 2 2 4 2 1 0 -0 0 -0 -1
6 5 4 3 3 3 2 2 1 1 1 0 0 0 0 0 1 0 -0 -1 -1 -1 -1 -1 -1 -0 -0 1 0 0 1 2 1 1 3 5 5 3 1 0 -0 0 -0
6 4 4 4 3 3 1 1 1 1 1 0 1 1 2 3 1 1 0 -0 -1 -1 0 0 -0 -0 -0 0 0 0 0 1 3 1 1 1 2 4 5 1 1 0 1
5 6 6 4 3 2 2 1 1 1 1 1 1 1 2 2 1 1 1 0 -0 -0 -0 -0 -0 -0 -0 -0 0 0 1 1 1 2 2 2 2 2 3 5 3 1 0
5 5 5 5 4 2 2 2 2 2 1 1 1 1 2 2 2 2 2 1 0 0 -0 -0 -0 -0 -0 0 0 0 1 1 1 1 1 2 3 3 3 4 3 3 1
5 5 5 5 5 4 3 2 2 2 1 1 1 1 1 1 2 2 2 1 1 1 1 1 0 0 0 1 1 1 1 2 2 2 1 1 1 1 2 2 3 3 2
5 5 5 4 4 3 3 2 2 2 1 1 1 1 1 1 1 1 1 1 1 1 1 1 1 1 2 2 2 3 3 2 2 2 2 2 1 1 1 2 3 4 3
6 6 6 4 4 4 3 2 2 2 1 1 1 1 1 1 1 1 1 1 1 1 2 2 3 3 4 4 3 2 3 3 3 3 2 2 1 2 1 0 1 3 5
7 6 6 7 6 5 3 3 2 2 1 1 1 1 1 1 1 0 1 1 2 3 3 4 4 5 5 5 5 5 5 5 4 3 3 3 2 1 1 1 1 2 3
6 6 6 7 7 6 5 4 3 2 2 1 1 1 1 2 2 2 3 3 4 4 5 6 6 7 7 6 6 6 6 5 4 4 3 3 3 3 2 2 2 3 3
6 5 5 5 6 5 5 4 3 3 1 1 1 1 2 3 2 2 3 4 4 5 6 6 7 7 7 7 7 7 6 5 5 4 4 4 4 3 3 3 3 4 4
6 6 5 4 4 5 4 4 3 3 2 2 2 3 3 2 2 2 4 4 5 7 8 8 8 9 8 7 6 5 5 5 5 5 5 5 5 4 4 4 5 4 5
6 6 6 5 4 4 4 4 4 3 3 3 3 4 3 3 3 3 4 5 6 7 9 8 9 8 8 6 6 6 6 6 6 6 5 5 5 5 5 5 5 5 5
6 6 6 6 5 5 4 4 4 4 4 4 4 4 4 4 4 4 5 5 6 7 7 8 7 6 6 7 6 6 6 6 6 6 6 6 7 7 6 6 5 6 6
5 5 6 6 6 5 5 4 4 4 4 4 4 5 5 5 5 5 5 5 6 6 6 6 6 7 8 8 7 6 6 6 7 7 7 7 8 7 7 7 7 7 7
5 5 5 6 6 6 5 5 4 4 4 4 4 5 5 5 5 6 6 6 6 6 6 7 7 7 7 7 6 7 6 7 7 7 7 8 8 8 8 9 9 9 9
5 5 6 5 5 5 5 5 4 4 4 4 4 4 5 5 5 6 6 6 6 6 7 7 7 7 7 6 6 8 8 7 7 7 7 7 8 9 10 9 10 11 10
5 5 5 5 5 5 5 5 5 4 4 4 3 4 4 5 5 6 5 6 8 8 7 8 8 7 7 6 6 7 7 7 8 8 8 9 9 10 10 10 11 11 11
5 5 5 5 5 5 5 5 5 5 5 4 4 4 4 4 5 5 6 6 8 9 8 8 8 7 6 6 6 7 7 8 9 10 10 10 10 10 10 10 11 12 12
6 5 5 5 5 5 5 5 5 5 4 4 4 4 4 5 5 7 7 8 9 9 8 8 7 7 6 7 7 7 8 9 9 10 10 11 10 9 10 10 10 11 11
7 7 6 6 6 6 6 6 5 4 5 5 4 4 4 6 6 7 8 8 8 8 9 8 8 8 8 8 8 7 8 8 9 10 10 10 11 10 10 10 10 11 11
6 6 7 7 7 7 7 7 6 6 6 5 5 5 5 6 6 8 9 9 8 9 8 8 8 8 8 8 8 7 7 8 10 10 11 12 12 11 11 9 10 10 10
7 7 6 6 7 7 8 7 6 6 5 5 5 5 6 7 7 8 9 8 9 8 8 8 9 8 9 9 8 8 8 8 8 10 10 10 11 11 11 11 9 10 10
6 7 7 8 8 7 7 7 6 6 6 6 6 6 7 8 8 8 8 9 8 7 8 8 8 9 9 9 8 9 9 8 8 9 11 11 12 12 12 11 11 11 11
7 7 7 8 7 7 7 8 7 6 6 7 7 8 8 9 9 9 10 8 8 8 8 8 9 9 9 9 8 8 9 9 9 10 12 12 12 12 12 12 12 12 12

GFSMW_con_lsi_111.txt.gz
Lid_Strength_Index
4 3 3 2 2 2 2 2 2 1 1 1 1 1 1 1 0 -0 -0 -0 -0 -1 -0 -0 -0 -0 0 0 0 0 1 1 0 1 1 1 0 0 0 -1 -1 -0 -1
5 4 3 3 3 2 2 2 2 1 1 1 1 1 1 0 0 -0 -1 -1 -1 -1 -0 0 -0 -0 0 0 0 1 1 1 0 2 2 4 3 1 0 -0 -0 -0 -1
6 5 4 4 3 3 2 2 2 1 1 1 1 1 0 1 1 1 0 -0 -1 -1 -1 -1 -0 -0 -0 0 0 0 1 2 1 1 3 5 6 3 1 1 0 0 -0
5 5 4 4 3 3 2 2 1 1 1 1 1 2 2 3 1 1 0 0 -0 -0 -1 -0 -0 -0 -0 0 0 0 0 1 2 1 1 1 2 5 5 2 1 0 0
5 5 4 4 3 2 2 2 1 1 1 1 1 1 2 1 1 1 1 0 -0 -0 -0 -0 -0 -0 0 0 0 1 1 1 1 2 2 2 2 2 4 5 3 1 1
5 4 4 3 3 2 2 2 2 2 1 1 1 1 2 2 2 2 2 1 1 0 -0 -0 -0 -0 0 0 0 0 0 1 1 1 1 2 3 3 3 4 4 3 2
5 5 5 4 3 3 3 2 2 2 1 1 1 1 1 1 2 2 2 2 1 1 1 0 0 0 0 0 0 0 1 1 2 2 2 1 1 1 2 3 3 4 2
4 4 4 4 4 3 3 2 2 2 2 2 1 1 1 1 1 1 1 1 1 1 0 0 -0 0 0 1 1 1 1 2 3 3 3 2 2 1 1 2 3 4 4
6 4 3 4 4 3 3 2 2 2 2 2 1 1 1 1 1 1 1 1 1 1 1 0 1 1 2 2 2 3 4 3 3 2 2 3 3 2 1 1 2 3 5
6 5 5 5 4 3 2 2 2 2 2 1 1 1 1 1 1 1 1 1 1 1 1 2 3 3 4 4 4 4 5 5 4 3 3 3 2 2 2 2 2 2 3
5 5 5 6 6 5 3 3 2 2 2 2 1 1 1 1 1 1 1 2 2 3 3 5 5 5 5 5 6 6 5 5 5 4 4 3 2 3 2 2 2 3 3
5 5 5 6 5 5 5 4 3 2 2 1 1 1 1 2 2 2 3 3 4 4 4 5 6 7 7 7 7 7 6 6 6 5 5 4 4 4 3 3 3 3 3
6 5 4 4 5 5 5 4 4 3 2 1 2 2 1 1 1 2 3 3 4 5 5 6 7 8 8 7 7 7 7 6 5 5 5 5 5 5 4 4 4 4 5
5 5 5 4 4 4 4 3 3 3 3 2 2 2 2 1 1 2 2 3 4 6 7 8 8 8 8 7 7 7 6 6 6 6 5 5 5 5 5 5 5 5 6
5 5 6 5 4 4 4 3 3 3 3 3 3 3 3 3 3 3 4 5 5 6 7 8 8 8 8 8 8 6 6 6 6 6 6 6 7 7 7 6 6 6 6
5 5 5 5 5 5 4 4 3 3 3 4 4 4 4 4 4 4 4 5 6 7 8 8 8 8 8 7 6 6 6 7 6 7 7 7 8 8 7 7 7 7 7
5 5 5 5 5 5 5 4 4 3 3 3 4 4 5 5 5 5 5 5 6 7 7 7 8 8 7 7 7 6 6 7 7 7 7 7 7 8 7 8 9 9 9
5 5 5 5 5 5 5 5 4 4 4 4 4 4 5 5 5 6 6 6 6 6 6 6 6 7 7 7 7 8 8 7 7 7 6 7 7 8 8 9 10 10 10
5 5 4 4 4 4 4 4 4 4 4 4 3 4 4 5 5 6 6 6 8 8 7 7 7 7 8 7 7 8 7 7 7 7 7 7 8 8 9 10 11 11 11
4 5 4 4 4 4 4 5 4 4 4 4 3 3 3 4 5 5 6 6 8 9 7 7 7 6 7 6 7 7 7 7 8 8 8 9 9 9 9 10 10 12 12
5 5 4 4 4 4 4 5 4 4 4 4 3 3 3 4 4 6 6 6 8 8 7 8 7 7 6 7 7 6 7 8 9 10 10 10 9 9 9 9 10 11 11
6 6 6 5 5 5 5 5 5 4 4 4 4 4 3 4 5 6 7 7 8 8 8 8 8 7 6 6 6 6 7 7 9 10 9 9 10 9 9 9 9 10 11
5 5 6 6 6 6 6 6 5 5 5 4 5 4 4 5 5 6 7 8 7 7 8 8 8 8 7 7 7 7 7 7 8 9 10 10 11 10 10 9 9 10 12
5 5 5 6 6 6 6 6 6 5 5 5 5 4 5 5 5 6 7 8 7 7 7 8 8 8 8 8 8 8 8 7 8 9 11 11 11 11 11 11 10 11 12
5 5 6 7 7 6 6 6 6 5 5 5 5 5 5 6 6 7 8 7 7 6 7 7 8 9 9 9 8 8 8 8 8 10 11 11 12 12 12 12 12 11 12
6 6 6 7 7 6 7 7 6 6 5 6 6 6 7 8 8 8 9 8 8 7 7 7 8 9 8 7 7 7 7 8 7 10 12 12 12 12 12 13 13 12 12

GFSMW_con_lsi_114.txt.gz
Lid_Strength_Index
5 4 3 3 3 2 2 3 3 1 2 2 2 2 2 1 1 0 0 0 -0 0 1 1 0 1 1 1 1 1 2 2 2 2 2 2 2 2 2 1 2 1 1
6 5 4 3 3 3 2 2 2 1 1 1 1 2 2 1 1 0 0 -0 0 -0 0 0 1 0 1 1 1 1 2 2 1 3 3 5 4 2 2 3 2 2 1
6 5 5 4 3 3 2 2 2 1 1 1 1 1 1 1 1 2 2 1 1 1 0 0 0 1 1 1 1 2 1 3 2 1 3 6 6 4 2 3 2 2 2
6 5 5 4 4 3 2 2 2 2 1 1 1 2 2 3 2 1 1 0 0 0 0 1 1 1 1 1 2 1 1 2 3 2 1 2 2 5 6 3 3 2 3
6 5 5 4 3 2 2 2 2 2 2 1 1 2 3 3 1 1 2 2 2 1 1 1 1 1 1 1 2 1 1 2 2 2 2 2 2 3 4 6 4 3 3
6 5 4 4 3 3 3 2 2 3 2 2 1 2 2 2 2 2 2 2 2 1 0 0 0 0 0 1 1 1 1 1 1 1 2 2 3 4 4 5 5 5 3
6 5 5 4 4 3 3 2 2 3 2 1 1 1 2 2 2 2 2 2 2 1 1 0 0 0 0 1 1 1 1 1 1 1 2 2 2 2 4 5 6 6 4
6 5 5 5 4 3 3 3 2 2 2 2 2 2 1 2 2 2 2 1 2 2 1 0 0 0 0 0 0 0 0 1 1 2 3 3 3 3 4 4 6 6 5
6 5 5 5 4 3 3 3 2 2 2 2 1 1 1 1 1 1 1 1 2 1 1 0 1 1 0 1 1 2 3 3 3 3 4 4 4 4 4 4 4 5 7
7 7 7 6 5 5 3 3 2 2 2 2 1 1 1 1 1 1 2 1 1 1 1 1 1 2 2 2 2 3 3 3 4 4 4 5 5 5 4 4 4 4 5
8 7 7 7 8 7 4 3 3 3 2 2 2 1 1 1 1 1 1 1 1 1 2 2 2 3 3 3 3 4 4 5 6 5 5 5 5 5 5 4 5 5 5
8 7 7 7 7 7 6 5 5 3 3 2 2 2 3 3 3 2 2 2 3 3 4 4 5 5 5 5 6 7 7 6 7 7 6 5 6 6 6 6 6 6 6
8 8 7 7 6 6 7 6 5 3 3 3 2 2 2 3 4 4 4 4 5 5 5 5 5 6 7 7 7 7 7 7 7 7 7 7 6 7 6 6 7 7 6
8 8 8 6 6 6 6 5 4 4 3 3 3 4 3 3 3 4 4 5 6 6 7 7 7 7 8 8 8 8 8 7 8 8 7 7 7 7 7 7 8 8 8
7 7 8 7 7 6 6 5 5 5 5 4 4 4 4 4 4 5 5 5 6 7 7 8 8 8 8 8 8 8 8 8 9 8 8 8 8 7 7 8 9 8 9
6 7 7 7 7 7 6 5 5 5 5 5 5 5 5 5 5 6 6 7 7 7 8 8 8 8 8 7 7 7 9 8 8 9 9 9 8 8 7 7 7 8 10
7 7 7 7 7 7 7 7 6 5 5 5 5 6 6 6 6 6 7 7 8 8 8 8 8 9 8 7 6 7 8 9 9 9 9 9 9 8 9 8 8 9 8
7 7 7 7 7 6 7 7 6 5 5 5 6 6 6 6 7 7 8 8 8 7 7 8 8 9 9 7 7 7 9 9 9 8 9 9 10 9 10 10 11 12 11
6 6 6 6 6 6 6 6 6 6 5 5 5 6 6 7 7 8 8 8 10 10 9 9 9 10 8 7 7 8 8 9 9 9 9 9 10 8 8 11 12 12 12
6 6 6 6 6 6 6 6 6 6 7 6 5 5 5 6 7 8 8 9 9 10 9 9 9 8 8 6 7 7 8 10 10 10 10 8 9 8 8 10 12 14 14
6 6 6 7 7 6 6 7 6 6 5 5 5 4 5 6 6 8 8 10 9 9 9 9 9 9 8 7 6 6 8 9 10 11 11 11 8 8 8 8 11 12 13
6 6 7 7 6 7 7 7 7 6 6 6 5 6 5 5 7 8 9 9 10 10 10 10 9 9 8 6 6 6 6 7 11 11 10 11 8 8 8 9 9 10 11
7 6 7 7 7 7 7 8 8 7 6 6 6 6 5 6 7 8 9 10 10 10 10 9 9 9 8 7 6 6 6 7 10 11 10 9 9 9 10 9 9 9 13
6 6 6 7 8 7 7 8 7 7 7 7 7 6 5 6 6 7 9 9 9 9 9 8 8 9 9 9 9 8 7 7 8 8 11 11 12 11 12 12 11 13 13
6 6 7 8 8 8 8 8 8 7 7 6 6 6 6 6 7 7 8 9 8 8 8 9 9 10 10 9 8 8 9 9 9 10 11 12 13 14 13 14 13 13 13
7 7 6 7 7 7 8 8 8 8 8 8 7 7 7 8 8 8 9 8 7 7 7 7 8 8 7 7 7 7 7 7 7 11 12 12 12 13 13 13 14 13 12

GFSMW_con_lsi_117.txt.gz
Lid_Strength_Index
5 4 3 2 3 2 2 2 2 1 1 1 2 3 3 2 2 2 2 2 1 1 0 0 0 0 1 1 1 2 2 2 2 2 2 2 2 2 2 2 2 2 1
6 5 4 3 3 3 2 2 2 1 1 1 1 1 2 1 1 1 1 1 0 -0 0 1 1 1 1 1 2 1 2 2 2 3 4 5 4 4 2 3 3 3 1
6 5 4 4 3 3 2 2 2 1 1 1 1 1 1 1 1 1 1 0 -0 -0 1 1 1 1 1 1 1 2 2 3 2 2 3 5 7 4 3 3 3 3 2
6 5 5 4 4 3 2 2 2 1 1 1 1 2 2 3 2 1 1 0 0 0 0 1 1 1 1 2 2 2 2 2 3 2 2 2 3 5 6 4 3 3 3
6 5 5 4 3 2 2 2 2 1 1 2 1 2 2 2 1 1 2 1 1 1 1 1 1 1 1 2 2 1 1 1 2 2 2 3 2 2 5 6 5 4 3
6 5 4 3 3 2 3 3 3 2 2 1 2 2 2 2 2 2 3 3 3 2 1 1 1 1 1 1 1 1 1 1 2 2 2 2 3 4 4 5 5 5 5
6 5 5 4 4 3 3 3 3 3 2 1 2 2 2 2 2 2 2 3 3 3 2 1 1 1 1 0 0 0 1 1 2 2 2 1 2 2 4 5 6 6 5
6 5 5 4 4 3 3 3 3 3 2 2 2 2 2 2 2 2 2 2 3 2 1 0 1 1 1 1 0 0 1 1 1 1 1 1 2 3 4 5 6 7 7
7 6 5 4 4 3 3 3 2 3 3 2 2 2 2 2 2 2 2 2 2 3 2 1 1 1 1 1 1 1 1 1 1 1 2 3 3 4 4 4 5 7 9
8 8 7 7 4 3 3 2 2 2 2 2 2 2 1 1 1 1 2 2 2 2 2 2 2 1 1 1 1 2 2 2 3 3 3 4 4 5 5 5 5 5 6
8 8 8 7 7 6 4 3 2 2 2 2 1 1 1 1 1 1 1 1 1 1 2 2 2 2 2 2 2 2 2 3 4 4 4 5 5 5 6 5 5 6 6
9 8 8 7 8 8 6 4 3 2 2 2 2 2 1 1 1 1 1 1 2 1 1 2 2 2 2 2 2 3 3 4 4 5 6 6 6 7 6 6 6 6 7
10 8 8 8 7 6 6 6 4 3 2 2 2 2 2 2 2 1 2 2 3 3 3 3 3 4 4 4 5 5 6 6 6 7 7 7 7 7 7 7 7 7 7
8 9 9 8 7 7 6 6 5 4 4 3 3 3 3 3 3 3 4 4 5 4 5 5 5 5 6 6 7 7 7 7 7 7 7 7 7 7 8 8 8 8 8
8 8 9 10 9 7 6 6 6 5 4 4 4 4 4 4 4 4 5 6 6 7 7 7 7 7 7 8 7 7 8 8 9 9 9 9 8 8 8 9 9 9 9
8 8 8 8 8 9 8 6 6 6 6 5 5 5 5 4 6 6 7 7 7 8 8 8 8 8 8 7 7 7 8 9 9 10 9 10 9 8 7 7 8 9 10
8 8 8 8 8 8 7 7 6 6 6 6 6 7 6 6 6 7 8 8 9 9 9 9 9 8 8 7 7 8 8 9 9 10 10 10 9 9 9 8 8 8 8
8 7 8 8 8 7 7 7 7 6 6 6 6 6 6 7 7 8 8 9 9 9 9 9 9 9 8 7 7 8 9 10 9 9 10 11 11 10 10 11 12 12 12
7 7 7 7 7 8 7 7 7 7 7 6 6 6 6 7 7 8 8 9 11 11 9 8 9 9 8 7 7 9 10 10 10 9 9 10 11 8 8 11 13 13 13
7 7 7 7 7 7 7 7 7 7 7 7 7 5 6 7 8 8 9 9 9 10 10 9 9 8 9 7 7 8 9 10 10 10 9 8 10 7 8 12 12 14 14
7 7 7 7 7 7 7 8 8 8 7 6 6 6 5 6 7 8 9 10 10 10 10 10 10 9 9 8 7 7 9 10 11 11 12 10 7 7 7 9 11 11 12
7 7 7 7 7 7 8 8 9 7 7 7 7 7 6 6 7 8 9 10 10 10 10 10 10 9 9 7 6 6 7 8 10 11 11 10 8 7 7 8 8 8 11
8 8 8 8 8 8 8 9 9 8 7 7 7 7 6 7 7 8 9 10 10 10 10 10 10 10 9 8 5 5 6 7 10 11 10 9 8 8 8 8 8 9 14
9 8 8 9 9 8 8 9 8 8 8 8 7 7 7 5 6 7 8 10 10 10 10 10 10 9 9 8 7 6 7 7 9 9 10 10 10 10 11 11 11 13 14
9 8 9 10 9 8 8 9 8 8 8 8 7 6 6 6 6 7 7 8 8 8 9 8 8 9 9 8 7 7 7 8 8 10 12 13 14 14 14 14 14 13 13
10 9 8 8 8 8 8 8 8 8 8 8 8 7 7 8 7 8 8 7 7 6 7 7 7 8 7 7 7 7 7 7 7 11 12 12 12 13 14 14 13 14 12